[[{"header":{"parameterUnit":"m.s-1","parameterCategory":1,"la1":30.6,"la2":29.2853,"lo1":-89.7004,"lo2":-87.6739,"dx":0.0162,"dy":0.0183,"nx":112,"ny":82,"refTime":"2022-12-08T06:00:00:Z","depth":0,"parameterNumber":2,"parameterNumberName":"U-component_of_WINDS"},"data":[0.0,0.0,0.0,0.0,0.0,0.0,0.0,0.0,0.0,0.0,0.0,0.0,0.0,0.0,0.0,0.0,0.0,0.0,0.0,0.0,0.0,0.0,0.0,0.0,0.0,0.0,0.0,0.0,0.0,0.0,0.0,0.0,0.0,0.0,0.0,0.0,0.0,0.0,0.0,0.0,0.0,0.0,0.0,0.0,0.0,0.0,0.0,0.0,0.0,0.0,0.0,0.0,0.0,0.0,0.0,0.0,0.0,0.0,0.0,0.0,0.0,0.0,0.0,0.0,0.0,0.0,0.0,0.0,0.0,0.0,0.0,0.0,0.0,0.0,0.0,0.0,0.0,0.0,0.0,0.0,0.0,0.0,0.0,0.0,0.0,0.0,0.0,0.0,0.0,0.0,-1.0489,-1.1685,-1.2479,-1.2881,-1.2881,-1.2881,-1.2139,-1.0391,0.0,0.0,0.0,0.0,0.0,0.0,0.0,0.0,0.0,0.0,0.0,0.0,0.0,0.0,0.0,0.0,0.0,0.0,0.0,0.0,0.0,0.0,0.0,0.0,0.0,0.0,0.0,0.0,0.0,0.0,0.0,0.0,0.0,0.0,0.0,0.0,0.0,0.0,0.0,0.0,0.0,0.0,0.0,0.0,0.0,0.0,0.0,0.0,0.0,0.0,0.0,0.0,0.0,0.0,0.0,0.0,0.0,0.0,0.0,0.0,0.0,0.0,0.0,0.0,0.0,0.0,0.0,0.0,0.0,0.0,0.0,0.0,0.0,0.0,0.0,0.0,0.0,0.0,0.0,0.0,0.0,0.0,0.0,0.0,0.0,0.0,0.0,0.0,0.0,0.0,0.0,0.0,0.0,0.0,0.0,0.0,0.0,0.0,0.0,0.0,0.0,0.0,0.0,0.0,-0.9734,-1.2439,-1.2803,-1.2881,-1.2881,-1.2881,-1.2139,-1.0391,0.0,0.0,0.0,0.0,0.0,0.0,0.0,0.0,0.0,0.0,0.0,0.0,0.0,0.0,0.0,0.0,0.0,0.0,0.0,0.0,0.0,0.0,0.0,0.0,0.0,0.0,0.0,0.0,0.0,0.0,0.0,0.0,0.0,0.0,0.0,0.0,0.0,0.0,0.0,0.0,0.0,0.0,0.0,0.0,0.0,0.0,0.0,0.0,0.0,0.0,0.0,0.0,0.0,0.0,0.0,0.0,0.0,0.0,0.0,0.0,0.0,0.0,0.0,0.0,0.0,0.0,0.0,0.0,0.0,0.0,0.0,0.0,0.0,0.0,0.0,0.0,0.0,0.0,0.0,0.0,0.0,0.0,0.0,0.0,0.0,0.0,0.0,0.0,0.0,0.0,0.0,0.0,0.0,0.0,0.0,0.0,0.0,0.0,0.0,0.0,0.0,0.0,0.0,-1.0605,-1.0645,-1.2978,-1.3018,-1.2969,-1.3203,-1.3018,-1.2139,-1.0391,-0.8977,0.0,0.0,0.0,0.0,0.0,0.0,0.0,0.0,0.0,0.0,0.0,0.0,0.0,0.0,0.0,0.0,0.0,0.0,0.0,0.0,0.0,0.0,0.0,0.0,0.0,0.0,0.0,0.0,0.0,0.0,0.0,0.0,0.0,0.0,0.0,0.0,0.0,0.0,0.0,0.0,0.0,0.0,0.0,0.0,0.0,0.0,0.0,0.0,0.0,0.0,0.0,0.0,0.0,0.0,0.0,0.0,0.0,0.0,0.0,0.0,0.0,0.0,0.0,0.0,0.0,0.0,0.0,0.0,0.0,0.0,0.0,0.0,0.0,0.0,0.0,0.0,0.0,0.0,0.0,0.0,0.0,0.0,0.0,0.0,0.0,0.0,0.0,0.0,0.0,0.0,0.0,0.0,0.0,0.0,0.0,0.0,0.0,0.0,0.0,0.0,0.0,0.0,-1.123,-1.2178,-1.3516,-1.3457,-1.3418,-1.3633,-1.3359,-1.2393,-1.0547,-0.8998,0.0,0.0,0.0,0.0,0.0,0.0,0.0,0.0,0.0,0.0,0.0,0.0,0.0,0.0,0.0,0.0,0.0,0.0,0.0,0.0,0.0,0.0,0.0,0.0,0.0,0.0,0.0,0.0,0.0,0.0,0.0,0.0,0.0,0.0,0.0,0.0,0.0,0.0,0.0,0.0,0.0,0.0,0.0,0.0,0.0,0.0,0.0,0.0,0.0,0.0,0.0,0.0,0.0,0.0,0.0,0.0,0.0,0.0,0.0,0.0,0.0,0.0,0.0,0.0,0.0,0.0,0.0,0.0,0.0,0.0,0.0,0.0,0.0,0.0,0.0,0.0,0.0,0.0,0.0,0.0,0.0,0.0,0.0,0.0,0.0,0.0,0.0,0.0,0.0,0.0,0.0,0.0,0.0,0.0,0.0,0.0,0.0,0.0,0.0,0.0,0.0,0.0,-1.2122,-1.3902,-1.4019,-1.4424,-1.4502,-1.4068,-1.4009,-1.3085,-1.0996,-0.9763,0.0,0.0,0.0,0.0,0.0,0.0,0.0,0.0,0.0,0.0,0.0,0.0,0.0,0.0,0.0,0.0,0.0,0.0,0.0,0.0,0.0,0.0,0.0,0.0,0.0,0.0,0.0,0.0,0.0,0.0,0.0,0.0,0.0,0.0,0.0,0.0,0.0,0.0,0.0,0.0,0.0,0.0,0.0,0.0,0.0,0.0,0.0,0.0,0.0,0.0,0.0,0.0,0.0,0.0,0.0,0.0,0.0,0.0,0.0,0.0,0.0,0.0,0.0,0.0,0.0,0.0,0.0,0.0,0.0,0.0,0.0,0.0,0.0,0.0,0.0,0.0,0.0,0.0,0.0,0.0,0.0,0.0,0.0,0.0,0.0,0.0,0.0,0.0,0.0,0.0,0.0,0.0,0.0,0.0,0.0,0.0,0.0,0.0,0.0,0.0,0.0,0.0,-1.2207,-1.4043,-1.4844,-1.4844,-1.4717,-1.4551,-1.4287,-1.3096,-1.0674,0.0,0.0,0.0,0.0,0.0,0.0,0.0,0.0,0.0,0.0,0.0,0.0,0.0,0.0,0.0,0.0,0.0,0.0,0.0,0.0,0.0,0.0,0.0,0.0,0.0,0.0,0.0,0.0,0.0,0.0,0.0,0.0,0.0,0.0,0.0,0.0,0.0,0.0,0.0,0.0,0.0,0.0,0.0,0.0,0.0,0.0,0.0,0.0,0.0,0.0,0.0,0.0,0.0,0.0,0.0,0.0,0.0,0.0,0.0,0.0,0.0,0.0,0.0,0.0,0.0,0.0,0.0,0.0,0.0,0.0,0.0,0.0,0.0,0.0,0.0,0.0,0.0,0.0,0.0,0.0,0.0,0.0,0.0,0.0,0.0,0.0,0.0,0.0,0.0,0.0,0.0,0.0,0.0,0.0,0.0,0.0,0.0,0.0,0.0,0.0,0.0,0.0,-1.0576,-1.2852,-1.4863,-1.5742,-1.5576,-1.5352,-1.5205,-1.4785,-1.3328,-1.0533,0.0,0.0,0.0,0.0,0.0,0.0,0.0,0.0,0.0,0.0,0.0,0.0,0.0,0.0,0.0,0.0,0.0,0.0,0.0,0.0,0.0,0.0,0.0,0.0,0.0,0.0,0.0,0.0,0.0,0.0,0.0,0.0,0.0,0.0,0.0,0.0,0.0,0.0,0.0,0.0,0.0,0.0,0.0,0.0,0.0,0.0,0.0,0.0,0.0,0.0,0.0,0.0,0.0,0.0,0.0,0.0,0.0,0.0,0.0,0.0,0.0,0.0,0.0,0.0,0.0,0.0,0.0,0.0,0.0,0.0,0.0,0.0,0.0,0.0,0.0,0.0,0.0,0.0,0.0,0.0,0.0,0.0,0.0,0.0,0.0,0.0,0.0,0.0,0.0,0.0,0.0,0.0,0.0,0.0,0.0,0.0,0.0,0.0,0.0,0.0,0.0,0.0,-1.0977,-1.4336,-1.6685,-1.6738,-1.6738,-1.6553,-1.6103,-1.5664,-1.4014,0.0,0.0,0.0,0.0,0.0,0.0,0.0,0.0,0.0,0.0,0.0,0.0,0.0,0.0,0.0,0.0,0.0,0.0,0.0,0.0,0.0,0.0,0.0,0.0,0.0,0.0,0.0,0.0,0.0,0.0,0.0,0.0,0.0,0.0,0.0,0.0,0.0,0.0,0.0,0.0,0.0,0.0,0.0,0.0,0.0,0.0,0.0,0.0,0.0,0.0,0.0,0.0,0.0,0.0,0.0,0.0,0.0,0.0,0.0,0.0,0.0,0.0,0.0,0.0,0.0,0.0,0.0,0.0,0.0,0.0,0.0,0.0,0.0,0.0,0.0,0.0,0.0,0.0,0.0,0.0,0.0,0.0,0.0,0.0,0.0,0.0,0.0,0.0,0.0,0.0,0.0,0.0,0.0,0.0,0.0,0.0,0.0,0.0,0.0,0.0,0.0,0.0,0.0,-1.1816,-1.5234,-1.7519,-1.7227,-1.7197,-1.6885,-1.6184,-1.5947,-1.4218,-1.0318,0.0,0.0,0.0,0.0,0.0,0.0,0.0,0.0,0.0,0.0,0.0,0.0,0.0,0.0,0.0,0.0,0.0,0.0,0.0,0.0,0.0,0.0,0.0,0.0,0.0,0.0,0.0,0.0,0.0,0.0,0.0,0.0,0.0,0.0,0.0,0.0,0.0,0.0,0.0,0.0,0.0,0.0,0.0,0.0,0.0,0.0,0.0,0.0,0.0,0.0,0.0,0.0,0.0,0.0,0.0,0.0,0.0,0.0,0.0,0.0,0.0,0.0,0.0,0.0,0.0,0.0,0.0,0.0,0.0,0.0,0.0,0.0,0.0,0.0,0.0,0.0,0.0,0.0,0.0,0.0,0.0,0.0,0.0,0.0,0.0,0.0,0.0,0.0,0.0,0.0,0.0,0.0,0.0,0.0,0.0,0.0,0.0,0.0,0.0,0.0,0.0,0.0,-1.2171,-1.5615,-1.791,-1.7666,-1.749,-1.71,-1.6387,-1.6162,-1.4642,-1.1154,0.0,0.0,0.0,0.0,0.0,0.0,0.0,0.0,0.0,0.0,0.0,0.0,0.0,0.0,0.0,0.0,0.0,0.0,0.0,0.0,0.0,0.0,0.0,0.0,0.0,0.0,0.0,0.0,0.0,0.0,0.0,0.0,0.0,0.0,0.0,0.0,0.0,0.0,0.0,0.0,0.0,0.0,0.0,0.0,0.0,0.0,0.0,0.0,0.0,0.0,0.0,0.0,0.0,0.0,0.0,0.0,0.0,0.0,0.0,0.0,0.0,0.0,0.0,0.0,0.0,0.0,0.0,0.0,0.0,0.0,0.0,0.0,0.0,0.0,0.0,0.0,0.0,0.0,0.0,0.0,0.0,0.0,0.0,0.0,0.0,0.0,0.0,0.0,0.0,0.0,0.0,0.0,0.0,0.0,0.0,0.0,0.0,0.0,0.0,0.0,0.0,0.0,-1.2344,-1.5644,-1.8008,-1.8008,-1.7666,-1.7266,-1.6826,-1.6354,-1.5013,-1.261,0.0,0.0,0.0,0.0,0.0,0.0,0.0,0.0,0.0,0.0,0.0,0.0,0.0,0.0,0.0,0.0,0.0,0.0,0.0,0.0,0.0,0.0,0.0,0.0,0.0,0.0,0.0,0.0,0.0,0.0,0.0,0.0,0.0,0.0,0.0,0.0,0.0,0.0,0.0,0.0,0.0,0.0,0.0,0.0,0.0,0.0,0.0,0.0,0.0,0.0,0.0,0.0,0.0,0.0,0.0,0.0,0.0,0.0,0.0,0.0,-1.0982,-0.8004,0.0,0.0,0.0,0.0,0.0,0.0,0.0,0.0,0.0,0.0,0.0,0.0,0.0,0.0,0.0,0.0,0.0,0.0,0.0,0.0,0.0,0.0,0.0,0.0,0.0,0.0,0.0,0.0,0.0,0.0,0.0,0.0,0.0,0.0,0.0,0.0,0.0,0.0,0.0,0.0,-1.2754,-1.582,-1.8008,-1.8008,-1.793,-1.7705,-1.7285,-1.6459,-1.4798,-1.2184,-1.3025,0.0,0.0,0.0,0.0,0.0,0.0,0.0,0.0,0.0,0.0,0.0,0.0,0.0,0.0,0.0,0.0,0.0,0.0,0.0,0.0,0.0,0.0,0.0,0.0,0.0,0.0,0.0,0.0,0.0,0.0,0.0,0.0,0.0,0.0,0.0,0.0,0.0,0.0,0.0,0.0,0.0,0.0,0.0,0.0,0.0,0.0,0.0,0.0,0.0,0.0,0.0,0.0,0.0,0.0,0.0,0.0,0.0,0.0,0.0,-1.385,-1.188,0.0,0.0,0.0,0.0,0.0,0.0,0.0,0.0,0.0,0.0,0.0,0.0,0.0,0.0,0.0,0.0,0.0,0.0,0.0,0.0,0.0,0.0,0.0,0.0,0.0,0.0,0.0,0.0,0.0,0.0,0.0,0.0,0.0,0.0,0.0,0.0,0.0,0.0,0.0,0.0,-1.291,-1.5889,-1.8008,-1.8008,-1.8008,-1.7842,-1.7422,-1.6466,-1.5149,-1.3433,-1.3072,0.0,0.0,0.0,0.0,0.0,0.0,0.0,0.0,0.0,0.0,0.0,0.0,0.0,0.0,0.0,0.0,0.0,0.0,0.0,0.0,0.0,0.0,0.0,0.0,0.0,0.0,0.0,0.0,0.0,0.0,0.0,0.0,0.0,0.0,0.0,0.0,0.0,0.0,0.0,0.0,0.0,0.0,0.0,0.0,0.0,0.0,0.0,0.0,0.0,0.0,0.0,0.0,0.0,-1.6416,-1.6908,-1.7624,-1.7437,-1.7909,-1.8802,-1.7086,-1.6548,-1.6622,-1.3217,0.0,0.0,0.0,0.0,0.0,0.0,0.0,0.0,0.0,0.0,0.0,0.0,0.0,0.0,0.0,0.0,0.0,0.0,0.0,0.0,0.0,0.0,-1.3679,-1.4809,-1.6548,-1.6895,-1.3279,0.0,0.0,0.0,0.0,0.0,0.0,0.0,0.0,0.0,0.0,0.0,-1.3359,-1.6064,-1.8008,-1.8008,-1.8008,-1.7871,-1.7519,-1.6434,-1.5473,-1.4827,-1.2167,-1.132,0.0,0.0,0.0,0.0,0.0,0.0,0.0,0.0,0.0,0.0,0.0,0.0,0.0,0.0,0.0,0.0,0.0,0.0,0.0,0.0,0.0,0.0,0.0,0.0,0.0,0.0,0.0,0.0,0.0,0.0,0.0,0.0,-1.4624,-1.3749,0.0,0.0,0.0,0.0,0.0,0.0,0.0,0.0,0.0,0.0,0.0,0.0,0.0,-1.5052,-1.6087,-1.7934,-1.9233,-1.9907,-2.2028,-2.3409,-2.4071,-2.3643,-2.3507,-2.3626,-2.2802,0.0,-1.7473,-1.6383,0.0,0.0,0.0,0.0,0.0,0.0,0.0,0.0,0.0,0.0,0.0,0.0,0.0,0.0,0.0,0.0,0.0,0.0,0.0,0.0,0.0,0.0,-1.7778,-1.9042,-1.9278,-1.8762,-1.728,-1.4718,-1.2648,-1.2474,-0.9853,-0.6494,0.0,0.0,0.0,0.0,0.0,0.0,-1.4961,-1.6797,-1.8008,-1.8008,-1.8008,-1.7988,-1.793,-1.6296,-1.5059,-1.4385,-1.3087,-1.1512,-0.9519,-1.085,0.0,0.0,0.0,0.0,0.0,0.0,0.0,0.0,0.0,0.0,0.0,0.0,0.0,0.0,0.0,0.0,0.0,0.0,0.0,0.0,0.0,0.0,0.0,0.0,0.0,0.0,0.0,0.0,0.0,-1.3102,-1.4087,-1.3783,-1.3023,-1.184,0.0,0.0,0.0,0.0,0.0,0.0,0.0,0.0,0.0,-1.7432,-1.7759,-1.8634,-2.0215,-2.1681,-2.2583,-2.2888,-2.4331,-2.5182,-2.547,-2.5273,-2.5181,-2.5166,-2.4866,-2.3744,-2.1994,-1.9818,-1.7249,-1.4546,0.0,0.0,0.0,0.0,-1.2066,-1.2844,-1.4074,-1.5463,-1.7104,-1.9563,0.0,0.0,0.0,0.0,0.0,0.0,0.0,-1.3496,-1.6672,-1.7852,-1.8623,-2.028,-2.0487,-1.9993,-1.8902,-1.7539,-1.5959,-1.4271,-1.3916,-1.2305,-0.7285,-0.7773,0.0,0.0,0.0,-1.459,-1.5322,-1.6934,-1.8008,-1.8008,-1.8008,-1.8008,-1.8008,-1.6298,-1.4919,-1.4329,-1.2826,-1.1321,-0.9899,-1.0093,-0.9429,0.0,0.0,0.0,0.0,0.0,0.0,0.0,0.0,0.0,0.0,0.0,0.0,0.0,0.0,0.0,0.0,0.0,0.0,0.0,0.0,0.0,0.0,0.0,0.0,0.0,0.0,0.0,0.0,-1.3833,-1.4516,-1.4205,-1.4377,-1.3481,0.0,0.0,0.0,0.0,0.0,0.0,-1.7075,-1.7371,-1.8455,-2.0485,-2.0809,-2.1705,-2.3381,-2.4204,-2.4672,-2.4836,-2.5555,-2.5959,-2.6108,-2.5929,-2.5854,-2.5854,-2.5674,-2.5615,-2.5405,-2.2787,-2.0505,-1.8593,-1.7267,-1.6067,-1.5037,-1.4836,-1.5253,-1.6145,-1.7801,-1.865,-1.9276,-2.0609,-2.0559,-2.0039,-2.027,0.0,0.0,0.0,0.0,-1.4224,-1.6572,-1.8003,-1.9244,-2.0842,-2.1104,-2.0775,-1.9836,-1.9306,-1.8228,-1.5624,-1.6689,-1.6465,-1.1621,-1.2568,0.0,-1.1699,-1.335,-1.5098,-1.5967,-1.7207,-1.8008,-1.8008,-1.8008,-1.8008,-1.8008,-1.6298,-1.4919,-1.4329,-1.2489,-1.1169,-1.0651,-0.9719,-0.9526,-1.01,0.0,0.0,0.0,0.0,0.0,0.0,0.0,0.0,0.0,0.0,0.0,0.0,0.0,0.0,0.0,0.0,0.0,0.0,0.0,0.0,0.0,0.0,0.0,0.0,0.0,0.0,0.0,0.0,0.0,-1.6517,-1.8242,0.0,0.0,0.0,0.0,-1.7834,-1.8143,-1.8889,-2.0286,-2.0678,-2.155,-2.3087,-2.3292,-2.3488,-2.3593,-2.4268,-2.4896,-2.557,-2.6228,-2.6871,-2.7505,-2.6826,-2.6542,-2.6497,-2.5884,-2.5615,-2.5555,-2.4701,-2.3281,-2.1347,-1.994,-1.791,-1.5891,-1.7009,-1.7127,-1.7111,-1.9568,-2.0457,-2.0593,-2.1159,-1.9588,-1.7472,-1.7512,-1.5905,0.0,0.0,-1.6697,-1.7765,-2.0489,-2.0878,-2.0802,-2.1632,-2.1437,-2.0909,-2.0606,-1.9239,-1.8041,-1.7809,-1.792,-1.7266,-1.4922,0.0,-1.4697,-1.458,-1.4687,-1.5537,-1.7607,-1.7959,-1.8008,-1.8008,-1.8008,-1.8008,-1.8008,-1.6298,-1.4919,-1.4329,-1.2489,-1.1169,-1.0651,-1.0564,-0.9973,-0.8918,-0.984,0.0,0.0,0.0,0.0,0.0,0.0,0.0,0.0,0.0,0.0,0.0,0.0,0.0,0.0,0.0,0.0,0.0,0.0,0.0,0.0,0.0,0.0,0.0,0.0,0.0,0.0,0.0,0.0,-1.8433,-1.956,0.0,-1.7015,-1.8284,-1.961,-2.0325,-2.191,-2.308,-2.3584,-2.3884,-2.4234,-2.4745,-2.4852,-2.4896,-2.4896,-2.5555,-2.6019,-2.6243,-2.6901,-2.7385,-2.761,-2.732,-2.7215,-2.72,-2.6976,-2.6632,-2.6258,-2.6437,-2.5615,-2.4194,-2.4118,-2.3241,-2.1955,-2.1167,-2.1226,-2.1597,-2.1277,-2.1637,-2.2214,-2.242,-2.1834,-2.0894,-2.022,-1.9496,-1.8807,-1.8668,-1.9309,-2.025,-2.1242,-2.187,-2.2163,-2.1932,-2.1735,-2.1381,-2.0749,-1.9684,-1.8846,-1.8859,-1.7945,-1.667,-1.5059,-1.5937,-1.6387,-1.499,-1.5977,-1.7139,-1.791,-1.8008,-1.8008,-1.8008,-1.8008,-1.7794,-1.7139,-1.6498,-1.5334,-1.3541,-1.2774,-1.1829,-1.0651,-1.0624,-1.0423,-0.994,-1.0409,-0.9666,0.0,0.0,0.0,0.0,0.0,0.0,0.0,0.0,0.0,0.0,0.0,0.0,0.0,0.0,0.0,0.0,0.0,0.0,0.0,0.0,0.0,0.0,0.0,0.0,0.0,-1.9327,-2.0426,-1.9542,-2.107,-2.1308,-1.9069,-2.1073,-2.2816,-2.3563,-2.4958,-2.5741,-2.5741,-2.565,-2.5615,-2.5615,-2.5615,-2.5615,-2.5615,-2.6258,-2.6587,-2.6602,-2.726,-2.7625,-2.7625,-2.7625,-2.7625,-2.7625,-2.7625,-2.732,-2.6961,-2.7445,-2.7066,-2.6288,-2.6238,-2.595,-2.5322,-2.3392,-2.3289,-2.3928,-2.2596,-2.2578,-2.3078,-2.3078,-2.3078,-2.3,-2.2272,-2.2046,-2.1882,-2.1142,-2.1468,-2.2046,-2.2046,-2.2585,-2.2944,-2.2445,-2.2125,-2.1753,-2.1164,-2.0139,-1.9299,-1.9299,-1.8122,-1.6885,-1.6025,-1.7061,-1.7471,-1.5898,-1.7002,-1.7959,-1.7822,-1.793,-1.8008,-1.8008,-1.8008,-1.7725,-1.7139,-1.6197,-1.5052,-1.3616,-1.2519,-1.161,-1.0779,-1.0327,-1.0053,-0.9932,-0.9932,-0.8957,-0.7025,0.0,0.0,0.0,0.0,0.0,0.0,0.0,0.0,0.0,0.0,0.0,0.0,0.0,0.0,0.0,0.0,0.0,0.0,0.0,0.0,0.0,0.0,0.0,-2.0,-2.096,-2.1187,-2.0027,-2.296,-2.4304,-2.2254,-2.4594,-2.6657,-2.752,-2.6976,-2.6617,-2.6617,-2.6019,-2.5674,-2.5674,-2.5674,-2.5674,-2.5674,-2.6303,-2.6617,-2.6632,-2.726,-2.7625,-2.7625,-2.7625,-2.7625,-2.7625,-2.7625,-2.761,-2.7595,-2.761,-2.761,-2.7419,-2.6097,-2.5625,-2.5445,-2.3412,-2.3128,-2.3671,-2.3472,-2.3289,-2.3078,-2.3078,-2.3078,-2.3078,-2.3078,-2.3078,-2.3078,-2.3078,-2.3078,-2.3078,-2.3078,-2.3078,-2.3078,-2.3078,-2.2506,-2.1939,-2.1889,-2.0526,-1.9299,-1.9309,-1.8596,-1.8008,-1.8008,-1.8008,-1.7871,-1.7461,-1.7744,0.0,-1.7461,-1.7764,-1.8008,-1.7988,-1.7988,-1.792,-1.791,-1.5373,-1.4061,-1.4569,-1.1865,-1.0414,-1.0969,-0.99,-0.9069,-0.8664,-0.8621,-0.7759,-0.6002,0.0,0.0,0.0,0.0,0.0,0.0,0.0,0.0,0.0,0.0,0.0,0.0,0.0,0.0,0.0,0.0,0.0,0.0,0.0,0.0,0.0,-1.9669,-2.1576,-2.1254,-2.3089,-2.4281,-2.374,-2.4574,-2.5163,-2.5145,-2.5515,-2.6296,-2.752,-2.7445,-2.7355,-2.7355,-2.7126,-2.7036,-2.7036,-2.7036,-2.7036,-2.7036,-2.7215,-2.7355,-2.7355,-2.7535,-2.7625,-2.7625,-2.7625,-2.7625,-2.7625,-2.7625,-2.7305,-2.6901,-2.743,-2.729,-2.6886,-2.6971,-2.6379,-2.5446,-2.4944,-2.4215,-2.343,-2.3257,-2.3179,-2.3078,-2.3078,-2.3078,-2.3078,-2.3078,-2.3078,-2.3078,-2.3078,-2.3078,-2.3078,-2.3078,-2.3078,-2.3078,-2.3078,-2.2944,-2.2628,-2.2013,-2.1037,-2.0074,-1.9431,-1.8596,-1.8008,-1.8008,-1.8008,-1.7969,-1.7852,-1.7939,-1.7969,-1.7852,-1.7939,-1.79,-1.7588,-1.6978,-1.6278,-1.5522,-1.4833,-1.393,-1.2755,-1.2514,-1.1995,-1.1068,-1.0681,-1.0345,-1.0078,-0.8987,-0.8323,0.0,0.0,0.0,0.0,0.0,0.0,0.0,0.0,0.0,0.0,0.0,0.0,0.0,0.0,0.0,0.0,0.0,0.0,0.0,0.0,0.0,0.0,-2.2285,-2.3896,-2.3552,-2.4813,-2.5721,-2.5628,-2.5886,-2.6182,-2.6489,-2.667,-2.7028,-2.7565,-2.7625,-2.7625,-2.7625,-2.7625,-2.7625,-2.7625,-2.7625,-2.7625,-2.7625,-2.7625,-2.7625,-2.7625,-2.7625,-2.7625,-2.7625,-2.7625,-2.7625,-2.7625,-2.7625,-2.74,-2.7036,-2.746,-2.735,-2.7006,0.0,0.0,0.0,0.0,-2.5054,-2.3794,-2.3677,-2.3365,-2.3078,-2.3078,-2.3078,-2.3078,-2.3078,-2.3078,-2.3078,-2.3078,-2.3078,-2.3078,-2.3078,-2.3078,-2.3078,-2.3078,-2.2823,-2.2445,-2.2002,-2.091,-1.9879,-1.9431,-1.8596,0.0,-1.8008,-1.8008,-1.7949,-1.7773,-1.79,-1.7949,-1.7773,-1.79,-1.792,-1.7676,-1.6861,-1.6079,-1.5463,-1.4361,0.0,0.0,0.0,-1.1699,-1.0648,-1.0312,0.0,0.0,0.0,-0.8701,-0.8708,-0.6899,0.0,0.0,-0.5123,-0.4762,0.0,0.0,0.0,0.0,0.0,0.0,0.0,0.0,0.0,0.0,0.0,0.0,0.0,0.0,0.0,0.0,-2.4403,-2.6258,-2.6208,-2.6267,-2.6311,-2.6286,-2.696,-2.7225,-2.6834,-2.7762,-2.8194,-2.776,-2.7625,-2.7625,-2.771,-2.7625,0.0,0.0,0.0,-2.7625,-2.7625,-2.7625,-2.7625,-2.7625,-2.7625,-2.7625,-2.7625,-2.7625,-2.7625,-2.7625,-2.7625,-2.7625,-2.7625,-2.7625,-2.7625,-2.7515,-2.6832,-2.7001,-2.7509,-2.6669,-2.5593,-2.4476,-2.4323,0.0,0.0,-2.3078,-2.3078,-2.3078,-2.3078,-2.3078,-2.3078,-2.3078,-2.3078,-2.3078,-2.3078,-2.3078,-2.3078,-2.3078,-2.2567,-2.2002,-2.1939,-2.0655,-1.9562,-1.9365,-1.8654,-1.8144,-1.8008,-1.8008,-1.7881,-1.751,-1.7773,-1.7871,-1.75,-1.7783,-1.7988,-1.7939,-1.7005,0.0,-1.6356,-1.388,-1.2714,-1.3469,-1.1762,-1.0588,-1.0327,-0.9665,-0.9573,-1.0254,-0.9579,-0.9052,-0.8624,-0.8624,-0.765,-0.581,-0.5009,-0.485,0.0,0.0,0.0,0.0,0.0,0.0,0.0,0.0,0.0,0.0,0.0,0.0,0.0,0.0,0.0,-2.261,-2.5412,-2.747,-2.7431,-2.7986,-2.8059,-2.7038,-2.7574,-2.8022,-2.7965,-2.7811,-2.7845,-2.8273,-2.786,-2.781,-2.8286,-2.786,-2.7625,-2.7625,-2.7625,-2.7625,-2.7625,-2.7625,-2.7625,-2.7625,-2.7625,0.0,-2.7625,-2.7625,-2.7625,-2.7625,-2.7625,-2.7625,-2.7625,-2.7625,-2.7625,-2.756,-2.6799,-2.6983,-2.7458,-2.6108,-2.5425,-2.5122,-2.4526,-2.3767,-2.3078,-2.3078,-2.3078,-2.3078,-2.3078,-2.3078,0.0,-2.3078,-2.3078,-2.3078,-2.3078,-2.3078,-2.3078,-2.3078,-2.3005,-2.2702,-2.2063,-2.1628,-2.0974,-1.9562,-1.9166,-1.8854,-1.8144,-1.8008,-1.7978,-1.79,-1.7959,-1.7978,-1.79,-1.7959,-1.7881,-1.7539,-1.6031,-1.4992,-1.4924,-1.31,-1.2155,-1.2565,-1.2013,-1.159,-1.153,-1.1175,-1.0976,-1.1169,-1.0982,-1.0171,-0.8624,-0.8624,-0.7722,-0.5979,-0.5806,-0.5772,0.0,0.0,0.0,0.0,0.0,0.0,0.0,0.0,0.0,0.0,0.0,-1.8164,-2.013,0.0,-2.3804,-2.5414,-2.7194,-2.8399,-2.8399,-2.9059,-2.9194,-2.8262,-2.8755,-2.9055,-2.8858,-2.8862,-2.8917,-2.8934,-2.8415,-2.8189,-2.8463,-2.7944,-2.7625,-2.7625,-2.7625,-2.7625,-2.7625,-2.7625,-2.7625,-2.7625,-2.7625,-2.7625,-2.7625,-2.7625,-2.7625,-2.7625,-2.7625,-2.7625,-2.7625,-2.7625,-2.7625,-2.756,-2.7188,-2.7306,-2.7458,-2.639,-2.596,-2.5837,-2.5119,-2.461,-2.4208,-2.3826,-2.3708,-2.3662,-2.3185,-2.3078,-2.3078,-2.3078,-2.3078,-2.3078,-2.3078,-2.3078,-2.3078,-2.3078,-2.3078,-2.3005,-2.2567,-2.2199,-2.1628,-2.0782,-1.989,-1.9177,-1.8721,-1.8269,-1.8008,-1.8008,-1.8008,-1.8008,-1.8008,-1.8008,-1.793,-1.7715,-1.6082,-1.4891,-1.4891,-1.3142,-1.2144,-1.2291,-1.2164,-1.2024,-1.1877,-1.1583,-1.1496,-1.1643,-1.1503,-1.0855,-0.9679,-0.9176,-0.8208,-0.6893,-0.637,-0.6146,0.0,0.0,0.0,0.0,0.0,0.0,0.0,-1.6027,-1.6861,-1.9503,-2.0558,-2.1598,-2.3482,-2.4757,-2.6103,-2.7991,-2.8817,-2.9194,-2.9194,-2.9854,-3.014,-2.9639,-3.0007,-3.0106,-2.9609,-3.0021,-3.0123,-2.9629,-2.8919,-2.8559,-2.8654,-2.7993,-2.7625,-2.7625,-2.7625,-2.7625,-2.7625,-2.7625,-2.7625,-2.7625,-2.7625,-2.7625,-2.7625,-2.7625,-2.7625,-2.7625,-2.7625,-2.7625,-2.7625,-2.7625,-2.7625,-2.7625,-2.7625,-2.7625,-2.7524,-2.693,-2.6616,-2.6404,-2.5837,-2.5508,-2.5287,-2.4738,-2.4408,-2.4176,-2.3543,-2.3185,-2.3078,-2.3078,-2.3078,-2.3078,-2.3078,-2.3078,-2.3078,-2.3078,-2.3078,-2.3078,-2.3078,-2.2567,-2.2075,-2.1939,-2.0782,-1.9683,-1.9365,-1.8721,-1.8202,-1.8008,-1.8008,-1.8008,-1.8008,-1.8008,-1.8008,-1.8008,-1.6507,-1.5305,-1.495,-1.3302,-1.2305,-1.2305,-1.2305,-1.2198,-1.1964,-1.1724,-1.171,-1.1951,-1.1717,-1.132,-1.0783,-0.982,-0.877,-0.7783,-0.6795,-0.6338,-1.6098,-1.5548,-1.659,-1.7621,-1.8619,-2.0661,0.0,-2.4837,-2.3683,-2.6121,-2.6729,-2.6852,-2.7115,-2.757,-2.7991,-2.8249,-2.9225,-2.9989,-2.9989,-3.0615,-3.1072,-3.0977,-3.1033,-3.0834,-3.0251,-3.0251,-3.0251,-3.0208,-2.9134,-2.8732,-2.9271,-2.8222,-2.7625,-2.7625,-2.7625,-2.7625,-2.7625,-2.7625,-2.7625,-2.7625,-2.7625,-2.7625,-2.7625,-2.7625,-2.7625,-2.7625,-2.7625,-2.7625,-2.7625,-2.7625,-2.7625,-2.7625,-2.7625,-2.7625,-2.7575,-2.7524,-2.7034,-2.651,-2.6404,-2.596,-2.5398,-2.5287,-2.4851,-2.4292,-2.4176,-2.3649,-2.3078,-2.3078,-2.3078,-2.3078,-2.3078,-2.3078,-2.3078,-2.3078,-2.3078,-2.3078,-2.3078,-2.3005,-2.2763,-2.2075,-2.1753,-2.1101,-1.9562,-1.9243,-1.8911,-1.8144,-1.8008,-1.8008,-1.8008,-1.8008,-1.8008,-1.8008,-1.707,-1.572,-1.4027,-1.2879,-1.2305,-1.2305,-1.2305,-1.2285,-1.2258,-1.2225,-1.2218,-1.2251,-1.2225,-1.171,-1.0783,-0.982,-0.877,-0.7783,-0.6795,-0.6338,-2.3412,-2.1845,-2.0773,-2.2815,-2.3971,-2.4999,-2.6453,-2.6177,-2.6166,-2.8073,-2.8474,-2.8612,-2.9025,-2.9229,-2.9498,-2.9924,-3.0425,-3.0734,-3.0734,-3.1004,-3.119,-3.119,-3.119,-3.1095,-3.0838,-3.0821,-3.0821,-3.0821,-3.0038,-2.9496,-2.9406,-2.8591,-2.7944,-2.7625,-2.7625,-2.7625,-2.7625,-2.7625,-2.7625,-2.7625,-2.7625,-2.7625,-2.7625,-2.7625,-2.7625,-2.7625,-2.7625,-2.7625,-2.7625,-2.7625,-2.7625,-2.7625,-2.7625,-2.7625,-2.7625,-2.7625,-2.7408,-2.7137,-2.7137,-2.6916,-2.6602,-2.6176,-2.5837,-2.5398,-2.4567,-2.406,-2.3708,-2.3245,-2.3078,-2.3078,-2.3078,-2.3078,-2.3078,-2.3078,-2.3078,-2.3078,-2.3078,-2.3078,-2.3005,-2.2628,-2.2199,-2.1491,-2.0268,-1.9628,-1.8977,-1.8144,-1.8008,-1.8008,-1.8008,-1.8008,-1.7794,-1.7207,-1.6358,-1.5234,-1.381,-1.2806,-1.2305,-1.2305,-1.2305,-1.2225,-1.2058,-1.2051,-1.2051,-1.2051,-1.1877,-1.1735,-1.1694,-0.9965,-0.9052,-0.8791,-0.7263,-0.6515,-2.5629,-2.4828,-2.3899,-2.641,-2.8242,-2.9095,-2.7727,-2.777,-2.8426,-2.9538,-2.9678,-2.979,-3.0466,-3.0472,-3.0581,-3.1106,-3.119,-3.119,-3.119,-3.119,-3.119,-3.119,-3.119,-3.119,-3.119,-3.119,-3.119,-3.119,-3.0658,-3.0123,-2.9673,-2.8919,-2.8286,-2.786,-2.766,-2.7625,-2.7625,-2.7625,-2.7625,-2.7625,-2.7625,-2.7625,-2.7625,-2.7625,-2.7625,-2.7625,-2.7625,-2.7625,-2.7625,-2.7625,-2.7625,-2.7625,-2.7625,-2.7625,-2.7625,-2.7625,-2.7625,-2.7625,-2.7625,-2.7625,-2.7524,-2.6982,-2.6669,-2.6283,-2.5007,-2.4452,-2.4118,-2.3305,-2.3078,-2.3078,-2.3078,-2.3078,-2.3078,-2.3078,-2.3078,-2.3078,-2.3078,-2.3078,-2.3078,-2.3078,-2.2628,-2.1877,-2.0782,-2.0074,-1.9299,-1.8134,-1.8008,-1.8008,-1.8008,-1.8008,-1.7725,-1.707,-1.6149,-1.5163,-1.4171,-1.3158,-1.2469,-1.2184,-1.2104,-1.2004,-1.187,-1.179,-1.1784,-1.187,-1.1577,-1.1637,-1.2058,-0.9977,-0.912,-0.9279,-0.7457,-0.6556,-1.8732,-2.1057,-2.4033,-2.7112,-3.0476,-3.2925,-3.2403,-3.1934,-3.1669,-3.1702,-3.1401,-3.1261,-3.1681,-3.1452,-3.1173,-3.119,-3.119,-3.119,-3.119,-3.119,-3.119,-3.119,-3.119,-3.119,-3.119,-3.119,-3.119,-3.119,-3.0658,-3.0293,-3.0251,-2.915,-2.8511,-2.8463,-2.791,-2.7625,-2.7625,-2.7625,-2.7625,-2.7625,-2.7625,-2.7625,-2.7625,-2.7625,-2.7625,-2.7625,-2.7625,-2.7625,-2.7625,-2.7625,-2.7625,-2.7625,-2.7625,-2.7625,-2.7625,-2.7625,-2.7625,-2.7625,-2.7625,-2.7625,-2.7625,-2.7575,-2.7086,-2.6336,-2.5618,-2.4851,-2.4118,-2.3305,-2.3078,-2.3078,-2.3078,-2.3078,-2.3078,-2.3078,-2.3078,-2.3078,-2.3078,-2.3078,-2.3078,-2.3078,-2.3065,-2.2555,-2.091,-2.059,-2.0009,-1.8269,-1.8008,-1.8008,-1.8008,-1.8008,-1.8008,-1.794,-1.7139,-1.621,-1.5234,-1.4011,-1.2861,-1.1955,-1.161,-1.1577,-1.1857,-1.159,-1.1577,-1.1864,-1.1577,-1.143,-1.1456,-0.9642,-0.8807,-0.8748,-0.7102,-0.6193,-2.2609,-2.483,-2.7222,-3.0888,-3.2727,-3.3494,-3.3075,-3.284,-3.2631,-3.2332,-3.1305,-3.0505,-3.0655,-3.03,-3.0018,-3.0018,-3.0666,-3.119,-3.119,-3.119,-3.119,-3.119,-3.119,-3.119,-3.119,-3.119,-3.119,-3.119,-3.1015,-3.0699,-3.0293,-2.9892,-2.9316,-2.8511,-2.8319,-2.8189,-2.8189,-2.781,-2.781,-2.8189,-2.781,-2.7625,-2.7625,-2.7625,-2.7625,-2.7625,-2.7625,-2.7625,-2.7625,-2.7625,-2.7625,-2.7625,-2.7625,-2.7625,-2.7625,-2.7625,-2.7625,-2.7625,-2.7625,-2.7625,-2.7625,-2.7625,-2.7408,-2.7086,-2.6336,-2.5618,-2.4894,-2.4105,-2.3543,-2.3078,-2.3078,-2.3078,-2.3078,-2.3078,-2.3078,-2.3078,-2.3078,-2.3078,-2.3078,-2.3078,-2.3078,-2.2763,-2.1678,-2.0974,-2.0009,-1.8269,-1.8008,-1.8008,-1.8008,-1.8008,-1.8008,-1.8008,-1.6576,-1.5517,-1.5234,-1.3641,-1.2425,-1.1955,-1.1777,-1.1677,-1.1577,-1.1476,-1.147,-1.1577,-1.1283,-1.1236,-1.1423,-1.0207,-0.9463,-0.8956,-0.7998,-0.7159,-2.5347,-2.721,-2.8835,-3.2805,-3.3807,-3.3707,-3.3302,-3.3214,-3.3105,-3.2809,-3.1129,-2.9713,-2.9882,-2.9057,-2.8479,-2.8739,-2.9679,-3.0533,-3.0933,-3.098,-3.1045,-3.1196,-3.119,-3.119,-3.119,-3.119,-3.119,-3.119,-3.119,-3.1015,-3.0658,-3.0435,-2.9935,-2.918,-2.8904,-2.881,-2.8883,-2.8262,-2.7993,-2.8189,-2.781,-2.7625,-2.7625,-2.7625,-2.7625,-2.7625,-2.7625,-2.7625,-2.7625,-2.7625,-2.7625,-2.7625,-2.7625,-2.7625,-2.7625,-2.7625,-2.7625,-2.7625,-2.7625,-2.7625,-2.7625,-2.7625,-2.7625,-2.7458,-2.6721,-2.6176,-2.5563,-2.4567,-2.3943,-2.3484,-2.3185,-2.3078,-2.3078,-2.3078,-2.3078,-2.3078,-2.3078,-2.3078,-2.3078,-2.3078,-2.3078,-2.2823,-2.2075,-2.091,-1.9628,-1.8202,-1.8008,-1.8008,-1.8008,-1.8008,-1.8008,-1.8008,-1.6941,-1.5948,-1.5234,-1.3876,-1.2671,-1.1794,-1.1516,-1.1363,-1.1276,-1.1176,-1.1209,-1.1423,-1.1142,-1.1136,-1.1423,-1.0568,-0.998,-0.9543,-0.8535,-0.7737,-2.6579,-2.8086,-2.9093,-3.286,-3.3807,-3.3707,-3.3302,-3.3243,-3.3189,-3.3027,-3.0719,-2.8841,-2.9089,-2.7654,-2.6672,-2.7397,-2.8346,-2.9411,-3.0491,-3.0628,-3.0778,-3.1128,-3.119,-3.119,-3.119,-3.119,-3.119,-3.119,-3.119,-3.119,-3.119,-3.0658,-3.0351,-3.0359,-2.981,-2.9515,-2.9617,-2.8948,-2.8271,-2.771,-2.771,-2.771,-2.771,-2.766,-2.766,-2.766,-2.7625,-2.7625,-2.7675,-2.7675,-2.7625,-2.7625,-2.761,-2.7625,-2.7625,-2.7625,-2.7625,-2.7625,-2.7625,-2.7625,-2.7625,-2.7625,-2.7625,-2.7458,-2.6774,-2.651,-2.6229,-2.4794,-2.4408,-2.4176,-2.3365,-2.3125,-2.3125,-2.3138,-2.3078,-2.3078,-2.3078,-2.3078,-2.3078,-2.3078,-2.3078,-2.2823,-2.2002,-2.0462,-1.9044,-1.8134,-1.8008,-1.8008,-1.8008,-1.8008,-1.8008,-1.8008,-1.794,-1.7226,-1.5446,-1.4655,-1.3435,-1.156,-1.096,-1.0701,-1.0962,-1.0708,-1.0828,-1.1396,-1.1136,-1.1136,-1.1423,-1.0781,-1.0479,-1.0335,-0.8665,-0.7859,-2.8315,-3.0549,-3.2529,-3.355,-3.3807,-3.3762,-3.368,-3.3652,-3.2976,-3.0574,-2.853,-2.6277,-2.3376,-2.4355,-2.5487,-2.5092,-2.8161,-3.0731,-3.1011,-3.1062,-3.107,-3.1213,-3.119,-3.119,-3.119,-3.119,-3.119,-3.119,-3.119,-3.119,-3.119,-3.1055,-3.1031,-3.111,-3.098,-3.0903,-3.0949,-3.0206,-2.954,-2.895,-2.895,-2.895,-2.895,-2.8463,-2.8511,-2.8904,-2.7993,-2.786,-2.8286,-2.8286,-2.7993,-2.761,-2.8091,-2.7993,-2.7625,-2.7625,-2.7625,-2.7625,-2.7625,-2.7625,-2.7625,-2.7625,-2.7625,-2.756,-2.7357,-2.693,-2.6404,-2.6068,-2.5563,-2.4951,-2.4163,-2.4002,-2.3826,-2.3245,-2.3078,-2.3078,-2.3078,-2.3078,-2.3078,-2.3078,-2.3078,-2.2628,-2.1164,-2.059,-1.9759,-1.8202,-1.8008,-1.8008,-1.8008,-1.8008,-1.8008,-1.8008,-1.7354,-1.6784,-1.628,-1.4604,-1.3233,-1.2593,-1.148,-1.0822,-1.0739,-1.0665,-1.0728,-1.1096,-1.1029,-1.1136,-1.1423,-1.1506,-1.1131,-1.0413,-0.9414,-0.8542,-3.072,-3.2488,-3.3807,-3.3807,-3.3807,-3.333,-3.1599,-3.1495,-3.0654,-2.6755,-2.4616,-2.2681,-1.9994,-2.1664,-2.3417,-2.3347,-2.7187,-3.0365,-3.0851,-3.0953,-3.0997,-3.1196,-3.119,-3.119,-3.119,-3.1478,-3.1664,-3.1664,-3.1376,-3.1326,-3.1647,-3.1664,-3.1881,-3.2276,-3.2267,-3.2014,-3.1407,-3.1001,-3.0332,-2.9406,-2.9406,-2.9406,-2.9406,-2.9058,-2.9088,-2.9361,-2.867,-2.8591,-2.8873,-2.8873,-2.8685,-2.84,-2.8779,-2.8559,-2.7993,-2.7993,-2.781,-2.7625,-2.7625,-2.7625,-2.7625,-2.7625,-2.7625,-2.7625,-2.7625,-2.7306,-2.693,-2.6616,-2.6176,-2.5728,-2.4951,-2.4509,-2.4176,-2.3708,-2.3365,-2.3078,-2.3078,-2.3078,-2.3078,-2.3078,-2.3078,-2.2689,-2.1416,-2.0846,-2.0139,-1.8787,-1.8269,-1.8008,-1.8008,-1.8008,-1.8008,-1.8008,-1.7501,-1.707,-1.6636,-1.4822,-1.3504,-1.2923,-1.1622,-1.0728,-1.0631,-1.0624,-1.0755,-1.1176,-1.1182,-1.139,-1.181,-1.1977,-1.1761,-1.1168,-0.9911,-0.8993,-3.3062,-3.3807,-3.3807,-3.3807,-3.3807,-3.2787,-2.895,-2.855,-2.7596,-2.2566,-2.028,-1.884,-1.7638,-1.9247,-2.1113,-2.2132,-2.6012,-2.932,-3.0595,-3.075,-3.0883,-3.1184,-3.119,-3.1241,-3.1326,-3.1901,-3.2324,-3.2425,-3.185,-3.1765,-3.2391,-3.2425,-3.2763,-3.3525,-3.3457,-3.2858,-3.1686,-3.1502,-3.0822,-2.9629,-2.9629,-2.9629,-2.9629,-2.954,-2.9585,-2.9629,-2.9451,-2.9451,-2.954,-2.954,-2.9451,-2.9406,-2.9406,-2.9042,-2.8511,-2.8511,-2.814,-2.761,-2.766,-2.7675,-2.7625,-2.7625,-2.7625,-2.7625,-2.7625,-2.7625,-2.7473,-2.6826,-2.6669,-2.6496,-2.5728,-2.5007,-2.4408,-2.435,-2.3708,-2.3078,-2.3078,-2.3078,-2.3078,-2.3078,-2.3078,-2.2823,-2.2075,-2.129,-2.0462,-1.9431,-1.8664,-1.8144,-1.8008,-1.8008,-1.8008,-1.8008,-1.8008,-1.7647,-1.6853,-1.5379,-1.4082,-1.3302,-1.1711,-1.0744,-1.0744,-1.0721,-1.0855,-1.1356,-1.141,-1.1677,-1.2184,-1.2184,-1.2184,-1.2111,-1.0135,-0.9251,-3.3642,-3.3807,-3.3807,-3.3807,-3.3807,-3.2959,-2.9714,-2.8513,-2.6392,-2.028,-1.8255,-1.6709,-1.3792,-1.65,-1.9864,-2.1974,-2.6012,-2.9544,-3.1358,-3.1581,-3.1468,-3.1235,-3.119,-3.1427,-3.2036,-3.2205,-3.2544,-3.3169,-3.3085,-3.3068,-3.3203,-3.322,-3.3541,-3.4286,-3.3728,-3.3296,-3.3077,-3.1842,-3.113,-3.0878,-3.0878,-3.0878,-3.0878,-3.0393,-3.0435,-3.0838,-2.9848,-2.9673,-3.0123,-3.0123,-2.9848,-2.9406,-2.9406,-2.9042,-2.8511,-2.8511,-2.814,-2.766,-2.8189,-2.7993,-2.7625,-2.7625,-2.7625,-2.7625,-2.7625,-2.7625,-2.7575,-2.7458,-2.7408,-2.7255,-2.6496,-2.5728,-2.5063,-2.4452,-2.3708,-2.3078,-2.3078,-2.3078,-2.3078,-2.3078,-2.3078,-2.2823,-2.2075,-2.1753,-2.1101,-1.9562,-1.9177,-1.8787,-1.8076,-1.8008,-1.8008,-1.8008,-1.8008,-1.794,-1.7794,-1.6252,-1.5192,-1.5062,-1.2893,-1.1586,-1.1586,-1.1162,-1.0962,-1.1062,-1.1303,-1.1476,-1.1577,-1.1577,-1.1577,-1.1514,-0.9713,-0.8856,-3.3807,-3.3807,-3.3807,-3.3807,-3.3807,-3.2334,-2.6745,-2.5449,-2.3291,-1.564,-1.4117,-1.35,-1.145,-1.4605,-1.8071,-1.9595,-2.4392,-2.847,-3.0066,-3.0991,-3.1507,-3.1507,-3.1652,-3.1901,-3.2297,-3.2966,-3.3575,-3.3947,-3.4336,-3.4387,-3.3998,-3.4353,-3.4726,-3.5064,-3.4353,-3.3795,-3.3406,-3.2307,-3.1562,-3.119,-3.119,-3.119,-3.119,-3.0878,-3.0935,-3.1151,-3.0601,-3.0518,-3.0781,-3.0781,-3.0617,-3.0351,-3.0351,-2.9995,-2.9451,-2.9451,-2.9042,-2.8591,-2.8873,-2.8591,-2.8042,-2.8042,-2.786,-2.7625,-2.7625,-2.7625,-2.7625,-2.7625,-2.7625,-2.7524,-2.7152,-2.6215,-2.5287,-2.4951,-2.3989,-2.3078,-2.3078,-2.3078,-2.3078,-2.3078,-2.3078,-2.3005,-2.2567,-2.2199,-2.1628,-2.0782,-2.0268,-1.9694,-1.8787,-1.8654,-1.8529,-1.8076,-1.8008,-1.8008,-1.8008,-1.6655,-1.5733,-1.5523,-1.3379,-1.2022,-1.1841,-1.1121,-1.0835,-1.0989,-1.1276,-1.1423,-1.1423,-1.1583,-1.1577,-1.1361,-0.9997,-0.919,-3.3742,-3.3807,-3.3807,-3.3807,-3.3807,-3.1765,-2.4039,-2.2616,-2.0541,-1.2126,-1.0741,-1.0875,-1.0354,-1.315,-1.6081,-1.7733,-2.2441,-2.6679,-2.8815,-3.0438,-3.1588,-3.2239,-3.2638,-3.2889,-3.2917,-3.4006,-3.4669,-3.4726,-3.5284,-3.5368,-3.4776,-3.5148,-3.5368,-3.5368,-3.4489,-3.3744,-3.3169,-3.2425,-3.1749,-3.119,-3.119,-3.119,-3.119,-3.119,-3.119,-3.119,-3.119,-3.119,-3.119,-3.119,-3.119,-3.119,-3.1055,-3.0699,-3.0293,-3.0293,-2.9935,-2.9406,-2.954,-2.9088,-2.8511,-2.8511,-2.8091,-2.7625,-2.7625,-2.7625,-2.7625,-2.7625,-2.7625,-2.7625,-2.7625,-2.6602,-2.5563,-2.5231,-2.4105,-2.3078,-2.3078,-2.3078,-2.3078,-2.3078,-2.3078,-2.3078,-2.3078,-2.2567,-2.2125,-2.1939,-2.1164,-2.0268,-1.9431,-1.911,-1.8787,-1.8076,-1.8008,-1.7978,-1.7881,-1.6845,-1.6085,-1.5669,-1.3819,-1.2554,-1.2089,-1.1353,-1.0948,-1.0989,-1.1276,-1.1396,-1.1329,-1.157,-1.153,-1.1243,-1.0256,-0.948,-3.3437,-3.3807,-3.3807,-3.3807,-3.3807,-3.1955,-2.4798,-2.2635,-2.006,-1.2787,-1.0709,-1.0391,-1.0975,-1.2007,-1.4204,-1.861,-2.1046,-2.4127,-2.9188,-3.1075,-3.2432,-3.381,-3.4389,-3.4761,-3.4995,-3.5146,-3.528,-3.5514,-3.5588,-3.5588,-3.552,-3.4928,-3.459,-3.459,-3.322,-3.2442,-3.2374,-3.1664,-3.1258,-3.119,-3.119,-3.119,-3.119,-3.119,-3.119,-3.119,-3.119,-3.119,-3.119,-3.119,-3.119,-3.1151,-3.0617,-3.0351,-3.0293,-3.0293,-2.9935,-2.9496,-3.0038,-2.9451,-2.8511,-2.8511,-2.8091,-2.7625,-2.7625,-2.7625,-2.7625,-2.7625,-2.7625,-2.7625,-2.7625,-2.6982,-2.6068,-2.4738,-2.3708,-2.3078,-2.3078,-2.3078,-2.3078,-2.3078,-2.3078,-2.3078,-2.3078,-2.3017,-2.2763,-2.2002,-2.1164,-2.0268,-1.9431,-1.8596,-1.8076,-1.8008,-1.8008,-1.7852,-1.7471,-1.6967,-1.6466,-1.6082,-1.4796,-1.37,-1.2948,-1.2373,-1.1718,-1.0989,-1.1276,-1.1296,-1.1035,-1.1062,-1.0922,-1.0641,-0.9904,-0.9478,-3.3427,-3.3807,-3.3807,-3.3807,-3.2771,-3.0124,-2.3925,-2.1195,-1.8181,-1.1905,-1.0344,-1.0182,-1.0474,-1.1158,-1.2638,-1.5536,-1.7935,-2.0601,-2.3925,-2.6487,-2.8849,-3.1146,-3.2588,-3.3988,-3.5568,-3.6166,-3.6352,-3.6122,-3.6097,-3.5941,-3.5622,-3.4895,-3.4489,-3.4489,-3.3051,-3.2313,-3.2313,-3.1562,-3.119,-3.119,-3.119,-3.119,-3.119,-3.119,-3.119,-3.119,-3.119,-3.119,-3.119,-3.119,-3.119,-3.119,-3.0935,-3.0838,-3.0838,-3.0838,-3.0699,-3.0518,-3.0757,-3.0293,-2.954,-2.9134,-2.8857,-2.8543,-2.7795,-2.7625,-2.7625,-2.7625,-2.7625,-2.7625,-2.7625,-2.7034,-2.6229,-2.5231,-2.4394,-2.3826,-2.3826,-2.3424,-2.3078,-2.3078,-2.3078,-2.3078,-2.3078,-2.3078,-2.3005,-2.2689,-2.1928,-2.1049,-2.0204,-1.9299,-1.8596,-1.8076,-1.8008,-1.7842,-1.7422,-1.7227,-1.6816,-1.6164,-1.5153,-1.4153,-1.3017,-1.2329,-1.1594,-1.0792,-1.1015,-1.1022,-1.0735,-1.0909,-1.0842,-1.0561,-1.0283,-0.9956,-3.2736,-3.3474,-3.3807,-3.3807,-3.1918,-2.8637,-2.3238,-2.0038,-1.6678,-1.123,-1.0094,-1.0094,-1.0094,-1.0527,-1.1481,-1.3389,-1.5519,-1.8034,-2.1198,-2.386,-2.6621,-2.9715,-3.1322,-3.3082,-3.5379,-3.6558,-3.702,-3.6661,-3.6661,-3.6481,-3.6079,-3.5019,-3.4321,-3.4167,-3.2949,-3.2212,-3.1968,-3.1444,-3.119,-3.119,-3.119,-3.119,-3.119,-3.119,-3.119,-3.119,-3.119,-3.119,-3.119,-3.119,-3.119,-3.119,-3.119,-3.119,-3.119,-3.119,-3.119,-3.119,-3.119,-3.0781,-3.0208,-2.9585,-2.9271,-2.895,-2.7894,-2.771,-2.781,-2.766,-2.7625,-2.7625,-2.7625,-2.7034,-2.6336,-2.5837,-2.5007,-2.4292,-2.4292,-2.3649,-2.3078,-2.3078,-2.3078,-2.3078,-2.3078,-2.3078,-2.3078,-2.3078,-2.2187,-2.1302,-2.0655,-1.9617,-1.8603,-1.7899,-1.7822,-1.7656,-1.7227,-1.707,-1.667,-1.5918,-1.5368,-1.4441,-1.3078,-1.2451,-1.17,-1.0752,-1.0889,-1.0895,-1.0688,-1.0895,-1.0842,-1.0624,-1.0624,-1.0206,-3.1098,-3.2736,-3.3807,-3.3807,-3.1489,-2.7948,-2.3108,-1.957,-1.593,-1.1096,-1.0094,-1.0094,-1.0094,-1.0113,-1.0904,-1.3308,-1.4384,-1.7026,-2.3033,-2.4875,-2.6982,-3.0738,-3.1501,-3.2484,-3.4436,-3.6181,-3.719,-3.7173,-3.7173,-3.7173,-3.7173,-3.529,-3.3945,-3.3423,-3.2679,-3.1935,-3.1207,-3.119,-3.119,-3.119,-3.119,-3.119,-3.119,-3.119,-3.119,-3.119,-3.119,-3.119,-3.119,-3.119,-3.119,-3.119,-3.119,-3.119,-3.119,-3.119,-3.119,-3.119,-3.119,-3.0781,-3.0208,-2.9585,-2.9012,-2.8383,-2.776,-2.7993,-2.8383,-2.776,-2.7625,-2.7625,-2.7625,-2.7034,-2.651,-2.651,-2.5342,-2.4292,-2.4292,-2.3649,-2.3078,-2.3078,-2.3078,-2.3078,-2.3078,-2.3078,-2.3078,-2.3078,-2.1667,-2.059,-2.059,-1.911,-1.7852,-1.7432,-1.7393,-1.7217,-1.6777,-1.6328,-1.5889,-1.5449,-1.542,-1.4688,-1.307,-1.3009,-1.2367,-1.1048,-1.0995,-1.0995,-1.0989,-1.0995,-1.0842,-1.0624,-1.0624,-1.011,-2.7362,-2.8445,-2.8925,-2.7732,-2.5534,-2.2811,-1.9526,-1.6819,-1.4061,-1.0774,-1.0094,-1.0094,-1.0094,-1.0094,-1.1124,-1.4226,-1.4942,-1.6559,-2.0724,-2.3866,-2.6767,-2.9585,-3.3788,-3.6728,-3.7344,-3.7895,-3.8083,-3.772,-3.7685,-3.7292,-3.6376,-3.5696,-3.492,-3.3985,-3.2372,-3.1427,-3.119,-3.119,-3.119,-3.119,-3.119,-3.119,-3.119,-3.119,-3.119,-3.119,-3.119,-3.119,-3.119,-3.119,-3.119,-3.119,-3.119,-3.119,-3.119,-3.119,-3.119,-3.119,-3.119,-3.1055,-3.0838,-3.0208,-2.9908,-2.954,-2.8496,-2.8042,-2.786,-2.766,-2.7625,-2.7625,-2.7625,-2.7408,-2.7255,-2.7255,-2.6108,-2.5063,-2.5063,-2.4047,-2.3078,-2.3078,-2.3078,-2.3078,-2.3078,-2.3078,-2.3078,-2.3078,-2.2187,-2.129,-2.0655,-1.9628,-1.8603,-1.789,-1.7285,-1.6758,-1.6318,-1.6143,-1.5879,-1.5439,-1.541,-1.4688,-1.307,-1.3009,-1.2267,-1.0759,-1.0759,-1.0759,-1.0759,-1.0759,-1.0648,-1.0624,-1.0624,-1.0434,-2.3517,-2.5048,-2.5864,-2.4783,-2.2313,-1.9658,-1.7735,-1.5049,-1.2401,-1.0498,-1.0094,-1.0094,-1.0094,-1.0094,-1.0902,-1.3368,-1.4041,-1.5824,-2.0307,-2.3191,-2.6204,-2.9776,-3.446,-3.7421,-3.7421,-3.8217,-3.8546,-3.8234,-3.8183,-3.7703,-3.657,-3.6058,-3.5226,-3.4051,-3.2607,-3.1756,-3.1411,-3.1291,-3.119,-3.119,-3.119,-3.119,-3.119,-3.119,-3.119,-3.119,-3.119,-3.119,0.0,-3.119,-3.119,-3.119,-3.119,-3.119,-3.119,-3.119,-3.119,-3.119,-3.119,-3.119,-3.1095,-3.0477,-3.0166,-2.9805,-2.9058,-2.8271,-2.7625,-2.7625,-2.7625,-2.7625,-2.7625,-2.7625,-2.7625,-2.7625,-2.6707,-2.5837,-2.5837,-2.461,-2.3531,-2.3531,-2.3305,-2.3078,-2.3078,-2.3078,-2.3078,-2.3078,-2.2445,-2.169,-2.1164,-2.0333,-1.9357,-1.8354,-1.757,-1.6907,-1.6164,-1.5908,-1.5703,-1.543,-1.541,-1.4805,-1.3494,-1.3191,-1.2397,-1.1108,-1.0744,-1.0624,-1.0624,-1.0624,-1.0624,-1.0624,-1.0624,-1.0624,0.0,-2.209,-2.3808,-2.3696,-2.0903,-1.7945,-1.7084,-1.404,0.0,-1.0286,-1.0094,-1.0133,-1.0267,-1.0171,-1.046,-1.1579,-1.2449,-1.5196,-2.1599,-2.3449,-2.6153,-3.157,-3.4179,-3.5525,-3.5525,-3.7448,-3.8707,-3.8707,-3.8652,-3.8267,-3.7441,-3.6212,-3.4983,-3.3732,-3.3265,-3.2607,-3.177,-3.1411,-3.123,-3.119,-3.119,-3.119,-3.119,-3.119,-3.119,-3.119,-3.119,-3.119,-3.119,-3.119,-3.119,-3.119,-3.119,-3.119,-3.119,-3.119,-3.119,-3.119,-3.119,-3.119,-3.1095,-3.0477,-2.9935,-2.9451,-2.9406,-2.8591,-2.766,-2.766,-2.7625,-2.7625,-2.7625,-2.7625,-2.7625,-2.7625,-2.7034,-2.651,-2.651,-2.5342,-2.4292,-2.4292,-2.3662,-2.3078,-2.3078,-2.3078,-2.3078,-2.3078,-2.2445,-2.1939,-2.1877,-2.1175,-2.0156,-1.8828,-1.828,-1.7512,-1.6264,-1.5684,-1.541,-1.541,-1.541,-1.505,-1.4204,-1.3485,-1.2696,-1.1896,-1.1108,-1.0681,-1.0624,-1.0624,-1.0624,-1.0624,-1.0624,-1.0624,-1.3426,0.0,-1.7085,-1.5788,-1.4768,-1.3863,0.0,-1.207,-1.1156,-1.0286,-1.0094,-1.0521,-1.1834,-1.1002,-1.1229,-1.4734,-1.5465,-1.7643,-2.3474,-2.9008,-3.3617,-3.6693,-3.7566,-3.7916,-3.7916,-3.8389,-3.8707,-3.8707,-3.812,-3.7422,-3.6615,-3.5666,-3.472,-3.3814,-3.3376,-3.2578,-3.1351,-3.1528,-3.1507,-3.119,-3.119,-3.119,-3.119,-3.119,-3.119,-3.119,-3.119,-3.119,-3.119,-3.119,-3.119,-3.119,-3.119,-3.119,-3.119,-3.119,-3.119,-3.119,-3.119,-3.119,-3.1095,-3.0477,-3.0208,-2.9978,-2.954,-2.8873,-2.8286,-2.8286,-2.7959,-2.7625,-2.7625,-2.7625,-2.7625,-2.7625,-2.7034,-2.651,-2.651,-2.5342,-2.4292,-2.4292,-2.3662,-2.3078,-2.3078,-2.3078,-2.3078,-2.3078,-2.2944,-2.258,-2.2002,-2.1753,-2.0928,-1.9283,-1.848,-1.7585,-1.6645,-1.5859,-1.541,-1.541,-1.541,-1.505,-1.4204,-1.4025,-1.3545,-1.2757,-1.1958,-1.1226,-1.0624,-1.0624,-1.0624,-1.0624,-1.0624,-1.0624,-1.0842,-1.2977,-1.4984,-1.406,-1.3541,-1.3137,-1.2651,-1.1637,-1.0675,-1.019,-1.0094,-1.0383,-1.1329,-1.1695,-1.2478,-1.4451,-1.7225,-2.1141,-2.677,-3.2156,-3.6075,-3.7544,-3.8098,-3.8427,-3.867,-3.8707,-3.8707,-3.8707,-3.8303,-3.7533,-3.6358,-3.5862,-3.4952,-3.3559,-3.3494,-3.3027,-3.2127,-3.2109,-3.2004,-3.1787,-3.1582,-3.1582,-3.1787,-3.1389,-3.1291,-3.1487,-3.1291,-3.119,-3.119,-3.119,-3.119,-3.119,-3.119,-3.119,-3.119,-3.119,-3.119,-3.119,-3.119,-3.119,-3.1151,-3.0838,-3.0699,-3.0658,-3.0335,-2.9805,-2.9271,-2.9012,-2.8463,-2.7993,-2.7993,-2.781,-2.7625,-2.7625,-2.7306,-2.6982,-2.6982,-2.5837,-2.4794,-2.4794,-2.3872,-2.3078,-2.3078,-2.3078,-2.3078,-2.3078,-2.3078,-2.2944,-2.2506,-2.2445,-2.1803,-2.0074,-1.9282,-1.8279,-1.6801,-1.6103,-1.5625,-1.542,-1.541,-1.5167,-1.4756,-1.4392,-1.3666,-1.2451,-1.202,-1.1406,-1.0624,-1.0624,-1.0624,-1.0624,-1.0624,-1.0624,-1.0691,-1.3245,-1.5553,-1.4668,-1.406,-1.3651,-1.3382,-1.1652,-1.0094,-1.0094,-1.021,-1.046,-1.0979,-1.2728,-1.4055,-1.3893,-1.9115,-2.5088,-3.0449,-3.4124,-3.6414,-3.6883,-3.7588,-3.8201,-3.8664,-3.8707,-3.8652,-3.8524,-3.8395,-3.7679,-3.6174,-3.5991,-3.5096,-3.3357,-3.3606,-3.3652,-3.3302,-3.284,-3.2583,-3.2484,-3.2109,-3.2144,-3.2484,-3.1731,-3.1582,-3.1897,-3.1487,-3.1291,-3.1291,-3.123,-3.119,-3.119,-3.119,-3.119,-3.119,-3.119,-3.119,-3.119,-3.119,-3.119,-3.119,-3.119,-3.119,-3.119,-3.119,-3.0838,-3.0351,-2.9805,-2.9088,-2.8511,-2.8511,-2.8042,-2.7625,-2.7625,-2.7625,-2.7625,-2.7625,-2.6534,-2.5563,-2.5563,-2.4323,-2.3305,-2.3305,-2.3198,-2.3078,-2.3078,-2.3078,-2.3078,-2.3078,-2.3078,-2.2506,-2.0974,-2.0393,-1.9251,-1.7163,-1.6594,-1.6078,-1.5537,-1.5449,-1.541,-1.541,-1.4756,-1.3657,-1.2197,-1.2074,-1.1593,-1.0807,-1.0681,-1.0624,-1.0624,-1.0624,-1.0624,-1.2901,-1.5912,-1.7219,-1.222,-1.1922,-1.2507,-1.1017,-1.0383,-1.0094,-1.0094,-1.0694,-1.2079,-1.4984,-1.5234,-1.5901,-1.8677,-2.3725,-2.8763,-3.298,-3.6269,-3.8276,-3.8364,-3.8493,-3.8621,-3.8689,-3.8707,-3.8414,-3.7734,-3.7037,-3.6248,-3.5247,-3.4559,-3.4037,-3.3707,-3.378,-3.3762,-3.3707,-3.3302,-3.2872,-3.2484,-3.2417,-3.2417,-3.2484,-3.235,-3.235,-3.2384,-3.1897,-3.1733,-3.1696,-3.1351,-3.119,-3.119,-3.119,-3.119,-3.119,-3.119,-3.119,-3.119,-3.119,-3.119,-3.119,-3.119,-3.119,-3.119,-3.119,-3.1151,-3.1055,-3.0958,-2.9761,-2.8511,-2.8511,-2.8042,-2.7625,-2.7625,-2.7625,-2.7625,-2.7625,-2.693,-2.6336,-2.6336,-2.5119,-2.4118,-2.4118,-2.3543,-2.3078,-2.3078,-2.3078,-2.3078,-2.3078,-2.3078,-2.2763,-2.1815,-2.128,-2.0247,-1.8448,-1.7653,-1.6845,-1.6027,-1.5615,-1.541,-1.541,-1.5294,-1.4805,-1.3846,-1.3183,-1.2389,-1.1586,-1.0926,-1.0624,-1.0624,-1.0624,-1.0624,-1.1717,-1.4145,-1.5913,-1.4058,-1.6582,-1.9292,-1.8496,-1.7984,-1.7138,-1.5285,-1.5593,-1.6272,-1.6465,-1.8427,-2.1761,-2.7153,-2.8565,-3.0166,-3.3677,-3.5113,-3.5925,-3.625,-3.6693,-3.7072,-3.7397,-3.779,-3.79,-3.7544,-3.7147,-3.6578,-3.5752,-3.4926,-3.4266,-3.3807,-3.3807,-3.3807,-3.3807,-3.3625,-3.3419,-3.3196,-3.2965,-3.2996,-3.3196,-3.2713,-3.2484,-3.2484,-3.1986,-3.166,-3.147,-3.1291,-3.119,-3.119,-3.119,-3.119,-3.119,-3.119,-3.119,-3.119,-3.119,-3.119,-3.119,-3.119,-3.119,-3.119,-3.119,-3.119,-3.119,-3.119,-3.0123,-2.9012,-2.9012,-2.8319,-2.7625,-2.7625,-2.7625,-2.7625,-2.7625,-2.7034,-2.651,-2.651,-2.5618,-2.4794,-2.435,-2.4002,-2.359,-2.3198,-2.3078,-2.3078,-2.3078,-2.3078,-2.2823,-2.2013,-2.1725,-2.0845,-1.9004,-1.8556,-1.7556,-1.5851,-1.5527,-1.541,-1.541,-1.541,-1.4991,-1.4213,-1.3846,-1.3053,-1.1834,-1.1406,-1.1045,-1.0624,-1.0624,-1.0624,-1.1328,-1.3212,-1.5421,-1.7253,-2.0353,-2.3279,-2.4447,-2.3792,-2.2357,-2.0312,-2.0727,-2.0831,-1.8677,-2.1955,-2.6933,-3.2845,-3.1977,-3.1542,-3.4381,-3.4435,-3.4308,-3.4655,-3.528,-3.5851,-3.6258,-3.6853,-3.7202,-3.7202,-3.7202,-3.6853,-3.6046,-3.5367,-3.4623,-3.3825,-3.3807,-3.3807,-3.3807,-3.3807,-3.3807,-3.3807,-3.3494,-3.3494,-3.378,-3.3118,-3.2809,-3.2777,-3.2315,-3.1933,-3.1657,-3.1562,-3.1487,-3.1487,-3.1487,-3.1487,-3.1487,-3.1389,-3.1351,-3.1312,-3.123,-3.119,-3.119,-3.119,-3.119,-3.119,-3.119,-3.119,-3.119,-3.119,-3.0435,-2.9629,-2.9629,-2.8717,-2.781,-2.781,-2.771,-2.7625,-2.7625,-2.7152,-2.6774,-2.6774,-2.6176,-2.5398,-2.4681,-2.4408,-2.4002,-2.3185,-2.3078,-2.3078,-2.3078,-2.3078,-2.2884,-2.2261,-2.2199,-2.1388,-1.9321,-1.8833,-1.7745,-1.5517,-1.541,-1.541,-1.541,-1.541,-1.5108,-1.451,-1.4332,-1.3476,-1.2081,-1.1888,-1.1413,-1.0624,-1.0624,-1.0624,-1.4394,-1.6291,-1.8215,-2.0717,-1.8643,-1.7232,-2.1922,-2.1155,-2.0044,-2.2098,-2.3812,-2.4659,-2.3725,-2.5803,-2.8456,-3.1039,-3.2547,-3.4131,-3.6242,-3.6484,-3.6382,-3.6186,-3.6185,-3.6258,-3.6285,-3.634,-3.6376,-3.6376,-3.6376,-3.6009,-3.5137,-3.5027,-3.4623,-3.3825,-3.3807,-3.3807,-3.3807,-3.3807,-3.3807,-3.3807,-3.3762,-3.3762,-3.3807,-3.3734,-3.3707,-3.3662,-3.3273,-3.3075,-3.3014,-3.2583,-3.2417,-3.2417,-3.2417,-3.2417,-3.235,-3.1933,-3.1752,-3.1696,-3.1312,-3.119,-3.119,-3.119,-3.119,-3.119,-3.119,-3.119,-3.119,-3.119,-3.074,-3.0251,-3.0251,-2.9361,-2.8431,-2.8431,-2.7993,-2.7625,-2.7625,-2.7575,-2.7524,-2.7524,-2.693,-2.6176,-2.5453,-2.4738,-2.4002,-2.3185,-2.3078,-2.3078,-2.3078,-2.3078,-2.3078,-2.3005,-2.3005,-2.2006,-1.9511,-1.8062,-1.6791,-1.5498,-1.541,-1.541,-1.541,-1.541,-1.5352,-1.5294,-1.4569,-1.3786,-1.2887,-1.2143,-1.1413,-1.0624,-1.0624,-1.0624,-1.2109,-1.4999,-1.8251,-1.9779,-2.0117,-2.1409,-2.6436,-2.7662,-2.7865,-2.8258,-2.9236,-2.9621,-2.8275,-2.9525,-3.1197,-3.2591,-3.3654,-3.4583,-3.5356,-3.5443,-3.5352,-3.5039,-3.4988,-3.4929,-3.477,-3.5202,-3.5495,-3.5495,-3.5991,-3.5917,-3.5045,-3.499,-3.4623,-3.3825,-3.3807,-3.3807,-3.3807,-3.3807,-3.3807,-3.3807,-3.3807,-3.3807,-3.3807,-3.3807,-3.368,-3.3437,-3.3273,-3.3045,-3.2745,-3.2583,-3.2484,-3.2484,-3.2161,-3.2057,-3.1986,-3.1565,-3.1411,-3.1411,-3.1252,-3.119,-3.119,-3.119,-3.119,-3.119,-3.119,-3.119,-3.119,-3.119,-3.1015,-3.0781,-3.0393,-2.9406,-2.8511,-2.8511,-2.8042,-2.7625,-2.7625,-2.7625,-2.7625,-2.7625,-2.7357,-2.693,-2.6229,-2.5837,-2.5231,-2.406,-2.3826,-2.3533,-2.272,-2.2623,-2.2485,-2.2146,-2.1807,-2.1013,-1.9629,-1.8204,-1.7059,-1.6161,-1.5642,-1.541,-1.541,-1.541,-1.541,-1.541,-1.5108,-1.4569,-1.3734,-1.3416,-1.2626,-1.1351,-1.1351,-1.1108,-1.207,-1.4658,-1.7911,-1.9572,-2.1308,-2.3986,-2.9284,-3.1187,-3.2018,-3.2743,-3.291,-3.2545,-3.141,-3.1979,-3.2832,-3.3425,-3.4308,-3.4926,-3.4851,-3.4832,-3.4714,-3.4401,-3.4357,-3.4307,-3.4087,-3.458,-3.4973,-3.5145,-3.5698,-3.5736,-3.5055,-3.499,-3.4623,-3.3825,-3.3807,-3.3807,-3.3807,-3.3807,-3.3807,-3.3807,-3.3807,-3.3807,-3.3807,-3.3807,-3.3652,-3.339,-3.339,-3.3196,-3.2903,-3.2903,-3.2903,-3.2872,-3.2548,-3.2449,-3.2382,-3.1806,-3.16,-3.1562,-3.1291,-3.119,-3.119,-3.119,-3.119,-3.119,-3.119,-3.119,-3.119,-3.119,-3.119,-3.1095,-3.0699,-2.9805,-2.9058,-2.9058,-2.8448,-2.7894,-2.7894,-2.771,-2.7625,-2.7625,-2.7625,-2.7357,-2.6616,-2.651,-2.6014,-2.4509,-2.4292,-2.3858,-2.2669,-2.2573,-2.2359,-2.1807,-2.1104,-2.0328,-1.9356,-1.8258,-1.7191,-1.6208,-1.569,-1.541,-1.541,-1.541,-1.541,-1.541,-1.541,-1.4991,-1.4213,-1.4213,-1.3476,-1.2205,-1.2205,-1.1779,-1.5352,-1.6035,-1.7557,-2.0857,-2.1737,-2.3339,-2.9187,-2.9909,-3.0507,-3.4661,-3.4141,-3.291,-3.2891,-3.291,-3.291,-3.2891,-3.4372,-3.5417,-3.5138,-3.5105,-3.4999,-3.4753,-3.4694,-3.4694,-3.4694,-3.4694,-3.4908,-3.5453,-3.5504,-3.5354,-3.5,-3.5018,-3.4651,-3.3825,-3.3807,-3.3807,-3.3788,-3.3788,-3.3788,-3.3807,-3.3807,-3.3807,-3.3807,-3.3807,-3.3807,-3.3807,-3.3807,-3.3807,-3.3807,-3.3807,-3.3807,-3.3807,-3.3807,-3.3788,-3.3707,-3.2809,-3.2484,-3.2384,-3.1524,-3.123,-3.123,-3.119,-3.119,-3.119,-3.119,-3.119,-3.119,-3.119,-3.119,-3.119,-3.119,-3.074,-3.0293,-3.0293,-2.9361,-2.8511,-2.8511,-2.8042,-2.7625,-2.7625,-2.7625,-2.7357,-2.6616,-2.651,-2.6014,-2.4509,-2.4279,-2.3989,-2.3173,-2.3053,-2.2899,-2.2347,-2.1305,-2.0086,-1.8612,-1.798,-1.6968,-1.5526,-1.541,-1.541,-1.541,-1.541,-1.541,-1.541,-1.541,-1.4991,-1.4204,-1.4204,-1.3786,-1.3009,-1.3009,-1.2573,-1.2305,-1.6332,-2.0871,-2.0122,-2.4832,-2.9956,-3.1071,-3.1158,-3.1844,-3.4879,-3.5103,-3.4353,-3.3122,-3.391,-3.4334,-3.3103,-3.4372,-3.546,-3.5383,-3.5383,-3.5289,-3.4999,-3.4981,-3.4908,-3.4714,-3.4694,-3.4766,-3.4927,-3.5472,-3.5503,-3.4832,-3.5315,-3.5259,-3.4458,-3.442,-3.433,-3.4074,-3.4074,-3.3986,-3.3807,-3.3807,-3.3807,-3.3807,-3.3807,-3.3807,-3.3807,-3.3807,-3.3807,-3.3807,-3.3807,-3.3807,-3.3762,-3.3494,-3.3361,-3.3302,-3.2713,-3.2484,-3.2451,-3.2179,-3.2127,-3.2056,-3.1733,-3.164,-3.1565,-3.1291,-3.119,-3.119,-3.119,-3.119,-3.1072,-3.0565,-3.0297,-3.0162,-3.0278,-2.9717,-2.9134,-2.9134,-2.8996,-2.8717,-2.8319,-2.8238,-2.8042,-2.7393,-2.7255,-2.6759,-2.5287,-2.4682,-2.3728,-2.1648,-2.1393,-2.1179,-2.0602,-2.025,-1.967,-1.8736,-1.8476,-1.7731,-1.6255,-1.6151,-1.5921,-1.541,-1.541,-1.541,-1.541,-1.541,-1.5294,-1.505,-1.505,-1.4628,-1.3846,-1.3846,-1.3114,-1.5859,-1.9846,-2.4091,-2.4623,-2.84,-3.222,-3.3026,-3.3207,-3.3646,-3.518,-3.5493,-3.518,-3.4141,-3.4795,-3.5161,-3.4103,-3.4814,-3.5493,-3.5493,-3.5493,-3.5446,-3.5289,-3.5273,-3.519,-3.5016,-3.5016,-3.4981,-3.487,-3.5305,-3.5323,-3.4732,-3.5166,-3.5203,-3.4713,-3.4694,-3.4593,-3.4401,-3.4401,-3.433,-3.416,-3.416,-3.416,-3.4136,-3.3921,-3.3807,-3.3807,-3.3807,-3.3807,-3.3807,-3.3807,-3.3807,-3.378,-3.3522,-3.3437,-3.339,-3.2934,-3.2777,-3.2745,-3.255,-3.2384,-3.2179,-3.188,-3.1696,-3.1507,-3.1252,-3.119,-3.119,-3.119,-3.119,-3.1089,-3.0649,-3.0328,-3.0133,-3.0222,-2.9526,-2.8957,-2.9275,-2.8897,-2.837,-2.7798,-2.7659,-2.7472,-2.6879,-2.7006,-2.6716,-2.524,-2.4493,-2.3418,-2.1583,-2.1207,-2.0832,-2.0227,-1.9936,-1.9475,-1.8768,-1.8715,-1.8178,-1.7034,-1.6922,-1.6754,-1.6301,-1.569,-1.541,-1.541,-1.541,-1.541,-1.541,-1.541,-1.5167,-1.4688,-1.4688,-1.3965,-2.2656,-2.4793,-2.7067,-3.1701,-3.1906,-3.1774,-3.4808,-3.5488,-3.5501,-3.5507,-3.5493,-3.5493,-3.5493,-3.5493,-3.5493,-3.5493,-3.5493,-3.5493,-3.5493,-3.5493,-3.5493,-3.5493,-3.5493,-3.5493,-3.5493,-3.5493,-3.5398,-3.5138,-3.5138,-3.5016,-3.4793,-3.4774,-3.4774,-3.4774,-3.4774,-3.4754,-3.4753,-3.4753,-3.4714,-3.4694,-3.4694,-3.4694,-3.4674,-3.4136,-3.3868,-3.3842,-3.3815,-3.3807,-3.3807,-3.3807,-3.3807,-3.3807,-3.3807,-3.3807,-3.3762,-3.339,-3.3243,-3.3196,-3.2777,-3.2332,-3.1986,-3.1951,-3.1677,-3.1351,-3.1329,-3.1291,-3.1252,-3.1252,-3.1179,-3.1072,-3.1004,-3.0446,-2.9905,-2.9905,-2.9003,-2.8372,-2.9055,-2.8217,-2.7185,-2.6598,-2.6466,-2.6287,-2.5693,-2.6108,-2.6016,-2.4644,-2.3825,-2.3158,-2.2419,-2.1904,-2.1394,-2.079,-2.0164,-1.9527,-1.8886,-1.8821,-1.8501,-1.7743,-1.7688,-1.7688,-1.7578,-1.6244,-1.5526,-1.5526,-1.541,-1.541,-1.541,-1.541,-1.541,-1.541,-1.541,-1.4991,-1.8298,-2.3351,-2.886,-2.994,-3.2427,-3.4736,-3.5361,-3.5534,-3.5562,-3.5515,-3.5493,-3.5493,-3.5493,-3.5493,-3.5493,-3.5493,-3.5493,-3.5493,-3.5493,-3.5493,-3.5493,-3.5493,-3.5493,-3.5493,-3.5493,-3.5493,-3.5479,-3.5417,-3.5398,-3.5383,-3.532,-3.5339,-3.5339,-3.5339,-3.5339,-3.5223,-3.5035,-3.4999,-3.4908,-3.4694,-3.4694,-3.4694,-3.4713,-3.4569,-3.4375,-3.4099,-3.3876,-3.3807,-3.3807,-3.3807,-3.3807,-3.3807,-3.3807,-3.3807,-3.3788,-3.3707,-3.368,-3.3652,-3.355,-3.3447,-3.3314,-3.2996,-3.284,-3.2713,-3.2316,-3.1968,-3.166,-3.166,-3.1022,-3.0209,-2.9617,-2.889,-2.8279,-2.8279,-2.8581,-2.8844,-2.9013,-2.88,-2.8307,-2.7294,-2.7127,-2.68,-2.5771,-2.5734,-2.5381,-2.409,-2.3596,-2.305,-2.1978,-2.1683,-2.1392,-2.0845,-2.0169,-1.9747,-1.9579,-1.9579,-1.9254,-1.8501,-1.8436,-1.8221,-1.7633,-1.6754,-1.6265,-1.6265,-1.569,-1.541,-1.541,-1.541,-1.541,-1.541,-1.541,-1.4991,-2.0016,-2.4506,-2.8847,-3.1705,-3.4074,-3.5682,-3.5611,-3.5611,-3.563,-3.5562,-3.5522,-3.5493,-3.5493,-3.5493,-3.5493,-3.5493,-3.5493,-3.5493,-3.5493,-3.5493,-3.5493,-3.5493,-3.5493,-3.5493,-3.5493,-3.5493,-3.5661,-3.6065,-3.6084,-3.6257,-3.668,-3.6315,-3.6084,-3.6084,-3.5699,-3.5432,-3.5289,-3.5289,-3.5223,-3.5088,-3.5088,-3.5088,-3.507,-3.4655,-3.4379,-3.4195,-3.3928,-3.3807,-3.3807,-3.3807,-3.3807,-3.3807,-3.3807,-3.3807,-3.3807,-3.3807,-3.3807,-3.3807,-3.3807,-3.3662,-3.3421,-3.281,-3.2487,-3.2166,-3.1558,-3.1175,-3.0974,-3.0974,-3.0543,-3.0007,-2.9644,-2.8952,-2.8349,-2.8134,-2.7981,-2.7994,-2.8349,-2.8146,-2.7645,-2.6853,-2.6698,-2.6406,-2.5559,-2.5188,-2.4836,-2.4217,-2.3768,-2.3169,-2.2295,-2.1868,-2.1453,-2.0871,-2.0207,-1.9798,-1.9798,-1.9798,-1.9643,-1.9254,-1.9202,-1.9032,-1.8661,-1.7961,-1.7202,-1.6482,-1.5748,-1.541,-1.541,-1.541,-1.541,-1.541,-1.541,-1.4991,-2.1753,-2.533,-2.8452,-3.428,-3.5735,-3.5741,-3.571,-3.5717,-3.5703,-3.563,-3.5562,-3.5515,-3.5507,-3.5493,-3.5493,-3.5493,-3.5493,-3.5493,-3.5493,-3.5493,-3.5493,-3.5493,-3.5493,-3.5493,-3.5493,-3.5493,-3.5795,-3.6449,-3.6622,-3.7007,-3.7738,-3.7084,-3.6699,-3.6699,-3.593,-3.5493,-3.5493,-3.5493,-3.5493,-3.5493,-3.5493,-3.5493,-3.546,-3.4716,-3.436,-3.4338,-3.4087,-3.3928,-3.3876,-3.3928,-3.3895,-3.3788,-3.3868,-3.3842,-3.3807,-3.3807,-3.3807,-3.3807,-3.3807,-3.3487,-3.2995,-3.2314,-3.1739,-3.1199,-3.0546,-3.026,-3.0216,-3.0216,-3.0079,-2.9911,-2.9911,-2.9359,-2.8717,-2.8397,-2.7612,-2.7044,-2.7521,-2.7131,-2.6556,-2.6085,-2.5852,-2.5577,-2.5144,-2.4632,-2.4288,-2.4388,-2.3955,-2.3404,-2.2906,-2.229,-2.1671,-2.1161,-2.0446,-1.9952,-1.9952,-1.985,-1.9798,-1.9798,-1.9798,-1.9798,-1.9798,-1.9097,-1.8124,-1.6922,-1.6036,-1.5526,-1.541,-1.541,-1.541,-1.541,-1.541,-1.4991,-1.5348,-2.1734,-2.9354,-3.4576,-3.5921,-3.5908,-3.5741,-3.5797,-3.5836,-3.5703,-3.5639,-3.5574,-3.5515,-3.5493,-3.5493,-3.5493,-3.5493,-3.5493,-3.5493,-3.5493,-3.5493,-3.5493,-3.5493,-3.5493,-3.5493,-3.5493,-3.5532,-3.5661,-3.6315,-3.6757,-3.6873,-3.6757,-3.6699,-3.6699,-3.593,-3.5493,-3.5493,-3.5493,-3.5493,-3.5493,-3.5493,-3.5493,-3.5493,-3.5138,-3.4981,-3.4962,-3.4694,-3.442,-3.4171,-3.4464,-3.4279,-3.3815,-3.4068,-3.3993,-3.3807,-3.3807,-3.3807,-3.3807,-3.3807,-3.3321,-3.2664,-3.2554,-3.2015,-3.1386,-3.1276,-3.0976,-3.0697,-3.0697,-2.9946,-2.916,-2.916,-2.8594,-2.801,-2.7999,-2.7853,-2.7565,-2.6977,-2.6759,-2.6556,-2.6085,-2.5259,-2.4592,-2.4511,-2.4074,-2.3711,-2.3729,-2.367,-2.358,-2.3492,-2.2951,-2.2515,-2.2452,-2.1369,-2.0646,-2.0646,-2.0156,-1.9798,-1.9798,-1.9798,-1.9798,-1.9798,-1.9097,-1.8608,-1.8394,-1.7024,-1.6036,-1.541,-1.541,-1.541,-1.541,-1.541,-1.4991,-1.6834,-2.3587,-3.0097,-3.4781,-3.5975,-3.5976,-3.5899,-3.5903,-3.5923,-3.5821,-3.578,-3.5748,-3.564,-3.5611,-3.5611,-3.5562,-3.557,-3.5534,-3.552,-3.5493,-3.5493,-3.5493,-3.5493,-3.5493,-3.5493,-3.5493,-3.5699,-3.6142,-3.6507,-3.7142,-3.8104,-3.7238,-3.693,-3.7411,-3.618,-3.5493,-3.5493,-3.5493,-3.5493,-3.5493,-3.5493,-3.5493,-3.5493,-3.5369,-3.5239,-3.5088,-3.4832,-3.4632,-3.4508,-3.4653,-3.4548,-3.4325,-3.4442,-3.442,-3.4284,-3.4284,-3.4208,-3.3988,-3.3692,-3.325,-3.268,-3.1774,-3.1238,-3.0826,-3.0239,-2.9923,-2.9799,-2.9799,-2.9424,-2.8987,-2.8987,-2.876,-2.8456,-2.8237,-2.8183,-2.7974,-2.7192,-2.7036,-2.6889,-2.647,-2.5799,-2.5221,-2.4894,-2.4389,-2.3948,-2.3638,-2.3595,-2.3595,-2.3595,-2.3053,-2.2721,-2.2709,-2.1866,-2.1161,-2.0845,-2.0547,-2.0207,-1.9798,-1.9798,-1.9798,-1.9798,-1.9475,-1.915,-1.8715,-1.7688,-1.6754,-1.6036,-1.6036,-1.5806,-1.541,-1.541,-1.4991,-1.7326,-2.2647,-2.6949,-3.2636,-3.4199,-3.4648,-3.5742,-3.5996,-3.5995,-3.5942,-3.5938,-3.589,-3.5792,-3.5735,-3.5682,-3.5639,-3.5621,-3.5601,-3.555,-3.5558,-3.5558,-3.5558,-3.5558,-3.5534,-3.5534,-3.5534,-3.5759,-3.6353,-3.6584,-3.7276,-3.8565,-3.7411,-3.7007,-3.7642,-3.6257,-3.5493,-3.5493,-3.5493,-3.5493,-3.5493,-3.5493,-3.5493,-3.5493,-3.5493,-3.5383,-3.519,-3.4981,-3.4851,-3.4812,-3.4889,-3.4813,-3.4713,-3.4793,-3.4754,-3.4694,-3.4694,-3.4551,-3.4244,-3.3612,-3.3156,-3.2552,-3.107,-3.0453,-3.0132,-2.9251,-2.8994,-2.8994,-2.8994,-2.8994,-2.8994,-2.8994,-2.8994,-2.8929,-2.8615,-2.854,-2.8316,-2.75,-2.721,-2.7051,-2.6758,-2.6332,-2.5888,-2.5449,-2.4958,-2.4467,-2.409,-2.4028,-2.3971,-2.3822,-2.3407,-2.3082,-2.2934,-2.2331,-2.1724,-2.1064,-2.0894,-2.0497,-1.985,-1.9798,-1.9798,-1.9798,-1.9798,-1.9527,-1.8992,-1.8447,-1.7633,-1.6492,-1.6492,-1.6151,-1.541,-1.541,-1.4991,-1.2801,-1.4701,-1.7113,-2.6385,-2.9276,-3.0916,-3.5058,-3.5996,-3.5996,-3.5996,-3.5996,-3.5996,-3.5996,-3.5834,-3.5703,-3.5696,-3.5696,-3.5696,-3.5689,-3.5689,-3.5689,-3.5689,-3.5689,-3.5652,-3.5591,-3.56,-3.5593,-3.5545,-3.6276,-3.6738,-3.6834,-3.6757,-3.6719,-3.6776,-3.5949,-3.5493,-3.5493,-3.5493,-3.5493,-3.5493,-3.5493,-3.5493,-3.5493,-3.5493,-3.5493,-3.5479,-3.546,-3.5304,-3.5105,-3.5354,-3.5174,-3.4733,-3.4981,-3.4926,-3.4694,-3.4694,-3.4694,-3.4561,-3.3692,-3.2901,-3.2052,-3.0968,-3.0081,-2.9407,-2.9085,-2.8994,-2.8994,-2.8994,-2.8994,-2.8994,-2.8994,-2.8994,-2.8994,-2.8975,-2.8952,-2.8676,-2.756,-2.6987,-2.6725,-2.6691,-2.6332,-2.5997,-2.5961,-2.5506,-2.514,-2.5137,-2.5121,-2.4926,-2.444,-2.4307,-2.4116,-2.3595,-2.3009,-2.2392,-2.171,-2.1113,-2.0497,-1.985,-1.9798,-1.9798,-1.9798,-1.9798,-1.9798,-1.9747,-1.9695,-1.8608,-1.6492,-1.6492,-1.6151,-1.541,-1.541,-1.4991,-1.1877,-1.3643,-1.5701,-2.2453,-2.6442,-2.9276,-3.1346,-3.3984,-3.5996,-3.5996,-3.5996,-3.5996,-3.5996,-3.5932,-3.5874,-3.5841,-3.5836,-3.5802,-3.571,-3.5703,-3.5703,-3.5703,-3.5703,-3.5689,-3.5671,-3.5652,-3.5655,-3.563,-3.5892,-3.63,-3.6852,-3.6314,-3.6238,-3.6798,-3.5965,-3.5493,-3.5493,-3.5493,-3.5493,-3.5493,-3.5493,-3.5493,-3.5493,-3.5493,-3.5493,-3.5493,-3.5493,-3.5446,-3.5369,-3.546,-3.5383,-3.5223,-3.532,-3.5304,-3.5207,-3.5207,-3.5105,-3.4867,-3.4165,-3.3255,-3.2214,-3.1205,-3.0284,-2.9514,-2.9115,-2.8994,-2.8994,-2.8994,-2.8994,-2.8994,-2.8994,-2.8994,-2.8994,-2.8994,-2.8797,-2.8515,-2.8084,-2.7512,-2.6987,-2.6758,-2.6332,-2.6013,-2.6013,-2.5567,-2.5201,-2.5198,-2.5195,-2.5125,-2.4934,-2.4894,-2.4831,-2.4672,-2.4127,-2.352,-2.2907,-2.2317,-2.1738,-2.1037,-2.0683,-2.0446,-2.0446,-2.0055,-1.9798,-1.9798,-1.9319,-1.8447,-1.7202,-1.7202,-1.6585,-1.541,-1.541,-1.5235,-0.9329,-1.0846,-1.2883,-1.8228,-2.0586,-2.3077,-2.8605,-3.1717,-3.3906,-3.5644,-3.5996,-3.5996,-3.5996,-3.5996,-3.5995,-3.5945,-3.5921,-3.5893,-3.5806,-3.5802,-3.5802,-3.5802,-3.5802,-3.5792,-3.5766,-3.5766,-3.5755,-3.571,-3.5703,-3.5956,-3.6533,-3.5965,-3.5911,-3.6484,-3.5899,-3.5574,-3.5574,-3.5574,-3.5574,-3.5574,-3.5574,-3.557,-3.5528,-3.5528,-3.5522,-3.5493,-3.5493,-3.5493,-3.5493,-3.5493,-3.5493,-3.5493,-3.5493,-3.5493,-3.5493,-3.5493,-3.5383,-3.5101,-3.412,-3.3273,-3.242,-3.1073,-3.0267,-2.9729,-2.9357,-2.923,-2.923,-2.923,-2.923,-2.923,-2.923,-2.9163,-2.9112,-2.9017,-2.8815,-2.8565,-2.842,-2.7918,-2.7409,-2.7147,-2.674,-2.6437,-2.6437,-2.6035,-2.5709,-2.5709,-2.5709,-2.5635,-2.5486,-2.5449,-2.5335,-2.4989,-2.4632,-2.4085,-2.3303,-2.2891,-2.2314,-2.1424,-2.1028,-2.0696,-2.0446,-2.0055,-1.9798,-1.9798,-1.9307,-1.8715,-1.795,-1.7468,-1.6585,-1.541,-1.541,-1.541,0.0,0.0,0.0,-1.3481,-1.1667,-1.2316,-2.6802,-2.9052,-2.9531,-3.4707,-3.5762,-3.582,-3.5976,-3.5996,-3.5996,-3.5996,-3.5996,-3.5996,-3.5996,-3.5996,-3.5996,-3.5996,-3.5996,-3.5974,-3.5907,-3.5903,-3.5845,-3.5717,-3.571,-3.571,-3.571,-3.571,-3.571,-3.5703,-3.5703,-3.5703,-3.5703,-3.5703,-3.5703,-3.5703,-3.5703,-3.5671,-3.5591,-3.5591,-3.5574,-3.552,-3.552,-3.552,-3.552,-3.5507,-3.5493,-3.5493,-3.5493,-3.5493,-3.5493,-3.5493,-3.5493,-3.5257,-3.3526,-3.291,-3.2577,-3.0663,-3.0018,-2.9969,-2.9746,-2.9696,-2.9696,-2.9696,-2.9696,-2.9696,-2.9696,-2.957,-2.9351,-2.9067,-2.9017,-2.8887,-2.8496,-2.8156,-2.7926,-2.7897,-2.7589,-2.7334,-2.7334,-2.6987,-2.6725,-2.6725,-2.6725,-2.6556,-2.6085,-2.6013,-2.5615,-2.4592,-2.443,-2.396,-2.2875,-2.274,-2.2175,-2.0944,-2.0845,-2.0547,-1.9901,-1.985,-1.9798,-1.9798,-1.9798,-1.9423,-1.8715,-1.7246,-1.614,-1.541,-1.541,-1.541,-0.4925,0.0,0.0,0.0,0.0,0.0,-1.7501,-2.0705,-2.4136,-2.9355,-3.0429,-3.1562,-3.5312,-3.5996,-3.5996,-3.5996,-3.5996,-3.5996,-3.5996,-3.5996,-3.5996,-3.5996,-3.5996,-3.5996,-3.5974,-3.5973,-3.5953,-3.5927,-3.5927,-3.5927,-3.5927,-3.5864,-3.5802,-3.571,-3.5703,-3.5703,-3.5703,-3.5703,-3.5703,-3.5703,-3.5703,-3.5689,-3.5667,-3.5667,-3.5671,-3.5638,-3.5638,-3.5638,-3.5639,-3.5553,-3.5493,-3.5493,-3.5493,-3.5493,-3.5493,-3.5493,-3.5493,-3.5353,-3.4237,-3.343,-3.2673,-3.1365,-3.0509,-2.9969,-2.9746,-2.9696,-2.9696,-2.9696,-2.9696,-2.9696,-2.9696,-2.9661,-2.957,-2.9332,-2.9289,-2.9203,-2.891,-2.8767,-2.8551,-2.801,-2.7811,-2.7736,-2.7736,-2.7378,-2.7147,-2.7147,-2.6873,-2.6657,-2.6505,-2.6505,-2.6385,-2.6087,-2.5395,-2.4855,-2.4561,-2.3806,-2.3187,-2.2846,-2.2406,-2.188,-2.1183,-2.0782,-2.0295,-1.9798,-1.9254,-1.8874,-1.8715,-1.8286,-1.7468,-1.6208,-1.5642,-1.541,-0.552,-0.5149,-0.5286,-0.6785,0.0,0.0,-1.6374,-1.9087,-2.25,-2.9871,-3.1393,-3.2313,-3.5327,-3.5874,-3.5874,-3.5874,-3.5874,-3.5903,-3.5996,-3.5996,-3.5996,-3.5996,-3.5996,-3.5996,-3.5996,-3.5996,-3.5996,-3.5996,-3.5996,-3.5996,-3.5996,-3.5951,-3.5918,-3.5834,-3.5834,-3.5834,-3.5834,-3.5834,-3.5834,-3.5834,-3.5834,-3.5802,-3.5772,-3.5772,-3.5755,-3.5703,-3.5703,-3.5703,-3.5696,-3.5621,-3.5568,-3.5568,-3.5568,-3.5574,-3.5534,-3.5534,-3.5303,-3.4834,-3.3949,-3.3103,-3.2244,-3.1257,-3.0584,-3.0136,-3.0022,-2.9992,-2.9992,-2.9992,-2.9992,-2.9977,-2.9845,-2.9829,-2.9763,-2.957,-2.9532,-2.9493,-2.9344,-2.9243,-2.9034,-2.8464,-2.8228,-2.8102,-2.8102,-2.7794,-2.75,-2.7334,-2.7083,-2.6906,-2.6725,-2.6691,-2.6624,-2.6436,-2.5872,-2.5449,-2.5221,-2.443,-2.3822,-2.355,-2.3039,-2.2406,-2.1758,-2.1342,-2.0868,-2.0245,-1.9825,-1.9451,-1.915,-1.8555,-1.7633,-1.6492,-1.6036,-1.569,-0.6607,-0.5625,-0.5584,-0.7702,-0.6685,0.0,-1.8352,-1.9688,-2.1478,-3.1144,-3.3155,-3.3316,-3.39,-3.4075,-3.4114,-3.4023,-3.4562,-3.5212,-3.5873,-3.5976,-3.5996,-3.5996,-3.5996,-3.5996,-3.5996,-3.5996,-3.5996,-3.5996,-3.5996,-3.5996,-3.5996,-3.5996,-3.5996,-3.5996,-3.5996,-3.5996,-3.5996,-3.5996,-3.5996,-3.5996,-3.5996,-3.5973,-3.591,-3.591,-3.5849,-3.5735,-3.5735,-3.5735,-3.5735,-3.5735,-3.5723,-3.5703,-3.5703,-3.5671,-3.5611,-3.5611,-3.5035,-3.4108,-3.3241,-3.2401,-3.1573,-3.0706,-3.0417,-3.0417,-3.0417,-3.0425,-3.0402,-3.041,-3.0421,-3.0359,-3.0103,-3.0042,-2.9984,-2.978,-2.9729,-2.9715,-2.9701,-2.9569,-2.9415,-2.9067,-2.8707,-2.8471,-2.8471,-2.8174,-2.7826,-2.7477,-2.7348,-2.7166,-2.6809,-2.6708,-2.6556,-2.612,-2.6049,-2.5815,-2.5335,-2.4736,-2.4168,-2.3618,-2.3187,-2.2569,-2.1852,-2.186,-2.1554,-2.0795,-2.0693,-2.028,-1.9623,-1.8335,-1.7357,-1.6595,-1.6539,-1.6093,-0.7996,-0.693,-0.6765,-0.6552,-0.666,0.0,-0.8133,-0.8629,-1.0447,-1.6036,-1.718,-1.8459,-2.2617,-2.3917,-2.4147,-2.3494,-2.7424,-3.1777,-3.5265,-3.5853,-3.5916,-3.5916,-3.5972,-3.5996,-3.5996,-3.5996,-3.5996,-3.5996,-3.5996,-3.5996,-3.5996,-3.5996,-3.5996,-3.5996,-3.5996,-3.5996,-3.5996,-3.5996,-3.5996,-3.5996,-3.5996,-3.5996,-3.5975,-3.5975,-3.5974,-3.5932,-3.5932,-3.5932,-3.5932,-3.5932,-3.5845,-3.5703,-3.5703,-3.5696,-3.5675,-3.5675,-3.5154,-3.4315,-3.3448,-3.2574,-3.1712,-3.0846,-3.0554,-3.0554,-3.0554,-3.0513,-3.0463,-3.0425,-3.043,-3.0453,-3.034,-3.0311,-3.0254,-2.9999,-2.9939,-2.9861,-2.9589,-2.9513,-2.9415,-2.9067,-2.8929,-2.8887,-2.8887,-2.8554,-2.8276,-2.8209,-2.7683,-2.7282,-2.7182,-2.6911,-2.6657,-2.659,-2.6227,-2.5977,-2.5852,-2.495,-2.4348,-2.421,-2.422,-2.3715,-2.2572,-2.303,-2.2524,-2.0809,-1.9834,-1.9056,-1.8518,-1.8478,-1.8124,-1.7357,-1.6765,-1.6093,-0.9092,-0.7898,-0.7788,-0.736,-0.6938,0.0,0.0,-0.9298,-1.0766,-1.5963,-1.8056,-1.9336,-2.0667,-1.9477,-1.8876,-2.0615,-2.52,-2.8562,-2.8562,-3.274,-3.5802,-3.5802,-3.583,-3.5874,-3.5947,-3.5948,-3.5953,-3.5996,-3.5996,-3.5996,-3.5996,-3.5996,-3.5996,-3.5996,-3.5996,-3.5996,-3.5996,-3.5996,-3.5996,-3.5996,-3.5996,-3.5996,-3.5996,-3.5996,-3.5996,-3.5996,-3.5996,-3.5996,-3.5996,-3.5996,-3.5932,-3.5845,-3.5845,-3.583,-3.5744,-3.5315,-3.4606,-3.3732,-3.2856,-3.1981,-3.1183,-3.0742,-3.0606,-3.0606,-3.0606,-3.0575,-3.0545,-3.0507,-3.0513,-3.0545,-3.0507,-3.0472,-3.0422,-3.0267,-3.0222,-3.0136,-2.9992,-2.9946,-2.9842,-2.9506,-2.9202,-2.8994,-2.8994,-2.8847,-2.8695,-2.8695,-2.8378,-2.7976,-2.7451,-2.7216,-2.6979,-2.6708,-2.647,-2.6367,-2.6367,-2.5635,-2.5089,-2.4831,-2.4929,-2.4416,-2.3216,-2.3789,-2.3234,-2.1307,-1.9484,-1.8618,-1.8618,-1.8511,-1.8056,-1.7364,-1.6946,-1.6213,-1.0521,-0.9109,-0.9023,-0.8559,-0.7574,-0.7631,0.0,0.0,0.0,-1.7219,-1.9801,-2.0604,-1.8561,-1.5487,-1.433,-1.7655,-2.2068,-2.3822,-2.0202,-2.7199,-3.2713,-3.2733,-3.4497,-3.5365,-3.4484,-3.4394,-3.4836,-3.5854,-3.5036,-3.4919,-3.5893,-3.5932,-3.5932,-3.5932,-3.5974,-3.5974,-3.5932,-3.5976,-3.5996,-3.5975,-3.5996,-3.5996,-3.5996,-3.5996,-3.5996,-3.5996,-3.5996,-3.5996,-3.5996,-3.5996,-3.5996,-3.5996,-3.5996,-3.5855,-3.5581,-3.4878,-3.3942,-3.2903,-3.2201,-3.1383,-3.0662,-3.0662,-3.0662,-3.0643,-3.0628,-3.0633,-3.0658,-3.0611,-3.0617,-3.0623,-3.0606,-3.0554,-3.0513,-3.0513,-3.0472,-3.0439,-3.0421,-3.0398,-3.0321,-3.0052,-2.9456,-2.8994,-2.8994,-2.8994,-2.8994,-2.8994,-2.8994,-2.871,-2.7892,-2.767,-2.7437,-2.7023,-2.6808,-2.6776,-2.6996,-2.6532,-2.6102,-2.5815,-2.5888,-2.5373,-2.4021,-2.4029,-2.3256,-2.1565,-1.9449,-1.8548,-1.9039,-1.8352,-1.7735,-1.7108,-1.7215,-1.6558,-1.3124,-1.1283,-1.0905,-0.8768,-0.8762,-0.8644,-0.6262,0.0,-0.6628,-0.6526,0.0,-0.6862,-0.6643,0.0,0.0,-0.672,-1.1541,-1.4889,-1.3678,-1.8329,-2.1926,-2.2034,-3.014,-3.3926,-2.942,-2.8996,-3.0862,-3.5385,-3.1549,-3.0969,-3.5482,-3.5735,-3.5735,-3.5735,-3.5849,-3.5849,-3.5735,-3.5906,-3.5973,-3.591,-3.5973,-3.5996,-3.5996,-3.5996,-3.5996,-3.5996,-3.5996,-3.5996,-3.5996,-3.5996,-3.5996,-3.5996,-3.5996,-3.5527,-3.4824,-3.4726,-3.3671,-3.2303,-3.2205,-3.16,-3.0877,-3.0877,-3.0877,-3.0836,-3.0718,-3.0767,-3.0832,-3.0638,-3.0633,-3.0677,-3.0623,-3.06,-3.0587,-3.0587,-3.0581,-3.0545,-3.0428,-3.0398,-3.0379,-3.034,-2.9624,-2.8994,-2.8994,-2.8994,-2.8994,-2.8994,-2.8994,-2.8947,-2.8846,-2.8258,-2.79,-2.801,-2.7233,-2.7097,-2.8113,-2.7463,-2.7225,-2.7822,-2.7987,-2.7232,-2.535,-2.317,-2.1715,-2.0996,-1.9628,-1.897,-1.9087,-1.8035,-1.7365,-1.712,-1.7582,-1.7143,-1.2338,-1.2686,-1.3557,-0.9269,-0.9978,-1.0612,-0.6364,-0.5274,-0.5192,-0.5319,0.0,0.0,0.0,0.0,0.0,0.0,-0.9626,-1.1949,-0.9283,-1.7047,-2.2288,-2.0419,-2.4045,-2.7048,-2.7906,-2.8043,-3.0205,-3.5321,-3.0978,-3.0321,-3.5431,-3.5703,-3.5703,-3.5703,-3.5761,-3.5761,-3.5703,-3.5788,-3.5802,-3.5772,-3.5802,-3.5834,-3.5834,-3.5834,-3.5834,-3.5834,-3.5834,-3.5834,-3.5834,-3.5834,-3.5868,-3.5945,-3.5945,-3.5425,-3.4707,-3.4707,-3.3926,-3.2832,-3.2363,-3.2266,-3.2266,-3.1816,-3.1973,-3.2246,-3.1735,-3.1932,-3.2246,-3.1686,-3.1884,-3.2045,-3.1038,-3.1097,-3.127,-3.0782,-3.0638,-3.0587,-3.0521,-3.0442,-3.0398,-3.0398,-3.0085,-2.9815,-2.9815,-2.9357,-2.8994,-2.8994,-2.8994,-2.8994,-2.8994,-2.8732,-2.856,-2.8674,-2.8013,-2.7918,-2.8733,-2.8228,-2.8072,-2.8586,-2.7313,-2.6211,-2.5486,-2.2975,-2.1695,-2.1946,-2.0448,-1.9633,-1.9602,-1.8466,-1.7709,-1.726,-1.7162,-1.6608,-1.3447,-1.4365,-1.5327,-0.9559,-0.9987,-1.0721,-0.6483,-0.5348,-0.5319,-0.5723,-0.5633,0.0,0.0,0.0,-0.5343,0.0,0.0,-0.9412,-0.6278,-1.3705,-1.859,-1.6193,-1.7191,-2.0115,-2.5294,-2.4606,-2.6532,-3.3052,-2.8793,-2.8754,-3.5308,-3.5657,-3.5657,-3.5657,-3.5671,-3.5652,-3.5657,-3.5682,-3.5689,-3.5667,-3.5696,-3.5703,-3.5703,-3.5703,-3.5703,-3.5703,-3.5703,-3.5703,-3.5703,-3.5703,-3.5761,-3.5841,-3.5841,-3.5357,-3.466,-3.4687,-3.4141,-3.332,-3.2734,-3.291,-3.3301,-3.2715,-3.293,-3.3281,-3.2715,-3.2949,-3.3281,-3.2695,-3.2793,-3.2832,-3.1836,-3.1813,-3.1899,-3.1255,-3.1077,-3.0964,-3.065,-3.0513,-3.0537,-3.0806,-3.0609,-3.0398,-3.0398,-2.9832,-2.933,-2.9209,-2.909,-2.9177,-2.9606,-2.9263,-2.9237,-2.9811,-2.9148,-2.8953,-2.9636,-2.9296,-2.907,-2.9198,-2.7202,-2.5822,-2.5399,-2.3213,-2.2237,-2.2702,-2.1282,-2.0526,-2.0482,-1.9314,-1.8369,-1.7601,-1.7024,-1.643,-1.841,-1.6747,-1.5539,-0.9428,-0.8128,-0.7696,-0.5134,-0.5678,-0.6515,-0.577,-0.6732,-0.7504,-0.6892,-0.6746,0.0,0.0,0.0,0.0,0.0,-0.5004,-0.5269,-0.5294,-0.97,-1.4773,-1.995,-1.5929,-1.7195,-2.7292,-2.3266,-2.4793,-3.4962,-3.552,-3.552,-3.552,-3.5566,-3.5566,-3.552,-3.5639,-3.5679,-3.5601,-3.5679,-3.5703,-3.5703,-3.5703,-3.5703,-3.5703,-3.5703,-3.5703,-3.5703,-3.5703,-3.571,-3.571,-3.571,-3.5204,-3.4516,-3.464,-3.4141,-3.3398,-3.3379,-3.3379,-3.3398,-3.3379,-3.3379,-3.3398,-3.3379,-3.3379,-3.3398,-3.3379,-3.2812,-3.2402,-3.3125,-3.2754,-3.2187,-3.2168,-3.2148,-3.1851,-3.0813,-3.06,-3.087,-3.1862,-3.1148,-3.0398,-3.0398,-3.0386,-3.0204,-2.9739,-2.9297,-2.9569,-3.1128,-2.996,-2.9811,-3.1888,-3.0766,-3.0216,-3.1137,-3.0855,-3.0468,-3.0074,-2.881,-2.7273,-2.5355,-2.4037,-2.3161,-2.2697,-2.2017,-2.1662,-2.1622,-2.0482,-1.9326,-1.8166,-1.7614,-1.7061,-2.0357,-2.173,-2.1898,-1.3614,-1.3283,-1.3299,-0.6726,-0.6001,-0.652,-0.5748,-0.6774,-0.7587,-0.6868,0.0,0.0,0.0,0.0,0.0,0.0,-0.4531,-0.4574,-0.466,0.0,0.0,0.0,0.0,-1.9941,-2.5704,-2.555,-2.8222,-3.5128,-3.5493,-3.5493,-3.5493,-3.5522,-3.5522,-3.5507,-3.5546,-3.557,-3.5528,-3.555,-3.5574,-3.5574,-3.5574,-3.5574,-3.5574,-3.5574,-3.5574,-3.5574,-3.5574,-3.56,-3.5639,-3.5639,-3.5488,-3.5301,-3.5354,-3.4842,-3.4222,-3.4839,-3.4671,-3.4183,-3.4183,-3.4604,-3.5,-3.4385,-3.4625,-3.5,-3.4414,-3.4473,-3.4512,-3.3633,-3.3633,-3.3711,-3.3125,-3.2598,-3.2109,-3.1749,-3.1142,-3.0934,-3.1863,-3.1688,-3.1568,-3.2106,-3.1807,-3.122,-3.0297,-3.0041,-3.0404,-3.1759,-3.1225,-3.1206,-3.2459,-3.173,-3.1447,-3.2094,-3.1544,-3.0767,-2.9816,-2.8147,-2.6762,-2.5795,-2.4843,-2.4185,-2.382,-2.3599,-2.2888,-2.169,-2.095,-1.9929,-1.8635,-1.7764,-1.7029,-2.3122,-2.4718,-2.493,-1.7254,-1.701,-1.6701,-0.9247,-0.8559,-0.9038,-0.7476,-0.7916,-0.8846,-0.9697,-0.8345,0.0,0.0,0.0,0.0,0.0,-0.4499,-0.4522,0.0,0.0,0.0,0.0,0.0,0.0,0.0,0.0,0.0,0.0,-3.5133,-3.5493,-3.5493,-3.5493,-3.5493,-3.5493,-3.5493,-3.5493,-3.5493,-3.5493,-3.5493,-3.5493,-3.5493,-3.5493,-3.5493,-3.5493,-3.5493,-3.5493,-3.5493,-3.5534,-3.5574,-3.5574,-3.559,-3.5639,-3.5682,-3.5373,-3.501,-3.5627,-3.5461,-3.4993,-3.4993,-3.5389,-3.5779,-3.5162,-3.5412,-3.5784,-3.5218,-3.5257,-3.5279,-3.4485,-3.4487,-3.4528,-3.3984,-3.3456,-3.2967,-3.2655,-3.2064,-3.1841,-3.2728,-3.2591,-3.2623,-3.346,-3.2967,-3.222,-3.1415,-3.1367,-3.1752,-3.2635,-3.1959,-3.18,-3.291,-3.2075,-3.1648,-3.2033,-3.143,-3.0579,-2.9452,-2.8207,-2.7095,-2.6195,-2.5678,-2.5301,-2.5058,-2.4838,-2.4004,-2.2609,-2.1836,-2.0649,-1.9127,-1.8123,-1.7313]},{"header":{"parameterUnit":"m.s-1","parameterCategory":1,"la1":30.6,"la2":29.2853,"lo1":-89.7004,"lo2":-87.6739,"dx":0.0162,"dy":0.0183,"nx":112,"ny":82,"refTime":"2022-12-08T06:00:00:Z","depth":0,"parameterNumber":3,"parameterNumberName":"V-component_of_WINDS"},"data":[0.0,0.0,0.0,0.0,0.0,0.0,0.0,0.0,0.0,0.0,0.0,0.0,0.0,0.0,0.0,0.0,0.0,0.0,0.0,0.0,0.0,0.0,0.0,0.0,0.0,0.0,0.0,0.0,0.0,0.0,0.0,0.0,0.0,0.0,0.0,0.0,0.0,0.0,0.0,0.0,0.0,0.0,0.0,0.0,0.0,0.0,0.0,0.0,0.0,0.0,0.0,0.0,0.0,0.0,0.0,0.0,0.0,0.0,0.0,0.0,0.0,0.0,0.0,0.0,0.0,0.0,0.0,0.0,0.0,0.0,0.0,0.0,0.0,0.0,0.0,0.0,0.0,0.0,0.0,0.0,0.0,0.0,0.0,0.0,0.0,0.0,0.0,0.0,0.0,0.0,-1.8076,-2.0137,-2.1505,-2.231,-2.231,-2.231,-2.1025,-1.7997,0.0,0.0,0.0,0.0,0.0,0.0,0.0,0.0,0.0,0.0,0.0,0.0,0.0,0.0,0.0,0.0,0.0,0.0,0.0,0.0,0.0,0.0,0.0,0.0,0.0,0.0,0.0,0.0,0.0,0.0,0.0,0.0,0.0,0.0,0.0,0.0,0.0,0.0,0.0,0.0,0.0,0.0,0.0,0.0,0.0,0.0,0.0,0.0,0.0,0.0,0.0,0.0,0.0,0.0,0.0,0.0,0.0,0.0,0.0,0.0,0.0,0.0,0.0,0.0,0.0,0.0,0.0,0.0,0.0,0.0,0.0,0.0,0.0,0.0,0.0,0.0,0.0,0.0,0.0,0.0,0.0,0.0,0.0,0.0,0.0,0.0,0.0,0.0,0.0,0.0,0.0,0.0,0.0,0.0,0.0,0.0,0.0,0.0,0.0,0.0,0.0,0.0,0.0,0.0,-1.6775,-2.1437,-2.2175,-2.231,-2.231,-2.231,-2.1025,-1.7997,0.0,0.0,0.0,0.0,0.0,0.0,0.0,0.0,0.0,0.0,0.0,0.0,0.0,0.0,0.0,0.0,0.0,0.0,0.0,0.0,0.0,0.0,0.0,0.0,0.0,0.0,0.0,0.0,0.0,0.0,0.0,0.0,0.0,0.0,0.0,0.0,0.0,0.0,0.0,0.0,0.0,0.0,0.0,0.0,0.0,0.0,0.0,0.0,0.0,0.0,0.0,0.0,0.0,0.0,0.0,0.0,0.0,0.0,0.0,0.0,0.0,0.0,0.0,0.0,0.0,0.0,0.0,0.0,0.0,0.0,0.0,0.0,0.0,0.0,0.0,0.0,0.0,0.0,0.0,0.0,0.0,0.0,0.0,0.0,0.0,0.0,0.0,0.0,0.0,0.0,0.0,0.0,0.0,0.0,0.0,0.0,0.0,0.0,0.0,0.0,0.0,0.0,0.0,-1.8369,-1.8437,-2.2479,-2.2547,-2.2462,-2.2868,-2.2547,-2.1025,-1.7997,-1.6194,0.0,0.0,0.0,0.0,0.0,0.0,0.0,0.0,0.0,0.0,0.0,0.0,0.0,0.0,0.0,0.0,0.0,0.0,0.0,0.0,0.0,0.0,0.0,0.0,0.0,0.0,0.0,0.0,0.0,0.0,0.0,0.0,0.0,0.0,0.0,0.0,0.0,0.0,0.0,0.0,0.0,0.0,0.0,0.0,0.0,0.0,0.0,0.0,0.0,0.0,0.0,0.0,0.0,0.0,0.0,0.0,0.0,0.0,0.0,0.0,0.0,0.0,0.0,0.0,0.0,0.0,0.0,0.0,0.0,0.0,0.0,0.0,0.0,0.0,0.0,0.0,0.0,0.0,0.0,0.0,0.0,0.0,0.0,0.0,0.0,0.0,0.0,0.0,0.0,0.0,0.0,0.0,0.0,0.0,0.0,0.0,0.0,0.0,0.0,0.0,0.0,0.0,-1.9452,-2.1092,-2.341,-2.3308,-2.3241,-2.3613,-2.3139,-2.1465,-1.8268,-1.6316,0.0,0.0,0.0,0.0,0.0,0.0,0.0,0.0,0.0,0.0,0.0,0.0,0.0,0.0,0.0,0.0,0.0,0.0,0.0,0.0,0.0,0.0,0.0,0.0,0.0,0.0,0.0,0.0,0.0,0.0,0.0,0.0,0.0,0.0,0.0,0.0,0.0,0.0,0.0,0.0,0.0,0.0,0.0,0.0,0.0,0.0,0.0,0.0,0.0,0.0,0.0,0.0,0.0,0.0,0.0,0.0,0.0,0.0,0.0,0.0,0.0,0.0,0.0,0.0,0.0,0.0,0.0,0.0,0.0,0.0,0.0,0.0,0.0,0.0,0.0,0.0,0.0,0.0,0.0,0.0,0.0,0.0,0.0,0.0,0.0,0.0,0.0,0.0,0.0,0.0,0.0,0.0,0.0,0.0,0.0,0.0,0.0,0.0,0.0,0.0,0.0,0.0,-2.1102,-2.4201,-2.4404,-2.4983,-2.5118,-2.4489,-2.4388,-2.2779,-1.9046,-1.7522,0.0,0.0,0.0,0.0,0.0,0.0,0.0,0.0,0.0,0.0,0.0,0.0,0.0,0.0,0.0,0.0,0.0,0.0,0.0,0.0,0.0,0.0,0.0,0.0,0.0,0.0,0.0,0.0,0.0,0.0,0.0,0.0,0.0,0.0,0.0,0.0,0.0,0.0,0.0,0.0,0.0,0.0,0.0,0.0,0.0,0.0,0.0,0.0,0.0,0.0,0.0,0.0,0.0,0.0,0.0,0.0,0.0,0.0,0.0,0.0,0.0,0.0,0.0,0.0,0.0,0.0,0.0,0.0,0.0,0.0,0.0,0.0,0.0,0.0,0.0,0.0,0.0,0.0,0.0,0.0,0.0,0.0,0.0,0.0,0.0,0.0,0.0,0.0,0.0,0.0,0.0,0.0,0.0,0.0,0.0,0.0,0.0,0.0,0.0,0.0,0.0,0.0,-2.1143,-2.4323,-2.571,-2.571,-2.549,-2.5203,-2.4746,-2.2682,-1.8488,0.0,0.0,0.0,0.0,0.0,0.0,0.0,0.0,0.0,0.0,0.0,0.0,0.0,0.0,0.0,0.0,0.0,0.0,0.0,0.0,0.0,0.0,0.0,0.0,0.0,0.0,0.0,0.0,0.0,0.0,0.0,0.0,0.0,0.0,0.0,0.0,0.0,0.0,0.0,0.0,0.0,0.0,0.0,0.0,0.0,0.0,0.0,0.0,0.0,0.0,0.0,0.0,0.0,0.0,0.0,0.0,0.0,0.0,0.0,0.0,0.0,0.0,0.0,0.0,0.0,0.0,0.0,0.0,0.0,0.0,0.0,0.0,0.0,0.0,0.0,0.0,0.0,0.0,0.0,0.0,0.0,0.0,0.0,0.0,0.0,0.0,0.0,0.0,0.0,0.0,0.0,0.0,0.0,0.0,0.0,0.0,0.0,0.0,0.0,0.0,0.0,0.0,-1.8318,-2.226,-2.5744,-2.7266,-2.6979,-2.659,-2.6336,-2.5609,-2.3202,-1.8523,0.0,0.0,0.0,0.0,0.0,0.0,0.0,0.0,0.0,0.0,0.0,0.0,0.0,0.0,0.0,0.0,0.0,0.0,0.0,0.0,0.0,0.0,0.0,0.0,0.0,0.0,0.0,0.0,0.0,0.0,0.0,0.0,0.0,0.0,0.0,0.0,0.0,0.0,0.0,0.0,0.0,0.0,0.0,0.0,0.0,0.0,0.0,0.0,0.0,0.0,0.0,0.0,0.0,0.0,0.0,0.0,0.0,0.0,0.0,0.0,0.0,0.0,0.0,0.0,0.0,0.0,0.0,0.0,0.0,0.0,0.0,0.0,0.0,0.0,0.0,0.0,0.0,0.0,0.0,0.0,0.0,0.0,0.0,0.0,0.0,0.0,0.0,0.0,0.0,0.0,0.0,0.0,0.0,0.0,0.0,0.0,0.0,0.0,0.0,0.0,0.0,0.0,-1.9012,-2.4831,-2.9045,-2.8991,-2.8991,-2.867,-2.7892,-2.7131,-2.452,0.0,0.0,0.0,0.0,0.0,0.0,0.0,0.0,0.0,0.0,0.0,0.0,0.0,0.0,0.0,0.0,0.0,0.0,0.0,0.0,0.0,0.0,0.0,0.0,0.0,0.0,0.0,0.0,0.0,0.0,0.0,0.0,0.0,0.0,0.0,0.0,0.0,0.0,0.0,0.0,0.0,0.0,0.0,0.0,0.0,0.0,0.0,0.0,0.0,0.0,0.0,0.0,0.0,0.0,0.0,0.0,0.0,0.0,0.0,0.0,0.0,0.0,0.0,0.0,0.0,0.0,0.0,0.0,0.0,0.0,0.0,0.0,0.0,0.0,0.0,0.0,0.0,0.0,0.0,0.0,0.0,0.0,0.0,0.0,0.0,0.0,0.0,0.0,0.0,0.0,0.0,0.0,0.0,0.0,0.0,0.0,0.0,0.0,0.0,0.0,0.0,0.0,0.0,-2.0467,-2.6387,-3.0345,-2.9837,-2.9786,-2.9245,-2.7891,-2.7621,-2.4876,-1.8711,0.0,0.0,0.0,0.0,0.0,0.0,0.0,0.0,0.0,0.0,0.0,0.0,0.0,0.0,0.0,0.0,0.0,0.0,0.0,0.0,0.0,0.0,0.0,0.0,0.0,0.0,0.0,0.0,0.0,0.0,0.0,0.0,0.0,0.0,0.0,0.0,0.0,0.0,0.0,0.0,0.0,0.0,0.0,0.0,0.0,0.0,0.0,0.0,0.0,0.0,0.0,0.0,0.0,0.0,0.0,0.0,0.0,0.0,0.0,0.0,0.0,0.0,0.0,0.0,0.0,0.0,0.0,0.0,0.0,0.0,0.0,0.0,0.0,0.0,0.0,0.0,0.0,0.0,0.0,0.0,0.0,0.0,0.0,0.0,0.0,0.0,0.0,0.0,0.0,0.0,0.0,0.0,0.0,0.0,0.0,0.0,0.0,0.0,0.0,0.0,0.0,0.0,-2.1187,-2.7046,-3.1021,-3.0598,-3.0294,-2.9617,-2.8383,-2.7994,-2.5488,-2.0123,0.0,0.0,0.0,0.0,0.0,0.0,0.0,0.0,0.0,0.0,0.0,0.0,0.0,0.0,0.0,0.0,0.0,0.0,0.0,0.0,0.0,0.0,0.0,0.0,0.0,0.0,0.0,0.0,0.0,0.0,0.0,0.0,0.0,0.0,0.0,0.0,0.0,0.0,0.0,0.0,0.0,0.0,0.0,0.0,0.0,0.0,0.0,0.0,0.0,0.0,0.0,0.0,0.0,0.0,0.0,0.0,0.0,0.0,0.0,0.0,0.0,0.0,0.0,0.0,0.0,0.0,0.0,0.0,0.0,0.0,0.0,0.0,0.0,0.0,0.0,0.0,0.0,0.0,0.0,0.0,0.0,0.0,0.0,0.0,0.0,0.0,0.0,0.0,0.0,0.0,0.0,0.0,0.0,0.0,0.0,0.0,0.0,0.0,0.0,0.0,0.0,0.0,-2.138,-2.7097,-3.119,-3.119,-3.0598,-2.9905,-2.9144,-2.8469,-2.6536,-2.2867,0.0,0.0,0.0,0.0,0.0,0.0,0.0,0.0,0.0,0.0,0.0,0.0,0.0,0.0,0.0,0.0,0.0,0.0,0.0,0.0,0.0,0.0,0.0,0.0,0.0,0.0,0.0,0.0,0.0,0.0,0.0,0.0,0.0,0.0,0.0,0.0,0.0,0.0,0.0,0.0,0.0,0.0,0.0,0.0,0.0,0.0,0.0,0.0,0.0,0.0,0.0,0.0,0.0,0.0,0.0,0.0,0.0,0.0,0.0,0.0,-0.8814,-0.6657,0.0,0.0,0.0,0.0,0.0,0.0,0.0,0.0,0.0,0.0,0.0,0.0,0.0,0.0,0.0,0.0,0.0,0.0,0.0,0.0,0.0,0.0,0.0,0.0,0.0,0.0,0.0,0.0,0.0,0.0,0.0,0.0,0.0,0.0,0.0,0.0,0.0,0.0,0.0,0.0,-2.209,-2.7402,-3.119,-3.119,-3.1055,-3.0666,-2.9939,-3.0,-2.8276,-2.4042,-2.3864,0.0,0.0,0.0,0.0,0.0,0.0,0.0,0.0,0.0,0.0,0.0,0.0,0.0,0.0,0.0,0.0,0.0,0.0,0.0,0.0,0.0,0.0,0.0,0.0,0.0,0.0,0.0,0.0,0.0,0.0,0.0,0.0,0.0,0.0,0.0,0.0,0.0,0.0,0.0,0.0,0.0,0.0,0.0,0.0,0.0,0.0,0.0,0.0,0.0,0.0,0.0,0.0,0.0,0.0,0.0,0.0,0.0,0.0,0.0,-1.1417,-0.9968,0.0,0.0,0.0,0.0,0.0,0.0,0.0,0.0,0.0,0.0,0.0,0.0,0.0,0.0,0.0,0.0,0.0,0.0,0.0,0.0,0.0,0.0,0.0,0.0,0.0,0.0,0.0,0.0,0.0,0.0,0.0,0.0,0.0,0.0,0.0,0.0,0.0,0.0,0.0,0.0,-2.2361,-2.752,-3.119,-3.119,-3.119,-3.0903,-3.0176,-3.0486,-2.9414,-2.6365,-2.5518,0.0,0.0,0.0,0.0,0.0,0.0,0.0,0.0,0.0,0.0,0.0,0.0,0.0,0.0,0.0,0.0,0.0,0.0,0.0,0.0,0.0,0.0,0.0,0.0,0.0,0.0,0.0,0.0,0.0,0.0,0.0,0.0,0.0,0.0,0.0,0.0,0.0,0.0,0.0,0.0,0.0,0.0,0.0,0.0,0.0,0.0,0.0,0.0,0.0,0.0,0.0,0.0,0.0,-1.3058,-1.3631,-1.4082,-1.4374,-1.5028,-1.5847,-1.4337,-1.3885,-1.4009,-1.114,0.0,0.0,0.0,0.0,0.0,0.0,0.0,0.0,0.0,0.0,0.0,0.0,0.0,0.0,0.0,0.0,0.0,0.0,0.0,0.0,0.0,0.0,-1.6668,-1.9213,-2.1275,-2.2019,-1.9502,0.0,0.0,0.0,0.0,0.0,0.0,0.0,0.0,0.0,0.0,0.0,-2.3139,-2.7824,-3.119,-3.119,-3.119,-3.0954,-3.0345,-3.0747,-3.0367,-2.8789,-2.6242,-2.5426,0.0,0.0,0.0,0.0,0.0,0.0,0.0,0.0,0.0,0.0,0.0,0.0,0.0,0.0,0.0,0.0,0.0,0.0,0.0,0.0,0.0,0.0,0.0,0.0,0.0,0.0,0.0,0.0,0.0,0.0,0.0,0.0,-0.7776,-0.8099,0.0,0.0,0.0,0.0,0.0,0.0,0.0,0.0,0.0,0.0,0.0,0.0,0.0,-1.1602,-1.2177,-1.3392,-1.4232,-1.4798,-1.6979,-1.8289,-1.8806,-1.9403,-1.9812,-1.9913,-1.9133,0.0,-1.4727,-1.3808,0.0,0.0,0.0,0.0,0.0,0.0,0.0,0.0,0.0,0.0,0.0,0.0,0.0,0.0,0.0,0.0,0.0,0.0,0.0,0.0,0.0,0.0,-2.1566,-2.4704,-2.5237,-2.5356,-2.6482,-2.2556,-1.9383,-2.1282,-1.7067,-1.1248,0.0,0.0,0.0,0.0,0.0,0.0,-2.5913,-2.9093,-3.119,-3.119,-3.119,-3.1157,-3.1055,-3.1811,-3.1573,-2.999,-2.9919,-2.8316,-2.4798,-2.6033,0.0,0.0,0.0,0.0,0.0,0.0,0.0,0.0,0.0,0.0,0.0,0.0,0.0,0.0,0.0,0.0,0.0,0.0,0.0,0.0,0.0,0.0,0.0,0.0,0.0,0.0,0.0,0.0,0.0,-0.7263,-0.8256,-0.8079,-0.7942,-0.7256,0.0,0.0,0.0,0.0,0.0,0.0,0.0,0.0,0.0,-1.2491,-1.3688,-1.4756,-1.5652,-1.7169,-1.8044,-1.8288,-1.9703,-2.0483,-2.0717,-2.1019,-2.1129,-2.1117,-2.0865,-1.9924,-1.8455,-1.6703,-1.4538,-1.226,0.0,0.0,0.0,0.0,-1.1203,-1.203,-1.371,-1.5195,-1.659,-1.8084,0.0,0.0,0.0,0.0,0.0,0.0,0.0,-1.6084,-1.9869,-2.1276,-2.2591,-2.6192,-2.682,-2.7142,-2.8968,-2.7268,-2.5172,-2.4349,-2.4103,-2.1312,-1.2618,-1.3464,0.0,0.0,0.0,-2.527,-2.6539,-2.933,-3.119,-3.119,-3.119,-3.119,-3.119,-3.1986,-3.1812,-3.0211,-3.0774,-2.988,-2.7013,-2.6293,-2.4247,0.0,0.0,0.0,0.0,0.0,0.0,0.0,0.0,0.0,0.0,0.0,0.0,0.0,0.0,0.0,0.0,0.0,0.0,0.0,0.0,0.0,0.0,0.0,0.0,0.0,0.0,0.0,0.0,-0.8148,-0.8983,-0.8326,-0.8984,-0.8755,0.0,0.0,0.0,0.0,0.0,0.0,-1.1845,-1.2971,-1.4161,-1.5297,-1.6478,-1.7577,-1.8515,-1.9952,-2.0794,-2.0932,-2.1443,-2.1782,-2.1907,-2.1757,-2.1694,-2.1694,-2.1543,-2.1493,-2.1317,-1.912,-1.7282,-1.5671,-1.4878,-1.3967,-1.3187,-1.4327,-1.5186,-1.6145,-1.8433,-1.9567,-2.0049,-2.0519,-2.0292,-2.0039,-2.099,0.0,0.0,0.0,0.0,-1.6952,-1.975,-2.1455,-2.3345,-2.6917,-2.7627,-2.7948,-2.9686,-2.9871,-2.9029,-2.6657,-2.8907,-2.8518,-2.0128,-2.1769,0.0,-2.0264,-2.3122,-2.615,-2.7655,-2.9803,-3.119,-3.119,-3.119,-3.119,-3.119,-3.1986,-3.1812,-3.0211,-3.0912,-3.0687,-2.9067,-2.6704,-2.6172,-2.775,0.0,0.0,0.0,0.0,0.0,0.0,0.0,0.0,0.0,0.0,0.0,0.0,0.0,0.0,0.0,0.0,0.0,0.0,0.0,0.0,0.0,0.0,0.0,0.0,0.0,0.0,0.0,0.0,0.0,-0.9826,-1.0746,0.0,0.0,0.0,0.0,-1.3623,-1.3796,-1.417,-1.4942,-1.6011,-1.6989,-1.7876,-1.9031,-1.9622,-1.9709,-2.0363,-2.0983,-2.1455,-2.2008,-2.2548,-2.2977,-2.251,-2.2272,-2.2234,-2.1719,-2.1493,-2.1443,-2.0819,-1.9535,-1.8071,-1.8192,-1.6849,-1.5146,-1.746,-1.7969,-1.7796,-2.0175,-2.0999,-2.1139,-2.1815,-2.0642,-1.8984,-1.9027,-1.7978,0.0,0.0,-1.9899,-2.1171,-2.4418,-2.4881,-2.5123,-2.7812,-2.7938,-2.7873,-2.9157,-2.8793,-2.8731,-3.0538,-3.1038,-2.9905,-2.5845,0.0,-2.5456,-2.5253,-2.5439,-2.6911,-3.0497,-3.1106,-3.119,-3.119,-3.119,-3.119,-3.119,-3.1986,-3.1812,-3.0211,-3.0912,-3.0687,-2.9067,-2.8828,-2.7402,-2.4502,-2.7034,0.0,0.0,0.0,0.0,0.0,0.0,0.0,0.0,0.0,0.0,0.0,0.0,0.0,0.0,0.0,0.0,0.0,0.0,0.0,0.0,0.0,0.0,0.0,0.0,0.0,0.0,0.0,0.0,-1.1743,-1.2947,0.0,-1.2533,-1.3345,-1.4313,-1.5316,-1.6812,-1.779,-1.8096,-1.9169,-1.9977,-2.0308,-2.0669,-2.0891,-2.0891,-2.1443,-2.1832,-2.202,-2.2573,-2.2877,-2.3065,-2.2924,-2.2836,-2.2824,-2.2636,-2.2347,-2.2033,-2.2184,-2.1493,-2.0391,-2.0781,-2.0744,-2.0473,-2.0983,-2.2076,-2.3363,-2.3839,-2.4564,-2.533,-2.5565,-2.5118,-2.4356,-2.3467,-2.2827,-2.2413,-2.2248,-2.3011,-2.4133,-2.5315,-2.6063,-2.6886,-2.8198,-2.8325,-2.8373,-2.9223,-2.9459,-2.9725,-3.0476,-3.0163,-2.8873,-2.6082,-2.7604,-2.8383,-2.5964,-2.7672,-2.9685,-3.1021,-3.119,-3.119,-3.119,-3.119,-3.1291,-3.1565,-3.1861,-3.1614,-3.0594,-3.0838,-3.0418,-2.9067,-2.8994,-2.8443,-2.731,-2.8407,-2.6557,0.0,0.0,0.0,0.0,0.0,0.0,0.0,0.0,0.0,0.0,0.0,0.0,0.0,0.0,0.0,0.0,0.0,0.0,0.0,0.0,0.0,0.0,0.0,0.0,0.0,-1.1328,-1.3265,-1.251,-1.4549,-1.5695,-1.4898,-1.617,-1.7428,-1.841,-1.9764,-2.0568,-2.0568,-2.1145,-2.1493,-2.1493,-2.1493,-2.1493,-2.1493,-2.2033,-2.2309,-2.2322,-2.2874,-2.3078,-2.3078,-2.3078,-2.3078,-2.3078,-2.3078,-2.2924,-2.2623,-2.2927,-2.2711,-2.2058,-2.2509,-2.2959,-2.3305,-2.2787,-2.3803,-2.5436,-2.5541,-2.6436,-2.7625,-2.7625,-2.7625,-2.741,-2.6542,-2.6273,-2.6078,-2.5196,-2.5585,-2.6273,-2.6273,-2.6916,-2.771,-2.8091,-2.8319,-2.8606,-2.8996,-2.9717,-3.0293,-3.0293,-3.0012,-2.9245,-2.7757,-2.955,-3.026,-2.7537,-2.9448,-3.1106,-3.0869,-3.1055,-3.119,-3.119,-3.119,-3.1329,-3.1565,-3.1115,-3.0861,-3.0945,-3.0225,-2.9664,-2.9415,-2.8374,-2.7809,-2.7853,-2.7853,-2.5649,-2.1149,0.0,0.0,0.0,0.0,0.0,0.0,0.0,0.0,0.0,0.0,0.0,0.0,0.0,0.0,0.0,0.0,0.0,0.0,0.0,0.0,0.0,0.0,0.0,-0.8957,-1.1859,-1.3563,-1.2213,-1.5487,-1.782,-1.7861,-1.9563,-2.1299,-2.299,-2.2636,-2.2334,-2.2334,-2.1832,-2.1543,-2.1543,-2.1543,-2.1543,-2.1543,-2.2071,-2.2334,-2.2347,-2.2874,-2.3078,-2.3078,-2.3078,-2.3078,-2.3078,-2.3078,-2.3065,-2.3053,-2.3065,-2.3065,-2.311,-2.3293,-2.3379,-2.3316,-2.2906,-2.3027,-2.3671,-2.5061,-2.644,-2.7625,-2.7625,-2.7625,-2.7625,-2.7625,-2.7625,-2.7625,-2.7625,-2.7625,-2.7625,-2.7625,-2.7625,-2.7625,-2.7625,-2.8042,-2.8463,-2.8527,-2.9451,-3.0293,-3.0309,-3.0797,-3.119,-3.119,-3.119,-3.0954,-3.0243,-3.0734,0.0,-3.0243,-3.0768,-3.119,-3.1157,-3.1157,-3.1196,-3.1179,-2.9848,-2.9647,-3.1243,-2.9184,-2.8613,-3.0136,-2.72,-2.561,-2.5708,-2.5579,-2.4238,-2.1644,0.0,0.0,0.0,0.0,0.0,0.0,0.0,0.0,0.0,0.0,0.0,0.0,0.0,0.0,0.0,0.0,0.0,0.0,0.0,0.0,0.0,-0.9968,-1.1837,-1.2209,-1.36,-1.4952,-1.5938,-1.6968,-1.8199,-1.9557,-2.0662,-2.1773,-2.299,-2.2927,-2.2852,-2.2852,-2.2761,-2.2686,-2.2686,-2.2686,-2.2686,-2.2686,-2.2836,-2.2852,-2.2852,-2.3002,-2.3078,-2.3078,-2.3078,-2.3078,-2.3078,-2.3078,-2.2912,-2.2573,-2.2915,-2.2899,-2.256,-2.3035,-2.3856,-2.4681,-2.3567,-2.39,-2.5126,-2.652,-2.7259,-2.7625,-2.7625,-2.7625,-2.7625,-2.7625,-2.7625,-2.7625,-2.7625,-2.7625,-2.7625,-2.7625,-2.7625,-2.7625,-2.7625,-2.771,-2.7944,-2.8431,-2.9088,-2.9761,-3.0208,-3.0797,-3.119,-3.119,-3.119,-3.1123,-3.092,-3.1072,-3.1123,-3.092,-3.1072,-3.1004,-3.0463,-3.0629,-3.094,-3.1304,-3.0923,-3.1105,-3.2173,-3.1365,-3.0646,-3.0204,-2.9347,-2.8617,-2.807,-2.5203,-2.4875,0.0,0.0,0.0,0.0,0.0,0.0,0.0,0.0,0.0,0.0,0.0,0.0,0.0,0.0,0.0,0.0,0.0,0.0,0.0,0.0,0.0,0.0,-1.1416,-1.3451,-1.4646,-1.5205,-1.615,-1.7779,-1.8126,-1.9023,-2.0976,-2.1501,-2.2083,-2.3027,-2.3078,-2.3078,-2.3078,-2.3078,-2.3078,-2.3078,-2.3078,-2.3078,-2.3078,-2.3078,-2.3078,-2.3078,-2.3078,-2.3078,-2.3078,-2.3078,-2.3078,-2.3078,-2.3078,-2.289,-2.2686,-2.294,-2.2949,-2.2661,0.0,0.0,0.0,0.0,-2.43,-2.5294,-2.6645,-2.7357,-2.7625,-2.7625,-2.7625,-2.7625,-2.7625,-2.7625,-2.7625,-2.7625,-2.7625,-2.7625,-2.7625,-2.7625,-2.7625,-2.7625,-2.781,-2.8091,-2.8415,-2.918,-2.9892,-3.0208,-3.0797,0.0,-3.119,-3.119,-3.1089,-3.0784,-3.1004,-3.1089,-3.0784,-3.1004,-3.1038,-3.0615,-3.0893,-3.122,-3.1529,-3.0973,0.0,0.0,0.0,-3.0279,-2.9255,-2.892,0.0,0.0,0.0,-2.6581,-3.0622,-2.7669,0.0,0.0,-2.8687,-2.7005,0.0,0.0,0.0,0.0,0.0,0.0,0.0,0.0,0.0,0.0,0.0,0.0,0.0,0.0,0.0,0.0,-1.2636,-1.463,-1.6218,-1.6493,-1.7005,-1.8235,-1.8703,-1.978,-2.1827,-2.1886,-2.2127,-2.2884,-2.3078,-2.3078,-2.2944,-2.3078,0.0,0.0,0.0,-2.3078,-2.3078,-2.3078,-2.3078,-2.3078,-2.3078,-2.3078,-2.3078,-2.3078,-2.3078,-2.3078,-2.3078,-2.3078,-2.3078,-2.3078,-2.3078,-2.3088,-2.2715,-2.2757,-2.3185,-2.4118,-2.45,-2.4799,-2.6083,0.0,0.0,-2.7625,-2.7625,-2.7625,-2.7625,-2.7625,-2.7625,-2.7625,-2.7625,-2.7625,-2.7625,-2.7625,-2.7625,-2.7625,-2.7993,-2.8415,-2.8463,-2.9361,-3.0123,-3.0251,-3.074,-3.1112,-3.119,-3.119,-3.097,-3.0328,-3.0784,-3.0954,-3.0311,-3.0801,-3.1157,-3.1072,-3.1482,0.0,-3.1758,-3.0635,-3.0884,-3.3128,-3.0841,-2.909,-2.8374,-2.7677,-2.7606,-2.8172,-2.7624,-2.8929,-3.2185,-3.2185,-3.249,-3.2949,-2.8409,-2.7505,0.0,0.0,0.0,0.0,0.0,0.0,0.0,0.0,0.0,0.0,0.0,0.0,0.0,0.0,0.0,-1.1028,-1.3654,-1.578,-1.6158,-1.6485,-1.6859,-1.7391,-1.7821,-1.8635,-2.0224,-2.0862,-2.1463,-2.2089,-2.2763,-2.2823,-2.2199,-2.2763,-2.3078,-2.3078,-2.3078,-2.3078,-2.3078,-2.3078,-2.3078,-2.3078,-2.3078,0.0,-2.3078,-2.3078,-2.3078,-2.3078,-2.3078,-2.3078,-2.3078,-2.3078,-2.3078,-2.3125,-2.3709,-2.3559,-2.3245,-2.4667,-2.5204,-2.5342,-2.6187,-2.6982,-2.7625,-2.7625,-2.7625,-2.7625,-2.7625,-2.7625,0.0,-2.7625,-2.7625,-2.7625,-2.7625,-2.7625,-2.7625,-2.7625,-2.766,-2.791,-2.8367,-2.8701,-2.9134,-3.0123,-3.0377,-3.0617,-3.1112,-3.119,-3.114,-3.1004,-3.1106,-3.114,-3.1004,-3.1106,-3.097,-3.0378,-3.0959,-3.1432,-3.1464,-3.1823,-3.2509,-3.3607,-3.2562,-3.1843,-3.1678,-3.0913,-3.057,-3.0687,-3.0588,-3.1073,-3.2185,-3.2185,-3.2794,-3.391,-3.2929,-3.2737,0.0,0.0,0.0,0.0,0.0,0.0,0.0,0.0,0.0,0.0,0.0,-0.8039,-0.8857,0.0,-1.2391,-1.3019,-1.4996,-1.6396,-1.6396,-1.6777,-1.7282,-1.7832,-1.7707,-1.8333,-2.0113,-2.021,-2.0437,-2.1215,-2.2002,-2.2322,-2.1939,-2.2628,-2.3078,-2.3078,-2.3078,-2.3078,-2.3078,-2.3078,-2.3078,-2.3078,-2.3078,-2.3078,-2.3078,-2.3078,-2.3078,-2.3078,-2.3078,-2.3078,-2.3078,-2.3078,-2.3078,-2.3125,-2.3531,-2.3424,-2.3245,-2.4394,-2.4851,-2.4951,-2.5673,-2.6162,-2.6534,-2.693,-2.7034,-2.71,-2.7509,-2.7625,-2.7625,-2.7625,-2.7625,-2.7625,-2.7625,-2.7625,-2.7625,-2.7625,-2.7625,-2.766,-2.7993,-2.8286,-2.8701,-2.9271,-2.9908,-3.0393,-3.0699,-3.1015,-3.119,-3.119,-3.119,-3.119,-3.119,-3.119,-3.1055,-3.0683,-3.1394,-3.1933,-3.1933,-3.2734,-3.3366,-3.377,-3.3421,-3.3036,-3.2632,-3.1825,-3.1586,-3.199,-3.1604,-3.1977,-3.3208,-3.3371,-3.3863,-3.4653,-3.4793,-3.4853,0.0,0.0,0.0,0.0,0.0,0.0,0.0,-0.668,-0.7507,-0.9777,-1.0418,-1.0827,-1.1644,-1.2887,-1.4099,-1.4961,-1.6056,-1.6855,-1.6855,-1.7236,-1.7754,-1.8431,-1.7941,-1.8268,-2.016,-1.9683,-1.9562,-2.0268,-2.1302,-2.1815,-2.169,-2.2567,-2.3078,-2.3078,-2.3078,-2.3078,-2.3078,-2.3078,-2.3078,-2.3078,-2.3078,-2.3078,-2.3078,-2.3078,-2.3078,-2.3078,-2.3078,-2.3078,-2.3078,-2.3078,-2.3078,-2.3078,-2.3078,-2.3078,-2.3198,-2.3826,-2.4176,-2.4408,-2.4951,-2.5287,-2.5508,-2.6068,-2.6404,-2.6616,-2.7203,-2.7509,-2.7625,-2.7625,-2.7625,-2.7625,-2.7625,-2.7625,-2.7625,-2.7625,-2.7625,-2.7625,-2.7625,-2.7993,-2.8383,-2.8463,-2.9271,-3.0021,-3.0251,-3.0699,-3.1055,-3.119,-3.119,-3.119,-3.119,-3.119,-3.119,-3.119,-3.1878,-3.2451,-3.2616,-3.3343,-3.3807,-3.3807,-3.3807,-3.3513,-3.2871,-3.221,-3.2173,-3.2834,-3.2192,-3.2644,-3.42,-3.4529,-3.4851,-3.5105,-3.5369,-3.5493,-0.3166,-0.359,-0.464,-0.4721,-0.6457,-0.8558,0.0,-1.0864,-1.1679,-1.274,-1.2964,-1.3024,-1.3152,-1.4123,-1.4961,-1.5099,-1.6367,-1.7314,-1.7314,-1.7676,-1.7939,-1.8065,-1.8007,-1.8345,-1.9365,-1.9365,-1.9365,-1.9431,-2.0974,-2.1553,-2.0782,-2.2249,-2.3078,-2.3078,-2.3078,-2.3078,-2.3078,-2.3078,-2.3078,-2.3078,-2.3078,-2.3078,-2.3078,-2.3078,-2.3078,-2.3078,-2.3078,-2.3078,-2.3078,-2.3078,-2.3078,-2.3078,-2.3078,-2.3078,-2.3138,-2.3198,-2.3708,-2.4292,-2.4408,-2.4851,-2.5398,-2.5508,-2.596,-2.651,-2.6616,-2.7086,-2.7625,-2.7625,-2.7625,-2.7625,-2.7625,-2.7625,-2.7625,-2.7625,-2.7625,-2.7625,-2.7625,-2.766,-2.786,-2.8383,-2.8606,-2.9042,-3.0123,-3.0351,-3.0559,-3.1112,-3.119,-3.119,-3.119,-3.119,-3.119,-3.119,-3.1603,-3.223,-3.3045,-3.355,-3.3807,-3.3807,-3.3807,-3.3752,-3.3678,-3.3587,-3.3568,-3.366,-3.3587,-3.3769,-3.42,-3.4529,-3.4851,-3.5105,-3.5369,-3.5493,-0.6713,-0.6367,-0.6203,-0.7139,-0.8312,-0.9596,-1.1161,-1.1792,-1.2692,-1.4848,-1.53,-1.5374,-1.5677,-1.6119,-1.652,-1.6758,-1.7301,-1.7744,-1.7744,-1.79,-1.8008,-1.8008,-1.8008,-1.8134,-1.8529,-1.8519,-1.8519,-1.8519,-1.9694,-2.0462,-2.059,-2.1741,-2.2628,-2.3078,-2.3078,-2.3078,-2.3078,-2.3078,-2.3078,-2.3078,-2.3078,-2.3078,-2.3078,-2.3078,-2.3078,-2.3078,-2.3078,-2.3078,-2.3078,-2.3078,-2.3078,-2.3078,-2.3078,-2.3078,-2.3078,-2.3078,-2.3305,-2.359,-2.359,-2.3813,-2.4163,-2.4624,-2.4951,-2.5398,-2.6229,-2.6721,-2.7034,-2.7458,-2.7625,-2.7625,-2.7625,-2.7625,-2.7625,-2.7625,-2.7625,-2.7625,-2.7625,-2.7625,-2.766,-2.7944,-2.8286,-2.8779,-2.9629,-3.0081,-3.0518,-3.1112,-3.119,-3.119,-3.119,-3.119,-3.1291,-3.1528,-3.1933,-3.2484,-3.3136,-3.3578,-3.3807,-3.3807,-3.3807,-3.3587,-3.3128,-3.3109,-3.3109,-3.3109,-3.2632,-3.2912,-3.3961,-3.4467,-3.5001,-3.559,-3.6511,-3.6949,-0.7958,-0.7769,-0.7535,-0.8965,-1.0001,-1.1023,-1.249,-1.3097,-1.3941,-1.6205,-1.6876,-1.7113,-1.7149,-1.7416,-1.7656,-1.7959,-1.8008,-1.8008,-1.8008,-1.8008,-1.8008,-1.8008,-1.8008,-1.8008,-1.8008,-1.8008,-1.8008,-1.8008,-1.8787,-1.9562,-2.0204,-2.1302,-2.2199,-2.2763,-2.3005,-2.3078,-2.3078,-2.3078,-2.3078,-2.3078,-2.3078,-2.3078,-2.3078,-2.3078,-2.3078,-2.3078,-2.3078,-2.3078,-2.3078,-2.3078,-2.3078,-2.3078,-2.3078,-2.3078,-2.3078,-2.3078,-2.3078,-2.3078,-2.3078,-2.3078,-2.3198,-2.3767,-2.4118,-2.4509,-2.5783,-2.6336,-2.6669,-2.7408,-2.7625,-2.7625,-2.7625,-2.7625,-2.7625,-2.7625,-2.7625,-2.7625,-2.7625,-2.7625,-2.7625,-2.7625,-2.7944,-2.8511,-2.9271,-2.9761,-3.0293,-3.1095,-3.119,-3.119,-3.119,-3.119,-3.1329,-3.1603,-3.2039,-3.2517,-3.2983,-3.319,-3.3351,-3.3476,-3.3256,-3.2981,-3.2614,-3.2394,-3.2375,-3.2614,-3.1806,-3.1971,-3.3128,-3.3955,-3.464,-3.5244,-3.6651,-3.718,-0.4714,-0.6138,-0.7693,-0.9269,-1.1622,-1.3807,-1.4852,-1.5835,-1.6486,-1.6591,-1.7316,-1.7687,-1.6757,-1.7345,-1.7998,-1.8008,-1.8008,-1.8008,-1.8008,-1.8008,-1.8008,-1.8008,-1.8008,-1.8008,-1.8008,-1.8008,-1.8008,-1.8008,-1.8787,-1.9299,-1.9365,-2.0985,-2.1877,-2.1939,-2.2702,-2.3078,-2.3078,-2.3078,-2.3078,-2.3078,-2.3078,-2.3078,-2.3078,-2.3078,-2.3078,-2.3078,-2.3078,-2.3078,-2.3078,-2.3078,-2.3078,-2.3078,-2.3078,-2.3078,-2.3078,-2.3078,-2.3078,-2.3078,-2.3078,-2.3078,-2.3078,-2.3138,-2.3649,-2.4452,-2.5175,-2.596,-2.6669,-2.7408,-2.7625,-2.7625,-2.7625,-2.7625,-2.7625,-2.7625,-2.7625,-2.7625,-2.7625,-2.7625,-2.7625,-2.7625,-2.761,-2.7978,-2.918,-2.9406,-2.9805,-3.1015,-3.119,-3.119,-3.119,-3.119,-3.119,-3.123,-3.1565,-3.1986,-3.2484,-3.2222,-3.2236,-3.2625,-3.1898,-3.1806,-3.2577,-3.1843,-3.1806,-3.2596,-3.1806,-3.1403,-3.1476,-3.2812,-3.345,-3.3526,-3.491,-3.5122,-0.6323,-0.7829,-0.9307,-1.1014,-1.2074,-1.3025,-1.3954,-1.445,-1.4871,-1.5508,-1.5608,-1.546,-1.5117,-1.5858,-1.6468,-1.6468,-1.735,-1.8008,-1.8008,-1.8008,-1.8008,-1.8008,-1.8008,-1.8008,-1.8008,-1.8008,-1.8008,-1.8008,-1.8269,-1.8721,-1.9299,-1.9879,-2.0719,-2.1877,-2.2125,-2.2322,-2.2322,-2.2823,-2.2823,-2.2322,-2.2823,-2.3078,-2.3078,-2.3078,-2.3078,-2.3078,-2.3078,-2.3078,-2.3078,-2.3078,-2.3078,-2.3078,-2.3078,-2.3078,-2.3078,-2.3078,-2.3078,-2.3078,-2.3078,-2.3078,-2.3078,-2.3078,-2.3305,-2.3649,-2.4452,-2.5175,-2.5892,-2.6654,-2.7203,-2.7625,-2.7625,-2.7625,-2.7625,-2.7625,-2.7625,-2.7625,-2.7625,-2.7625,-2.7625,-2.7625,-2.7625,-2.786,-2.8638,-2.9134,-2.9805,-3.1015,-3.119,-3.119,-3.119,-3.119,-3.119,-3.119,-3.1842,-3.235,-3.2484,-3.2931,-3.3013,-3.2625,-3.2357,-3.2082,-3.1806,-3.1531,-3.1513,-3.1806,-3.0999,-3.087,-3.1384,-3.262,-3.3554,-3.4319,-3.6077,-3.683,-0.781,-0.9038,-1.014,-1.1859,-1.2305,-1.2519,-1.3455,-1.3673,-1.3882,-1.4522,-1.4351,-1.4013,-1.3697,-1.4251,-1.4746,-1.4881,-1.578,-1.6665,-1.7235,-1.735,-1.7475,-1.792,-1.8008,-1.8008,-1.8008,-1.8008,-1.8008,-1.8008,-1.8008,-1.8269,-1.8787,-1.911,-1.9814,-2.091,-2.129,-2.171,-2.2163,-2.2481,-2.2567,-2.2322,-2.2823,-2.3078,-2.3078,-2.3078,-2.3078,-2.3078,-2.3078,-2.3078,-2.3078,-2.3078,-2.3078,-2.3078,-2.3078,-2.3078,-2.3078,-2.3078,-2.3078,-2.3078,-2.3078,-2.3078,-2.3078,-2.3078,-2.3078,-2.3245,-2.406,-2.4624,-2.5231,-2.6229,-2.6826,-2.7255,-2.7509,-2.7625,-2.7625,-2.7625,-2.7625,-2.7625,-2.7625,-2.7625,-2.7625,-2.7625,-2.7625,-2.781,-2.8383,-2.918,-3.0081,-3.1055,-3.119,-3.119,-3.119,-3.119,-3.119,-3.119,-3.1694,-3.2162,-3.2484,-3.2493,-3.2374,-3.2184,-3.1641,-3.1219,-3.098,-3.0705,-3.0797,-3.1384,-3.0613,-3.0595,-3.1384,-3.2525,-3.3425,-3.412,-3.5894,-3.6793,-0.8893,-0.9739,-1.0231,-1.1879,-1.2305,-1.2519,-1.3455,-1.36,-1.3578,-1.3512,-1.3597,-1.3296,-1.2348,-1.2603,-1.3081,-1.3288,-1.3749,-1.4504,-1.5957,-1.62,-1.6624,-1.7881,-1.8008,-1.8008,-1.8008,-1.8008,-1.8008,-1.8008,-1.8008,-1.8008,-1.8008,-1.8787,-1.9243,-1.9341,-2.0107,-2.1247,-2.2521,-2.2013,-2.2187,-2.2944,-2.2944,-2.2944,-2.2944,-2.3005,-2.3005,-2.3005,-2.3078,-2.3078,-2.3017,-2.3017,-2.3078,-2.3078,-2.3065,-2.3078,-2.3078,-2.3078,-2.3078,-2.3078,-2.3078,-2.3078,-2.3078,-2.3078,-2.3078,-2.3245,-2.4002,-2.4292,-2.4567,-2.6014,-2.6404,-2.6616,-2.7357,-2.756,-2.756,-2.7575,-2.7625,-2.7625,-2.7625,-2.7625,-2.7625,-2.7625,-2.7625,-2.781,-2.8415,-2.9496,-3.0477,-3.1095,-3.119,-3.119,-3.119,-3.119,-3.119,-3.119,-3.123,-3.1562,-3.2384,-3.1073,-3.0534,-3.1334,-2.991,-2.9402,-3.0118,-2.942,-2.9751,-3.1311,-3.0595,-3.0595,-3.1384,-3.2455,-3.2985,-3.303,-3.4434,-3.5088,-0.9612,-1.0743,-1.1759,-1.2211,-1.2305,-1.2372,-1.2592,-1.2666,-1.2411,-1.1584,-1.1023,-1.0351,-0.8973,-1.0844,-1.2569,-1.2442,-1.4974,-1.7035,-1.7456,-1.7484,-1.7668,-1.793,-1.8008,-1.8008,-1.8008,-1.8008,-1.8008,-1.8008,-1.8008,-1.8008,-1.8008,-1.8202,-1.8738,-1.9724,-1.9927,-2.0261,-2.0582,-2.0183,-2.0398,-2.1227,-2.1227,-2.1227,-2.1227,-2.1939,-2.1877,-2.129,-2.2567,-2.2763,-2.2199,-2.2199,-2.2567,-2.3065,-2.2445,-2.2567,-2.3078,-2.3078,-2.3078,-2.3078,-2.3078,-2.3078,-2.3078,-2.3078,-2.3078,-2.3125,-2.3365,-2.3826,-2.4408,-2.4738,-2.5231,-2.5837,-2.6602,-2.6774,-2.693,-2.7458,-2.7625,-2.7625,-2.7625,-2.7625,-2.7625,-2.7625,-2.7625,-2.7944,-2.8996,-2.9406,-2.9995,-3.1055,-3.119,-3.119,-3.119,-3.119,-3.119,-3.119,-3.147,-3.1733,-3.1951,-3.1679,-3.1366,-3.0975,-3.0301,-2.9732,-2.9305,-2.9104,-2.9475,-3.0485,-3.0301,-3.0595,-3.1384,-3.2268,-3.2791,-3.3026,-3.4237,-3.4908,-1.0728,-1.1585,-1.2305,-1.2305,-1.2305,-1.2131,-1.1345,-1.123,-1.0855,-0.9343,-0.8657,-0.7976,-0.708,-0.9196,-1.1107,-1.1073,-1.3927,-1.6401,-1.7101,-1.7158,-1.7359,-1.792,-1.8008,-1.8008,-1.8008,-1.8174,-1.8281,-1.8281,-1.8115,-1.8086,-1.8271,-1.8281,-1.8686,-1.9586,-1.9676,-1.9715,-1.9912,-2.0325,-2.0555,-2.059,-2.059,-2.059,-2.059,-2.1112,-2.1037,-2.0655,-2.1604,-2.1741,-2.1365,-2.1365,-2.1616,-2.199,-2.1491,-2.1815,-2.2567,-2.2567,-2.2823,-2.3078,-2.3078,-2.3078,-2.3078,-2.3078,-2.3078,-2.3078,-2.3078,-2.3424,-2.3826,-2.4176,-2.4624,-2.5063,-2.5837,-2.6283,-2.6616,-2.7034,-2.7357,-2.7625,-2.7625,-2.7625,-2.7625,-2.7625,-2.7625,-2.7894,-2.881,-2.9225,-2.9717,-3.0658,-3.1015,-3.119,-3.119,-3.119,-3.119,-3.119,-3.1411,-3.1603,-3.1789,-3.1426,-3.1058,-3.0818,-3.0079,-2.9475,-2.9012,-2.8994,-2.9549,-3.0705,-3.0723,-3.1292,-3.2449,-3.2908,-3.3213,-3.3376,-3.428,-3.4774,-1.1952,-1.2305,-1.2305,-1.2305,-1.2305,-1.1852,-1.011,-0.9831,-0.93,-0.7278,-0.654,-0.6167,-0.5945,-0.7679,-0.929,-0.9738,-1.2061,-1.438,-1.5927,-1.6178,-1.6594,-1.7823,-1.8008,-1.8037,-1.8086,-1.8418,-1.8662,-1.8721,-1.8389,-1.834,-1.8701,-1.8721,-1.8916,-1.9355,-1.9316,-1.9451,-1.9799,-2.095,-2.1084,-2.0268,-2.0268,-2.0268,-2.0268,-2.0398,-2.0333,-2.0268,-2.0526,-2.0526,-2.0398,-2.0398,-2.0526,-2.059,-2.059,-2.1101,-2.1877,-2.1877,-2.2384,-2.3065,-2.3005,-2.3017,-2.3078,-2.3078,-2.3078,-2.3078,-2.3078,-2.3078,-2.3258,-2.3943,-2.4118,-2.4279,-2.5063,-2.5783,-2.6404,-2.6457,-2.7034,-2.7625,-2.7625,-2.7625,-2.7625,-2.7625,-2.7625,-2.781,-2.8383,-2.8904,-2.9496,-3.0208,-3.0757,-3.1112,-3.119,-3.119,-3.119,-3.119,-3.119,-3.1351,-3.1696,-3.0677,-3.0198,-3.0592,-2.9541,-2.8929,-2.8929,-2.9062,-2.9824,-3.1201,-3.1347,-3.2082,-3.3476,-3.3476,-3.3476,-3.3503,-3.4214,-3.4524,-1.2245,-1.2305,-1.2305,-1.2305,-1.2305,-1.1834,-1.0231,-0.9818,-0.8959,-0.6346,-0.5625,-0.5268,-0.4514,-0.65,-0.8586,-0.9612,-1.2061,-1.441,-1.6237,-1.6528,-1.6908,-1.7852,-1.8008,-1.8144,-1.8496,-1.8594,-1.8789,-1.915,-1.9102,-1.9092,-1.917,-1.918,-1.9365,-1.9795,-1.9473,-1.9321,-1.9387,-1.8944,-1.8612,-1.8462,-1.8462,-1.8462,-1.8462,-1.9177,-1.911,-1.8529,-1.9944,-2.0204,-1.9562,-1.9562,-1.9944,-2.059,-2.059,-2.1101,-2.1877,-2.1877,-2.2384,-2.3005,-2.2322,-2.2567,-2.3078,-2.3078,-2.3078,-2.3078,-2.3078,-2.3078,-2.3138,-2.3245,-2.3305,-2.3484,-2.4279,-2.5063,-2.5728,-2.6336,-2.7034,-2.7625,-2.7625,-2.7625,-2.7625,-2.7625,-2.7625,-2.781,-2.8383,-2.8606,-2.9042,-3.0123,-3.0393,-3.0658,-3.1151,-3.119,-3.119,-3.119,-3.119,-3.123,-3.1291,-3.0246,-2.9655,-2.9721,-2.8959,-2.8496,-2.8496,-2.946,-3.0118,-3.0393,-3.1054,-3.1531,-3.1806,-3.1806,-3.1806,-3.185,-3.3056,-3.3639,-1.2305,-1.2305,-1.2305,-1.2305,-1.2305,-1.1609,-0.9014,-0.8453,-0.7512,-0.4264,-0.3684,-0.3649,-0.3148,-0.5497,-0.7764,-0.852,-1.1831,-1.4506,-1.5072,-1.6391,-1.7285,-1.7285,-1.7908,-1.8418,-1.8553,-1.9033,-1.9385,-1.96,-1.9824,-1.9853,-1.9629,-1.9834,-2.0049,-2.0244,-1.9834,-1.9512,-1.9287,-1.8652,-1.8223,-1.8008,-1.8008,-1.8008,-1.8008,-1.8462,-1.8405,-1.8076,-1.8844,-1.8977,-1.8586,-1.8586,-1.8854,-1.9243,-1.9243,-1.9759,-2.0526,-2.0526,-2.1101,-2.1741,-2.1365,-2.1741,-2.2506,-2.2506,-2.2763,-2.3078,-2.3078,-2.3078,-2.3078,-2.3078,-2.3078,-2.3198,-2.3603,-2.4553,-2.5508,-2.5837,-2.6759,-2.7625,-2.7625,-2.7625,-2.7625,-2.7625,-2.7625,-2.766,-2.7993,-2.8286,-2.8701,-2.9271,-2.9629,-3.0038,-3.0658,-3.074,-3.0838,-3.1151,-3.119,-3.119,-3.119,-3.0516,-2.9903,-2.9505,-2.9189,-2.8845,-2.8412,-2.9162,-2.9769,-3.0191,-3.098,-3.1384,-3.1384,-3.1825,-3.1806,-3.1427,-3.2195,-3.286,-1.2198,-1.2305,-1.2305,-1.2305,-1.2305,-1.1405,-0.7927,-0.7185,-0.6231,-0.2605,-0.2064,-0.2287,-0.2295,-0.4464,-0.6497,-0.7255,-1.0704,-1.3374,-1.3899,-1.5677,-1.6973,-1.6872,-1.7537,-1.8137,-1.8529,-1.9142,-1.9715,-2.0049,-2.0371,-2.042,-2.0078,-2.0293,-2.042,-2.042,-1.9912,-1.9482,-1.915,-1.8721,-1.833,-1.8008,-1.8008,-1.8008,-1.8008,-1.8008,-1.8008,-1.8008,-1.8008,-1.8008,-1.8008,-1.8008,-1.8008,-1.8008,-1.8202,-1.8721,-1.9299,-1.9299,-1.9814,-2.059,-2.0398,-2.1037,-2.1877,-2.1877,-2.2445,-2.3078,-2.3078,-2.3078,-2.3078,-2.3078,-2.3078,-2.3078,-2.3078,-2.4163,-2.5231,-2.5563,-2.6654,-2.7625,-2.7625,-2.7625,-2.7625,-2.7625,-2.7625,-2.7625,-2.7625,-2.7993,-2.8319,-2.8463,-2.8996,-2.9629,-3.0208,-3.0435,-3.0658,-3.1151,-3.119,-3.114,-3.097,-3.0546,-2.9936,-2.9162,-2.9135,-2.8873,-2.8308,-2.8821,-2.9478,-3.0191,-3.098,-3.1311,-3.1127,-3.1788,-3.1678,-3.0889,-3.1333,-3.2004,-1.2005,-1.2305,-1.2305,-1.2305,-1.2305,-1.1394,-0.8057,-0.7191,-0.6133,-0.2689,-0.1912,-0.202,-0.2559,-0.3105,-0.4174,-0.6363,-0.7504,-0.9626,-1.3844,-1.3998,-1.4695,-1.732,-1.6773,-1.6767,-1.8217,-1.8393,-1.9056,-2.0401,-2.0547,-2.0547,-2.0508,-2.0166,-1.9971,-1.9971,-1.918,-1.873,-1.8691,-1.8281,-1.8047,-1.8008,-1.8008,-1.8008,-1.8008,-1.8008,-1.8008,-1.8008,-1.8008,-1.8008,-1.8008,-1.8008,-1.8008,-1.8076,-1.8854,-1.9243,-1.9299,-1.9299,-1.9814,-2.0462,-1.9694,-2.0526,-2.1877,-2.1877,-2.2445,-2.3078,-2.3078,-2.3078,-2.3078,-2.3078,-2.3078,-2.3078,-2.3078,-2.3767,-2.4738,-2.6068,-2.7034,-2.7625,-2.7625,-2.7625,-2.7625,-2.7625,-2.7625,-2.7625,-2.7625,-2.7675,-2.786,-2.8415,-2.8996,-2.9629,-3.0208,-3.0797,-3.1151,-3.119,-3.119,-3.092,-3.026,-2.9536,-2.881,-2.7995,-2.7681,-2.763,-2.7926,-2.8973,-2.9748,-3.0191,-3.098,-3.1035,-3.032,-3.0393,-3.0008,-2.9237,-3.0256,-3.076,-1.1919,-1.2305,-1.2305,-1.2305,-1.1605,-1.0299,-0.7774,-0.6429,-0.5042,-0.2422,-0.1847,-0.1864,-0.2107,-0.255,-0.3239,-0.4418,-0.6044,-0.7754,-0.9606,-1.138,-1.2995,-1.4359,-1.5196,-1.612,-1.7252,-1.7542,-1.8224,-1.9511,-1.9599,-1.9923,-2.0566,-2.0146,-1.9912,-1.9912,-1.9082,-1.8562,-1.8562,-1.8223,-1.8008,-1.8008,-1.8008,-1.8008,-1.8008,-1.8008,-1.8008,-1.8008,-1.8008,-1.8008,-1.8008,-1.8008,-1.8008,-1.8008,-1.8405,-1.8529,-1.8529,-1.8529,-1.8721,-1.8977,-1.8664,-1.9299,-2.0398,-2.0974,-2.1353,-2.1803,-2.2811,-2.3078,-2.3078,-2.3078,-2.3078,-2.3078,-2.3078,-2.3708,-2.4567,-2.5563,-2.639,-2.693,-2.693,-2.7306,-2.7625,-2.7625,-2.7625,-2.7625,-2.7625,-2.7625,-2.766,-2.7894,-2.8448,-2.9104,-2.9673,-3.0293,-3.0797,-3.1151,-3.119,-3.0903,-3.0176,-2.9837,-2.9127,-2.7857,-2.7909,-2.7927,-2.7915,-2.8524,-2.9062,-2.9452,-3.0265,-3.0283,-2.9494,-2.9971,-2.9787,-2.9017,-2.9447,-2.9972,-1.1352,-1.2018,-1.2305,-1.2305,-1.1146,-0.9512,-0.755,-0.5935,-0.4236,-0.2208,-0.1803,-0.1803,-0.1803,-0.2142,-0.2624,-0.3214,-0.4819,-0.6298,-0.7247,-0.9399,-1.1163,-1.1855,-1.3135,-1.4385,-1.5567,-1.6661,-1.7658,-1.8479,-1.8479,-1.8789,-1.959,-1.9411,-1.9418,-1.9727,-1.9023,-1.8504,-1.8457,-1.8154,-1.8008,-1.8008,-1.8008,-1.8008,-1.8008,-1.8008,-1.8008,-1.8008,-1.8008,-1.8008,-1.8008,-1.8008,-1.8008,-1.8008,-1.8008,-1.8008,-1.8008,-1.8008,-1.8008,-1.8008,-1.8008,-1.8586,-1.9431,-2.0333,-2.0782,-2.1227,-2.2689,-2.2944,-2.2823,-2.3005,-2.3078,-2.3078,-2.3078,-2.3708,-2.4452,-2.4951,-2.5783,-2.651,-2.651,-2.7086,-2.7625,-2.7625,-2.7625,-2.7625,-2.7625,-2.7625,-2.7625,-2.7625,-2.8271,-2.8919,-2.9361,-3.0064,-3.0657,-3.0847,-3.0869,-3.0581,-2.9837,-2.9567,-2.8873,-2.7571,-2.7725,-2.7889,-2.7886,-2.8129,-2.8598,-2.9342,-2.9916,-2.9934,-2.9365,-2.9934,-2.9787,-2.8994,-2.8994,-2.9433,-1.003,-1.1352,-1.2305,-1.2305,-1.1073,-0.9419,-0.7508,-0.5797,-0.4083,-0.2182,-0.1803,-0.1803,-0.1803,-0.1806,-0.2144,-0.3134,-0.3586,-0.4963,-0.8213,-0.8626,-0.9225,-1.0734,-1.0617,-1.1185,-1.3133,-1.5732,-1.7342,-1.7334,-1.7334,-1.7334,-1.7334,-1.7595,-1.8239,-1.9297,-1.8867,-1.8437,-1.8018,-1.8008,-1.8008,-1.8008,-1.8008,-1.8008,-1.8008,-1.8008,-1.8008,-1.8008,-1.8008,-1.8008,-1.8008,-1.8008,-1.8008,-1.8008,-1.8008,-1.8008,-1.8008,-1.8008,-1.8008,-1.8008,-1.8008,-1.8586,-1.9431,-2.0333,-2.1175,-2.2075,-2.2884,-2.2567,-2.2075,-2.2884,-2.3078,-2.3078,-2.3078,-2.3708,-2.4292,-2.4292,-2.5453,-2.651,-2.651,-2.7086,-2.7625,-2.7625,-2.7625,-2.7625,-2.7625,-2.7625,-2.7625,-2.7625,-2.8622,-2.9406,-2.9406,-3.0435,-3.092,-3.0192,-3.0125,-2.982,-2.9059,-2.8281,-2.752,-2.6759,-2.6708,-2.7051,-2.7869,-2.7897,-2.8613,-3.0149,-3.021,-3.021,-3.0191,-3.021,-2.9787,-2.8994,-2.8994,-2.9156,-0.8235,-0.89,-0.9259,-0.9078,-0.7868,-0.6541,-0.5599,-0.4233,-0.2893,-0.1997,-0.1803,-0.1803,-0.1803,-0.1803,-0.2037,-0.2765,-0.2972,-0.3633,-0.536,-0.69,-0.8375,-0.9756,-1.1717,-1.3187,-1.3777,-1.4641,-1.5387,-1.6108,-1.6191,-1.6409,-1.6962,-1.7122,-1.7506,-1.8165,-1.8222,-1.8144,-1.8008,-1.8008,-1.8008,-1.8008,-1.8008,-1.8008,-1.8008,-1.8008,-1.8008,-1.8008,-1.8008,-1.8008,-1.8008,-1.8008,-1.8008,-1.8008,-1.8008,-1.8008,-1.8008,-1.8008,-1.8008,-1.8008,-1.8008,-1.8202,-1.8529,-1.9431,-1.989,-2.0398,-2.1865,-2.2506,-2.2763,-2.3005,-2.3078,-2.3078,-2.3078,-2.3305,-2.3484,-2.3484,-2.4667,-2.5728,-2.5728,-2.6707,-2.7625,-2.7625,-2.7625,-2.7625,-2.7625,-2.7625,-2.7625,-2.7625,-2.8271,-2.8904,-2.9361,-3.0081,-3.0657,-3.083,-2.9939,-2.9025,-2.8264,-2.796,-2.7503,-2.6742,-2.6691,-2.7051,-2.7869,-2.7897,-2.838,-2.936,-2.936,-2.936,-2.936,-2.936,-2.9255,-2.8994,-2.8994,-2.9062,-0.6411,-0.7242,-0.7723,-0.7518,-0.6293,-0.5038,-0.4669,-0.3405,-0.2215,-0.1875,-0.1803,-0.1803,-0.1803,-0.1803,-0.1947,-0.2357,-0.2476,-0.304,-0.4595,-0.6268,-0.7949,-0.9675,-1.1865,-1.316,-1.316,-1.3721,-1.4412,-1.5061,-1.5137,-1.5233,-1.5617,-1.5866,-1.6333,-1.6885,-1.7429,-1.7603,-1.7501,-1.7794,-1.8008,-1.8008,-1.8008,-1.8008,-1.8008,-1.8008,-1.8008,-1.8008,-1.8008,-1.8008,0.0,-1.8008,-1.8008,-1.8008,-1.8008,-1.8008,-1.8008,-1.8008,-1.8008,-1.8008,-1.8008,-1.8008,-1.8134,-1.9044,-1.9497,-2.0009,-2.1112,-2.2187,-2.3078,-2.3078,-2.3078,-2.3078,-2.3078,-2.3078,-2.3078,-2.3078,-2.4047,-2.4951,-2.4951,-2.6162,-2.7188,-2.7188,-2.7408,-2.7625,-2.7625,-2.7625,-2.7625,-2.7625,-2.8091,-2.8654,-2.8996,-2.9585,-3.0093,-3.0396,-2.9386,-2.8417,-2.7857,-2.7554,-2.7199,-2.6725,-2.6691,-2.6987,-2.7666,-2.7811,-2.8174,-2.8749,-2.8929,-2.8994,-2.8994,-2.8994,-2.8994,-2.8994,-2.8994,-2.8994,0.0,-0.6074,-0.7165,-0.7132,-0.5895,-0.4641,-0.4458,-0.3177,0.0,-0.1837,-0.1803,-0.1809,-0.1833,-0.1816,-0.1868,-0.2042,-0.2167,-0.3092,-0.5486,-0.6724,-0.8246,-1.041,-1.1353,-1.1887,-1.1887,-1.3261,-1.4088,-1.4088,-1.4068,-1.3928,-1.3627,-1.4173,-1.4759,-1.5373,-1.6404,-1.6884,-1.6715,-1.7501,-1.794,-1.8008,-1.8008,-1.8008,-1.8008,-1.8008,-1.8008,-1.8008,-1.8008,-1.8008,-1.8008,-1.8008,-1.8008,-1.8008,-1.8008,-1.8008,-1.8008,-1.8008,-1.8008,-1.8008,-1.8008,-1.8008,-1.8134,-1.9044,-1.9814,-2.0526,-2.059,-2.1741,-2.3005,-2.3005,-2.3078,-2.3078,-2.3078,-2.3078,-2.3078,-2.3078,-2.3708,-2.4292,-2.4292,-2.5453,-2.651,-2.651,-2.71,-2.7625,-2.7625,-2.7625,-2.7625,-2.7625,-2.8091,-2.8463,-2.8511,-2.9012,-2.9327,-2.9272,-2.8556,-2.8025,-2.7889,-2.7165,-2.6691,-2.6691,-2.6691,-2.6873,-2.7286,-2.7648,-2.802,-2.8368,-2.8749,-2.8952,-2.8994,-2.8994,-2.8994,-2.8994,-2.8994,-2.8994,-0.2367,0.0,-0.3788,-0.35,-0.3139,-0.2789,0.0,-0.2291,-0.1967,-0.1837,-0.1803,-0.1855,-0.206,-0.194,-0.2005,-0.2598,-0.2727,-0.3509,-0.5798,-0.873,-1.1248,-1.2994,-1.3395,-1.352,-1.352,-1.3878,-1.4088,-1.4088,-1.3874,-1.3621,-1.3327,-1.3246,-1.3154,-1.3065,-1.3996,-1.5539,-1.7647,-1.7207,-1.7285,-1.8008,-1.8008,-1.8008,-1.8008,-1.8008,-1.8008,-1.8008,-1.8008,-1.8008,-1.8008,-1.8008,-1.8008,-1.8008,-1.8008,-1.8008,-1.8008,-1.8008,-1.8008,-1.8008,-1.8008,-1.8008,-1.8134,-1.9044,-1.9431,-1.9748,-2.0398,-2.1365,-2.2199,-2.2199,-2.2641,-2.3078,-2.3078,-2.3078,-2.3078,-2.3078,-2.3708,-2.4292,-2.4292,-2.5453,-2.651,-2.651,-2.71,-2.7625,-2.7625,-2.7625,-2.7625,-2.7625,-2.771,-2.8008,-2.8415,-2.8606,-2.9071,-2.9978,-2.8869,-2.8279,-2.8685,-2.7469,-2.6691,-2.6691,-2.6691,-2.6873,-2.7286,-2.7378,-2.7619,-2.7992,-2.8342,-2.8682,-2.8994,-2.8994,-2.8994,-2.8994,-2.8994,-2.8994,-0.1283,-0.1968,-0.2642,-0.2479,-0.2388,-0.2316,-0.2259,-0.2052,-0.1882,-0.182,-0.1803,-0.1854,-0.1998,-0.2062,-0.2228,-0.2516,-0.3505,-0.4978,-0.7173,-0.9449,-1.1461,-1.2927,-1.3118,-1.3419,-1.4075,-1.4088,-1.4088,-1.4088,-1.3941,-1.3661,-1.3233,-1.3053,-1.2981,-1.2966,-1.3025,-1.4019,-1.6018,-1.6009,-1.6219,-1.6724,-1.7148,-1.7148,-1.6724,-1.7579,-1.7794,-1.7364,-1.7794,-1.8008,-1.8008,-1.8008,-1.8008,-1.8008,-1.8008,-1.8008,-1.8008,-1.8008,-1.8008,-1.8008,-1.8008,-1.8008,-1.8076,-1.8529,-1.8721,-1.8787,-1.9233,-2.0009,-2.0782,-2.1175,-2.1939,-2.2567,-2.2567,-2.2823,-2.3078,-2.3078,-2.3424,-2.3767,-2.3767,-2.4951,-2.6014,-2.6014,-2.6864,-2.7625,-2.7625,-2.7625,-2.7625,-2.7625,-2.7625,-2.771,-2.8042,-2.8091,-2.8543,-2.9761,-2.8858,-2.8418,-2.8955,-2.7892,-2.7063,-2.6708,-2.6691,-2.6808,-2.7036,-2.721,-2.756,-2.8129,-2.8316,-2.859,-2.8994,-2.8994,-2.8994,-2.8994,-2.8994,-2.8994,-0.0818,-0.1744,-0.2673,-0.252,-0.2479,-0.2438,-0.239,-0.2081,-0.1803,-0.1803,-0.1823,-0.1868,-0.1961,-0.2273,-0.251,-0.2418,-0.4545,-0.6958,-0.9092,-1.0027,-1.0959,-1.2073,-1.2304,-1.2875,-1.3977,-1.4088,-1.4068,-1.4021,-1.3975,-1.3714,-1.3166,-1.31,-1.3209,-1.3477,-1.2732,-1.2666,-1.3455,-1.445,-1.5021,-1.5234,-1.6009,-1.5939,-1.5234,-1.6872,-1.7148,-1.6428,-1.7364,-1.7794,-1.7794,-1.794,-1.8008,-1.8008,-1.8008,-1.8008,-1.8008,-1.8008,-1.8008,-1.8008,-1.8008,-1.8008,-1.8008,-1.8008,-1.8008,-1.8008,-1.8008,-1.8529,-1.9243,-2.0009,-2.1037,-2.1877,-2.1877,-2.2506,-2.3078,-2.3078,-2.3078,-2.3078,-2.3078,-2.4208,-2.5231,-2.5231,-2.6428,-2.7408,-2.7408,-2.7524,-2.7625,-2.7625,-2.7625,-2.7625,-2.7625,-2.7625,-2.8042,-2.9134,-2.8589,-2.8408,-2.8992,-2.8171,-2.7432,-2.6911,-2.6759,-2.6691,-2.6691,-2.7036,-2.7542,-2.8219,-2.8272,-2.8515,-2.8905,-2.8952,-2.8994,-2.8994,-2.8994,-2.8994,-0.0479,-0.1637,-0.265,-0.1745,-0.1888,-0.2177,-0.1967,-0.1854,-0.1803,-0.1803,-0.1886,-0.213,-0.2642,-0.2686,-0.284,-0.3293,-0.6081,-0.8862,-1.0875,-1.2489,-1.3554,-1.3774,-1.382,-1.3866,-1.4082,-1.4088,-1.3981,-1.3734,-1.348,-1.3193,-1.2916,-1.2579,-1.2472,-1.2519,-1.2378,-1.2372,-1.2519,-1.3455,-1.4378,-1.5234,-1.5376,-1.5376,-1.5234,-1.5517,-1.5517,-1.5446,-1.6428,-1.6784,-1.6853,-1.7647,-1.8008,-1.8008,-1.8008,-1.8008,-1.8008,-1.8008,-1.8008,-1.8008,-1.8008,-1.8008,-1.8008,-1.8008,-1.8008,-1.8008,-1.8008,-1.8076,-1.8202,-1.8327,-2.0074,-2.1877,-2.1877,-2.2506,-2.3078,-2.3078,-2.3078,-2.3078,-2.3078,-2.3826,-2.4452,-2.4452,-2.5673,-2.6669,-2.6669,-2.7203,-2.7625,-2.7625,-2.7625,-2.7625,-2.7625,-2.7625,-2.786,-2.8559,-2.7984,-2.7996,-2.9098,-2.7844,-2.7221,-2.762,-2.7046,-2.6691,-2.6691,-2.6758,-2.6987,-2.747,-2.7794,-2.8156,-2.8496,-2.8839,-2.8994,-2.8994,-2.8994,-2.8994,-0.0179,-0.0989,-0.1813,-0.1695,-0.2552,-0.3402,-0.3303,-0.3171,-0.3022,-0.273,-0.2785,-0.2869,-0.2903,-0.3249,-0.423,-0.6456,-0.7721,-0.9151,-1.0942,-1.1324,-1.1673,-1.2305,-1.2456,-1.2856,-1.3519,-1.3754,-1.3794,-1.3572,-1.352,-1.3313,-1.3013,-1.2712,-1.2472,-1.2305,-1.2305,-1.2305,-1.2305,-1.2739,-1.3164,-1.3665,-1.4163,-1.4091,-1.3665,-1.4736,-1.5234,-1.5234,-1.621,-1.6922,-1.7354,-1.7794,-1.8008,-1.8008,-1.8008,-1.8008,-1.8008,-1.8008,-1.8008,-1.8008,-1.8008,-1.8008,-1.8008,-1.8008,-1.8008,-1.8008,-1.8008,-1.8008,-1.8008,-1.8008,-1.9562,-2.1175,-2.1175,-2.2125,-2.3078,-2.3078,-2.3078,-2.3078,-2.3078,-2.3708,-2.4292,-2.4292,-2.5175,-2.6014,-2.6457,-2.6774,-2.7137,-2.7524,-2.7625,-2.7625,-2.7625,-2.7625,-2.781,-2.8431,-2.8185,-2.8042,-2.8174,-2.751,-2.7164,-2.718,-2.6894,-2.6691,-2.6691,-2.6691,-2.6906,-2.7303,-2.747,-2.7833,-2.8394,-2.859,-2.8773,-2.8994,-2.8994,-2.8994,0.0,-0.0519,-0.1214,-0.1775,-0.2815,-0.3843,-0.4311,-0.4088,-0.3791,-0.3581,-0.3701,-0.3673,-0.3293,-0.3822,-0.5357,-0.8494,-0.8568,-0.897,-1.0923,-1.0282,-1.0162,-1.1344,-1.1634,-1.2082,-1.3107,-1.3414,-1.354,-1.354,-1.354,-1.3414,-1.312,-1.2872,-1.2688,-1.2311,-1.2305,-1.2305,-1.2305,-1.2305,-1.2305,-1.2305,-1.3025,-1.3025,-1.2378,-1.3803,-1.4522,-1.4593,-1.55,-1.6358,-1.701,-1.7226,-1.7364,-1.7364,-1.7364,-1.7364,-1.7364,-1.7579,-1.7647,-1.7716,-1.794,-1.8008,-1.8008,-1.8008,-1.8008,-1.8008,-1.8008,-1.8008,-1.8008,-1.8008,-1.911,-2.0268,-2.0268,-2.1542,-2.2823,-2.2823,-2.2944,-2.3078,-2.3078,-2.3603,-2.4002,-2.4002,-2.4624,-2.5398,-2.6122,-2.6404,-2.6774,-2.7509,-2.7625,-2.7625,-2.7625,-2.7625,-2.776,-2.8238,-2.8286,-2.8,-2.7338,-2.7274,-2.7065,-2.6742,-2.6691,-2.6691,-2.6691,-2.6691,-2.6841,-2.7147,-2.7241,-2.7631,-2.829,-2.835,-2.8608,-2.8994,-2.8994,-2.8994,0.0,-0.0747,-0.1554,-0.163,-0.159,-0.1963,-0.3668,-0.3398,-0.304,-0.3797,-0.4199,-0.4348,-0.413,-0.4492,-0.5403,-0.7166,-0.7664,-0.8748,-1.1253,-1.1591,-1.1909,-1.2903,-1.3081,-1.3107,-1.3206,-1.3227,-1.324,-1.324,-1.324,-1.3106,-1.2876,-1.2835,-1.2688,-1.2311,-1.2305,-1.2305,-1.2305,-1.2305,-1.2305,-1.2305,-1.2372,-1.2372,-1.2305,-1.2445,-1.2519,-1.2586,-1.3528,-1.3954,-1.4099,-1.5021,-1.5376,-1.5376,-1.5376,-1.5376,-1.5517,-1.6358,-1.6706,-1.6853,-1.7716,-1.8008,-1.8008,-1.8008,-1.8008,-1.8008,-1.8008,-1.8008,-1.8008,-1.8008,-1.8654,-1.9365,-1.9365,-2.0655,-2.2013,-2.2013,-2.2567,-2.3078,-2.3078,-2.3138,-2.3198,-2.3198,-2.3826,-2.4624,-2.5342,-2.6068,-2.6774,-2.7509,-2.7625,-2.7625,-2.7625,-2.7625,-2.7625,-2.766,-2.766,-2.7542,-2.7227,-2.716,-2.7002,-2.6708,-2.6691,-2.6691,-2.6691,-2.6691,-2.6725,-2.6758,-2.7115,-2.75,-2.7954,-2.8264,-2.8608,-2.8994,-2.8994,-2.8994,0.0,-0.0786,-0.1597,-0.16,-0.1539,-0.2014,-0.401,-0.4258,-0.4227,-0.4856,-0.5155,-0.5223,-0.4986,-0.5739,-0.6631,-0.73,-0.8157,-0.9105,-1.0055,-1.0247,-1.0556,-1.1554,-1.1707,-1.1942,-1.257,-1.2812,-1.2919,-1.2919,-1.31,-1.3073,-1.2842,-1.2822,-1.2688,-1.2311,-1.2305,-1.2305,-1.2305,-1.2305,-1.2305,-1.2305,-1.2305,-1.2305,-1.2305,-1.2305,-1.2592,-1.3171,-1.3528,-1.4027,-1.4665,-1.5021,-1.5234,-1.5234,-1.586,-1.607,-1.621,-1.7139,-1.7501,-1.7501,-1.7862,-1.8008,-1.8008,-1.8008,-1.8008,-1.8008,-1.8008,-1.8008,-1.8008,-1.8008,-1.8269,-1.8586,-1.9177,-2.059,-2.1877,-2.1877,-2.2506,-2.3078,-2.3078,-2.3078,-2.3078,-2.3078,-2.3365,-2.3826,-2.4567,-2.4951,-2.5563,-2.6721,-2.693,-2.6953,-2.6956,-2.6961,-2.6797,-2.6393,-2.5989,-2.5834,-2.6049,-2.5998,-2.602,-2.6243,-2.6556,-2.6691,-2.6691,-2.6691,-2.6691,-2.6691,-2.6841,-2.7115,-2.7547,-2.766,-2.8029,-2.8633,-2.8633,-2.8749,0.0,-0.0544,-0.1174,-0.1497,-0.1583,-0.2151,-0.4246,-0.4591,-0.4714,-0.5626,-0.5803,-0.5739,-0.5538,-0.6216,-0.6829,-0.6952,-0.7763,-0.8466,-0.877,-0.8846,-0.9221,-1.019,-1.034,-1.0571,-1.1323,-1.157,-1.1872,-1.2273,-1.2466,-1.2655,-1.2759,-1.2822,-1.2688,-1.2311,-1.2305,-1.2305,-1.2305,-1.2305,-1.2305,-1.2305,-1.2305,-1.2305,-1.2305,-1.2305,-1.2666,-1.3237,-1.3237,-1.3665,-1.4307,-1.4307,-1.4307,-1.4378,-1.5005,-1.5217,-1.5359,-1.6645,-1.7157,-1.7226,-1.7794,-1.8008,-1.8008,-1.8008,-1.8008,-1.8008,-1.8008,-1.8008,-1.8008,-1.8008,-1.8008,-1.8134,-1.8721,-2.0009,-2.1112,-2.1112,-2.1928,-2.2689,-2.2689,-2.2944,-2.3078,-2.3078,-2.3078,-2.3365,-2.4176,-2.4292,-2.4794,-2.6283,-2.651,-2.6614,-2.6897,-2.6901,-2.6647,-2.5989,-2.5151,-2.488,-2.557,-2.5362,-2.5486,-2.6191,-2.6505,-2.6691,-2.6691,-2.6691,-2.6691,-2.6691,-2.6691,-2.6906,-2.7303,-2.7303,-2.7631,-2.8237,-2.8237,-2.8438,0.0,0.0,-0.0268,-0.1321,-0.1615,-0.2145,-0.4232,-0.4004,-0.3949,-0.5878,-0.602,-0.5803,-0.58,-0.5803,-0.5803,-0.58,-0.6061,-0.6644,-0.7629,-0.7783,-0.8161,-0.915,-0.9296,-0.9296,-0.9296,-0.9296,-0.9845,-1.1093,-1.1194,-1.1658,-1.2739,-1.2746,-1.2612,-1.2311,-1.2305,-1.2305,-1.2298,-1.2298,-1.2298,-1.2305,-1.2305,-1.2305,-1.2305,-1.2305,-1.2305,-1.2305,-1.2305,-1.2305,-1.2305,-1.2305,-1.2305,-1.2305,-1.2305,-1.2298,-1.2519,-1.4522,-1.5234,-1.5446,-1.7295,-1.794,-1.794,-1.8008,-1.8008,-1.8008,-1.8008,-1.8008,-1.8008,-1.8008,-1.8008,-1.8008,-1.8008,-1.8654,-1.9299,-1.9299,-2.0655,-2.1877,-2.1877,-2.2506,-2.3078,-2.3078,-2.3078,-2.3365,-2.4176,-2.4292,-2.4794,-2.6283,-2.6496,-2.6759,-2.7494,-2.7595,-2.729,-2.6632,-2.539,-2.5026,-2.6093,-2.5559,-2.5635,-2.6624,-2.6691,-2.6691,-2.6691,-2.6691,-2.6691,-2.6691,-2.6691,-2.6906,-2.7286,-2.7286,-2.75,-2.7897,-2.7897,-2.8075,0.0,-0.107,-0.2102,-0.1716,-0.272,-0.3944,-0.4574,-0.4518,-0.4688,-0.5993,-0.619,-0.6057,-0.584,-0.5979,-0.6054,-0.5837,-0.6061,-0.6412,-0.6718,-0.6718,-0.7099,-0.8161,-0.8237,-0.8542,-0.9221,-0.9296,-0.9478,-0.985,-1.0004,-1.018,-1.0318,-1.0545,-1.0528,-1.0207,-1.0196,-1.0496,-1.1236,-1.1236,-1.162,-1.2305,-1.2305,-1.2305,-1.2305,-1.2305,-1.2305,-1.2305,-1.2305,-1.2305,-1.2305,-1.2305,-1.2305,-1.2372,-1.3025,-1.331,-1.3455,-1.4736,-1.5234,-1.5305,-1.5869,-1.6018,-1.6158,-1.6784,-1.7001,-1.7139,-1.7794,-1.8008,-1.8008,-1.8008,-1.8008,-1.7939,-1.7646,-1.7757,-1.8213,-1.9104,-2.0139,-2.0974,-2.0974,-2.1164,-2.1542,-2.2125,-2.2261,-2.2506,-2.3292,-2.3484,-2.3989,-2.5508,-2.5336,-2.5114,-2.5458,-2.5495,-2.5241,-2.4552,-2.4133,-2.4182,-2.4864,-2.4742,-2.5089,-2.6139,-2.6227,-2.6367,-2.6691,-2.6691,-2.6691,-2.6691,-2.6691,-2.6758,-2.6873,-2.6873,-2.7083,-2.747,-2.747,-2.7805,0.0035,-0.1214,-0.2479,-0.2263,-0.3487,-0.4815,-0.5231,-0.5334,-0.5555,-0.6203,-0.6338,-0.6203,-0.602,-0.6135,-0.62,-0.6013,-0.6139,-0.6338,-0.6338,-0.6338,-0.649,-0.7099,-0.7176,-0.748,-0.8084,-0.8084,-0.8237,-0.8694,-0.8884,-0.9053,-0.9306,-0.9423,-0.9433,-0.9301,-0.9296,-0.9593,-1.019,-1.019,-1.0496,-1.1099,-1.1099,-1.1099,-1.1174,-1.1929,-1.2305,-1.2305,-1.2305,-1.2305,-1.2305,-1.2305,-1.2305,-1.2378,-1.2952,-1.3171,-1.3237,-1.4235,-1.4593,-1.4665,-1.5092,-1.5446,-1.5869,-1.6419,-1.6853,-1.7285,-1.7862,-1.8008,-1.8008,-1.8008,-1.8008,-1.7949,-1.7695,-1.751,-1.7573,-1.8339,-1.9083,-1.9624,-1.9746,-1.9954,-2.033,-2.1138,-2.1319,-2.156,-2.2355,-2.2661,-2.3122,-2.4162,-2.4175,-2.425,-2.4611,-2.4395,-2.4177,-2.3999,-2.3759,-2.3837,-2.4348,-2.4389,-2.4792,-2.5615,-2.5689,-2.5799,-2.6087,-2.6505,-2.6691,-2.6691,-2.6691,-2.6691,-2.6691,-2.6691,-2.6808,-2.7051,-2.7051,-2.7409,0.0099,-0.0757,-0.1833,-0.2704,-0.3776,-0.4891,-0.6059,-0.6257,-0.618,-0.6261,-0.6338,-0.6338,-0.6338,-0.6338,-0.6338,-0.6338,-0.6338,-0.6338,-0.6338,-0.6338,-0.6338,-0.6338,-0.6338,-0.6338,-0.6338,-0.6338,-0.6641,-0.7629,-0.7629,-0.8084,-0.8998,-0.8993,-0.8993,-0.8993,-0.8993,-0.9069,-0.915,-0.915,-0.9221,-0.9296,-0.9296,-0.9296,-0.9372,-1.1174,-1.2077,-1.215,-1.2224,-1.2305,-1.2305,-1.2305,-1.2305,-1.2305,-1.2305,-1.2305,-1.2372,-1.3237,-1.36,-1.3665,-1.4593,-1.5508,-1.621,-1.628,-1.6932,-1.7647,-1.7725,-1.7794,-1.7862,-1.7862,-1.791,-1.7939,-1.79,-1.7578,-1.7266,-1.7266,-1.76,-1.7988,-1.8333,-1.8765,-1.9301,-2.0134,-2.0308,-2.0538,-2.1369,-2.1907,-2.2318,-2.2484,-2.321,-2.3876,-2.4359,-2.4009,-2.3865,-2.4342,-2.3925,-2.3794,-2.4282,-2.4307,-2.4552,-2.5105,-2.5144,-2.5144,-2.5221,-2.6123,-2.6624,-2.6624,-2.6691,-2.6691,-2.6691,-2.6691,-2.6691,-2.6691,-2.6691,-2.6906,0.0319,-0.0611,-0.1639,-0.1897,-0.2694,-0.3958,-0.5838,-0.5628,-0.5315,-0.6103,-0.6338,-0.6338,-0.6338,-0.6338,-0.6338,-0.6338,-0.6338,-0.6338,-0.6338,-0.6338,-0.6338,-0.6338,-0.6338,-0.6338,-0.6338,-0.6338,-0.6416,-0.6644,-0.6641,-0.6718,-0.6945,-0.6949,-0.6949,-0.6949,-0.6949,-0.7326,-0.8089,-0.8161,-0.8542,-0.9296,-0.9296,-0.9296,-0.9301,-0.975,-1.0346,-1.1162,-1.1996,-1.2305,-1.2305,-1.2305,-1.2305,-1.2305,-1.2305,-1.2305,-1.2298,-1.2519,-1.2592,-1.2666,-1.2879,-1.3091,-1.3375,-1.4091,-1.445,-1.4736,-1.5587,-1.6289,-1.6922,-1.6922,-1.7196,-1.7441,-1.71,-1.668,-1.6409,-1.6409,-1.6668,-1.6991,-1.709,-1.7219,-1.7688,-1.9112,-1.9349,-1.9831,-2.1244,-2.1594,-2.1678,-2.1786,-2.2886,-2.3353,-2.2462,-2.315,-2.3551,-2.3151,-2.3408,-2.3638,-2.3752,-2.3752,-2.3991,-2.4552,-2.4576,-2.4736,-2.5182,-2.5799,-2.6156,-2.6156,-2.6505,-2.6691,-2.6691,-2.6691,-2.6691,-2.6691,-2.6691,-2.6906,0.0349,-0.0535,-0.1512,-0.2148,-0.2682,-0.3357,-0.453,-0.4373,-0.4217,-0.5315,-0.5944,-0.6338,-0.6338,-0.6338,-0.6338,-0.6338,-0.6338,-0.6338,-0.6338,-0.6338,-0.6338,-0.6338,-0.6338,-0.6338,-0.6338,-0.6338,-0.6288,-0.6359,-0.6363,-0.6393,-0.6468,-0.6403,-0.6363,-0.6363,-0.6295,-0.6567,-0.7099,-0.7099,-0.7326,-0.7859,-0.7859,-0.7859,-0.7936,-0.9367,-1.0265,-1.0864,-1.1848,-1.2305,-1.2305,-1.2305,-1.2305,-1.2305,-1.2305,-1.2305,-1.2305,-1.2305,-1.2305,-1.2305,-1.2305,-1.2586,-1.2997,-1.3423,-1.379,-1.4237,-1.4632,-1.5121,-1.5528,-1.5528,-1.573,-1.5871,-1.5596,-1.5232,-1.4994,-1.5435,-1.5831,-1.6162,-1.6367,-1.625,-1.6447,-1.7605,-1.7839,-1.8233,-1.9436,-1.9946,-2.0382,-2.1144,-2.1589,-2.1605,-2.0882,-2.1773,-2.2508,-2.2678,-2.3246,-2.3595,-2.3595,-2.3595,-2.3724,-2.3991,-2.4032,-2.4142,-2.443,-2.495,-2.5503,-2.5997,-2.647,-2.6691,-2.6691,-2.6691,-2.6691,-2.6691,-2.6691,-2.6906,0.0475,-0.0276,-0.118,-0.2547,-0.2734,-0.2656,-0.3046,-0.2968,-0.3124,-0.4217,-0.5315,-0.6103,-0.6261,-0.6338,-0.6338,-0.6338,-0.6338,-0.6338,-0.6338,-0.6338,-0.6338,-0.6338,-0.6338,-0.6338,-0.6338,-0.6338,-0.6312,-0.6427,-0.6458,-0.6525,-0.6654,-0.6539,-0.6471,-0.6471,-0.6335,-0.6338,-0.6338,-0.6338,-0.6338,-0.6338,-0.6338,-0.6338,-0.6412,-0.9059,-1.026,-1.0335,-1.1323,-1.1848,-1.1996,-1.1848,-1.2003,-1.2298,-1.2077,-1.215,-1.2305,-1.2305,-1.2305,-1.2305,-1.2305,-1.2771,-1.3331,-1.3138,-1.3554,-1.4054,-1.384,-1.395,-1.409,-1.409,-1.4106,-1.4187,-1.4187,-1.3847,-1.3697,-1.4391,-1.4759,-1.5145,-1.5809,-1.5664,-1.5642,-1.6379,-1.6708,-1.709,-1.7688,-1.8394,-1.932,-2.0555,-2.019,-1.9813,-1.9824,-2.0514,-2.1389,-2.23,-2.3009,-2.3465,-2.3465,-2.3551,-2.3595,-2.3595,-2.3595,-2.3595,-2.3595,-2.4116,-2.4831,-2.5689,-2.6297,-2.6624,-2.6691,-2.6691,-2.6691,-2.6691,-2.6691,-2.6906,0.0838,0.0427,-0.0256,-0.151,-0.1097,-0.0862,-0.2656,-0.2425,-0.2113,-0.3124,-0.4139,-0.5237,-0.6103,-0.6338,-0.6338,-0.6338,-0.6338,-0.6338,-0.6338,-0.6338,-0.6338,-0.6338,-0.6338,-0.6338,-0.6338,-0.6338,-0.6345,-0.6288,-0.6403,-0.6481,-0.6502,-0.6481,-0.6471,-0.6471,-0.6335,-0.6338,-0.6338,-0.6338,-0.6338,-0.6338,-0.6338,-0.6338,-0.6338,-0.7629,-0.8237,-0.8232,-0.9296,-1.0196,-1.0938,-1.0045,-1.0726,-1.2224,-1.1316,-1.1539,-1.2305,-1.2305,-1.2305,-1.2305,-1.2305,-1.221,-1.2131,-1.209,-1.197,-1.1813,-1.1771,-1.2436,-1.3109,-1.3109,-1.3411,-1.3675,-1.3675,-1.341,-1.3136,-1.3205,-1.3285,-1.3743,-1.5185,-1.5449,-1.5642,-1.6379,-1.7523,-1.8447,-1.8555,-1.915,-1.972,-1.9911,-1.9861,-1.9786,-1.9799,-2.0395,-2.0904,-2.1028,-2.2128,-2.283,-2.283,-2.329,-2.3595,-2.3595,-2.3595,-2.3595,-2.3595,-2.4116,-2.4471,-2.4632,-2.5598,-2.6297,-2.6691,-2.6691,-2.6691,-2.6691,-2.6691,-2.6906,0.0845,0.0566,0.0131,-0.0531,-0.0314,-0.0235,-0.1175,-0.1019,-0.1019,-0.2034,-0.2659,-0.3285,-0.4297,-0.453,-0.4688,-0.5315,-0.5395,-0.5628,-0.6183,-0.6338,-0.6338,-0.6338,-0.6338,-0.6338,-0.6338,-0.6338,-0.6295,-0.6373,-0.6437,-0.6549,-0.6719,-0.6566,-0.6512,-0.6597,-0.638,-0.6338,-0.6338,-0.6338,-0.6338,-0.6338,-0.6338,-0.6338,-0.6338,-0.6795,-0.7249,-0.7859,-0.8846,-0.9523,-0.9895,-0.9448,-0.9825,-1.0576,-1.0121,-1.0196,-1.0645,-1.0645,-1.095,-1.1372,-1.0704,-1.0803,-1.1093,-1.0786,-1.0604,-1.0539,-1.0857,-1.1262,-1.1588,-1.1588,-1.1739,-1.1933,-1.1933,-1.1766,-1.1787,-1.2205,-1.2328,-1.2749,-1.4382,-1.4756,-1.4982,-1.5748,-1.6754,-1.7578,-1.8004,-1.8715,-1.9307,-1.9747,-1.9798,-1.9798,-1.9798,-2.0485,-2.0911,-2.0809,-2.1582,-2.23,-2.2649,-2.292,-2.3246,-2.3595,-2.3595,-2.3595,-2.3595,-2.3837,-2.4074,-2.4389,-2.5144,-2.5799,-2.6297,-2.6297,-2.6436,-2.6691,-2.6691,-2.6906,0.0794,0.0642,0.047,0.0142,0.0075,0.0076,0.0,0.0,-0.0236,-0.102,-0.1176,-0.141,-0.2189,-0.2734,-0.3357,-0.4139,-0.4295,-0.4608,-0.5392,-0.5473,-0.5473,-0.5473,-0.5473,-0.5628,-0.5867,-0.5867,-0.6064,-0.641,-0.6451,-0.6573,-0.68,-0.6597,-0.6525,-0.6637,-0.6393,-0.6338,-0.6338,-0.6338,-0.6338,-0.6338,-0.6338,-0.6338,-0.6338,-0.6338,-0.6718,-0.748,-0.8237,-0.8689,-0.8922,-0.8618,-0.8841,-0.9301,-0.8998,-0.9069,-0.9296,-0.9296,-0.9744,-1.0306,-0.9401,-0.9507,-1.003,-0.9796,-0.9675,-0.9718,-1.043,-1.0624,-1.0624,-1.0624,-1.0624,-1.0624,-1.0624,-1.0624,-1.0744,-1.1344,-1.1531,-1.202,-1.3786,-1.4392,-1.4688,-1.5294,-1.5979,-1.6652,-1.7246,-1.805,-1.8774,-1.9162,-1.9113,-1.9153,-1.9463,-2.008,-2.0511,-2.056,-2.1099,-2.1724,-2.2392,-2.2603,-2.2965,-2.3551,-2.3595,-2.3595,-2.3595,-2.3595,-2.3794,-2.4199,-2.4592,-2.5182,-2.6013,-2.6013,-2.6227,-2.6691,-2.6691,-2.6906,0.0895,0.0867,0.0747,0.0288,0.0255,0.0337,0.0076,0.0,0.0,-0.0079,-0.0079,-0.0079,-0.0157,-0.18,-0.3124,-0.3202,-0.3202,-0.3202,-0.3279,-0.3279,-0.3279,-0.3279,-0.3279,-0.3669,-0.4686,-0.4766,-0.524,-0.6268,-0.6396,-0.6478,-0.6495,-0.6481,-0.6474,-0.6485,-0.6339,-0.6338,-0.6338,-0.6338,-0.6338,-0.6338,-0.6338,-0.6338,-0.6338,-0.6338,-0.6338,-0.6416,-0.6412,-0.7022,-0.7783,-0.6872,-0.7557,-0.9226,-0.8237,-0.8466,-0.9296,-0.9296,-0.9296,-0.9341,-0.9186,-0.8893,-0.8814,-0.9468,-0.9557,-0.9484,-1.0371,-1.0624,-1.0624,-1.0624,-1.0624,-1.0624,-1.0624,-1.0624,-1.0624,-1.0618,-1.0681,-1.1296,-1.3666,-1.4805,-1.5352,-1.541,-1.5979,-1.6482,-1.6539,-1.7612,-1.8265,-1.7765,-1.7346,-1.7454,-1.8584,-1.8821,-1.9097,-1.9798,-2.0446,-2.1064,-2.171,-2.2346,-2.2965,-2.3551,-2.3595,-2.3595,-2.3595,-2.3595,-2.3595,-2.3638,-2.3681,-2.4471,-2.6013,-2.6013,-2.6227,-2.6691,-2.6691,-2.6906,0.0935,0.0894,0.0823,0.0588,0.0404,0.0255,0.0274,0.0148,0.0,0.0,0.0,0.0,0.0,-0.0627,-0.1331,-0.2035,-0.2113,-0.2347,-0.3046,-0.3124,-0.3124,-0.3124,-0.3124,-0.3279,-0.3671,-0.3669,-0.3826,-0.4217,-0.4328,-0.4377,-0.4525,-0.5023,-0.5416,-0.55,-0.6018,-0.6338,-0.6338,-0.6338,-0.6338,-0.6338,-0.6338,-0.6338,-0.6338,-0.6338,-0.6338,-0.6338,-0.6338,-0.649,-0.6795,-0.6412,-0.6718,-0.7326,-0.6945,-0.7022,-0.7403,-0.7403,-0.7783,-0.821,-0.7418,-0.7372,-0.7883,-0.8507,-0.8612,-0.8742,-1.0168,-1.0624,-1.0624,-1.0624,-1.0624,-1.0624,-1.0624,-1.0624,-1.0624,-1.0624,-1.0982,-1.1593,-1.2504,-1.3717,-1.4805,-1.5294,-1.5979,-1.6492,-1.6492,-1.7245,-1.781,-1.7644,-1.7478,-1.7511,-1.795,-1.8004,-1.8124,-1.834,-1.902,-1.9736,-2.0356,-2.1086,-2.1738,-2.2363,-2.277,-2.3009,-2.3009,-2.3377,-2.3595,-2.3595,-2.3964,-2.4592,-2.5503,-2.5503,-2.5908,-2.6691,-2.6691,-2.6791,0.1104,0.1068,0.1099,0.1115,0.0899,0.0655,0.0687,0.0346,0.0074,0.0,0.0,0.0,0.0,0.0,-0.0236,-0.0941,-0.1097,-0.1332,-0.1955,-0.2033,-0.2033,-0.2033,-0.2033,-0.2189,-0.2579,-0.2579,-0.2735,-0.3046,-0.3124,-0.3146,-0.3277,-0.3859,-0.4171,-0.4318,-0.4886,-0.5237,-0.5237,-0.5237,-0.5237,-0.5237,-0.5237,-0.5395,-0.5786,-0.5786,-0.5944,-0.6338,-0.6338,-0.6338,-0.6338,-0.6338,-0.6338,-0.6338,-0.6338,-0.6338,-0.6338,-0.6338,-0.6718,-0.7141,-0.6247,-0.6317,-0.6891,-0.7532,-0.7617,-0.7827,-0.9256,-0.9709,-0.9709,-0.9709,-0.9709,-0.9709,-0.9709,-0.997,-1.0238,-1.0561,-1.0989,-1.1469,-1.1772,-1.287,-1.3965,-1.451,-1.5206,-1.5728,-1.5728,-1.6348,-1.6856,-1.6856,-1.6856,-1.6968,-1.7191,-1.7246,-1.7413,-1.7907,-1.8394,-1.9073,-1.9991,-2.0521,-2.1175,-2.1993,-2.2452,-2.2785,-2.3009,-2.3377,-2.3595,-2.3595,-2.3948,-2.4389,-2.4934,-2.5297,-2.5908,-2.6691,-2.6691,-2.6691,0.0,0.0,0.0,0.1895,0.1744,0.1458,0.1346,0.0761,0.0193,0.0,0.0,0.0,0.0,0.0,0.0,0.0,0.0,0.0,0.0,0.0,0.0,0.0,0.0,-0.0392,-0.1489,-0.1568,-0.1957,-0.2968,-0.3046,-0.3046,-0.3046,-0.3046,-0.3046,-0.3124,-0.3124,-0.3124,-0.3124,-0.3124,-0.3124,-0.3124,-0.3124,-0.3671,-0.4686,-0.4686,-0.5237,-0.6183,-0.6183,-0.6183,-0.6183,-0.6261,-0.6338,-0.6338,-0.6338,-0.6338,-0.6338,-0.6338,-0.6338,-0.6217,-0.5911,-0.5803,-0.5891,-0.6518,-0.6724,-0.685,-0.7762,-0.8027,-0.8027,-0.8027,-0.8027,-0.8027,-0.8027,-0.8619,-0.9466,-1.0364,-1.0561,-1.08,-1.1586,-1.2389,-1.2948,-1.3009,-1.3606,-1.4154,-1.4154,-1.4805,-1.5352,-1.5352,-1.5352,-1.5642,-1.6379,-1.6492,-1.7034,-1.8447,-1.8661,-1.923,-2.0597,-2.0746,-2.1321,-2.2558,-2.2649,-2.292,-2.3508,-2.3551,-2.3595,-2.3595,-2.3595,-2.3879,-2.4389,-2.5449,-2.621,-2.6691,-2.6691,-2.6691,0.1459,0.0,0.0,0.0,0.0,0.0,0.1147,0.0859,0.0474,0.0192,0.0133,0.0138,0.0,0.0,0.0,0.0,0.0,0.0,0.0,0.0,0.0,0.0,0.0,-0.0079,-0.0392,-0.0471,-0.0549,-0.0862,-0.0862,-0.0862,-0.0862,-0.1566,-0.2347,-0.3046,-0.3124,-0.3124,-0.3124,-0.3124,-0.3124,-0.3124,-0.3124,-0.3279,-0.3513,-0.3513,-0.3671,-0.3982,-0.3982,-0.3982,-0.4139,-0.5631,-0.6338,-0.6338,-0.6338,-0.6338,-0.6338,-0.6338,-0.6338,-0.6234,-0.6037,-0.5895,-0.5908,-0.6595,-0.6764,-0.685,-0.7762,-0.8027,-0.8027,-0.8027,-0.8027,-0.8027,-0.8027,-0.8156,-0.8549,-0.946,-0.9658,-0.9913,-1.0737,-1.1115,-1.1608,-1.2765,-1.3191,-1.3304,-1.3304,-1.4025,-1.451,-1.451,-1.505,-1.5468,-1.569,-1.569,-1.5853,-1.6301,-1.7291,-1.8058,-1.8424,-1.9451,-2.0245,-2.057,-2.1077,-2.1595,-2.2225,-2.268,-2.3143,-2.3595,-2.3991,-2.4266,-2.4389,-2.4712,-2.5297,-2.6191,-2.6556,-2.6691,0.1847,0.1661,0.1616,0.2058,0.0,0.0,0.1902,0.167,0.1327,0.1369,0.1439,0.1411,0.1311,0.1331,0.1331,0.1331,0.1331,0.1019,0.0157,0.0,0.0,0.0,0.0,0.0,0.0,0.0,0.0,0.0,0.0,0.0,0.0,-0.0628,-0.1176,-0.18,-0.18,-0.18,-0.18,-0.18,-0.18,-0.18,-0.18,-0.2033,-0.2501,-0.2501,-0.2735,-0.3124,-0.3124,-0.3124,-0.3202,-0.4453,-0.4999,-0.4999,-0.4999,-0.5237,-0.5628,-0.5628,-0.5829,-0.6142,-0.5986,-0.5837,-0.5758,-0.6147,-0.6222,-0.6268,-0.6793,-0.6924,-0.6924,-0.6924,-0.6924,-0.699,-0.7372,-0.7437,-0.7697,-0.8549,-0.8748,-0.8947,-0.9676,-0.9856,-1.0281,-1.1717,-1.2274,-1.2512,-1.2512,-1.3183,-1.3786,-1.4154,-1.4628,-1.4991,-1.5352,-1.541,-1.5526,-1.5806,-1.6641,-1.7246,-1.7578,-1.8661,-1.9463,-1.9761,-2.0383,-2.1077,-2.1663,-2.21,-2.2575,-2.3187,-2.3522,-2.3806,-2.4074,-2.4511,-2.5182,-2.6013,-2.6297,-2.6505,0.2405,0.2075,0.2074,0.2822,0.2302,0.0,0.2866,0.2636,0.2305,0.2793,0.2901,0.2842,0.2891,0.2906,0.291,0.2827,0.2948,0.2385,0.0626,0.0235,0.0157,0.0157,0.0079,0.0,0.0,0.0,0.0,0.0,0.0,0.0,0.0,0.0,0.0,0.0,0.0,0.0,0.0,0.0,0.0,0.0,0.0,-0.0471,-0.1411,-0.1411,-0.1879,-0.2734,-0.2734,-0.2734,-0.2734,-0.2734,-0.289,-0.3124,-0.3124,-0.3671,-0.453,-0.453,-0.5002,-0.5631,-0.5488,-0.5422,-0.5283,-0.5138,-0.509,-0.509,-0.509,-0.516,-0.5292,-0.5362,-0.5296,-0.5422,-0.633,-0.6523,-0.6785,-0.7632,-0.7827,-0.8032,-0.8657,-0.8829,-0.9134,-1.0364,-1.1163,-1.1648,-1.1648,-1.2251,-1.2976,-1.37,-1.4085,-1.4597,-1.5323,-1.542,-1.5642,-1.6322,-1.6436,-1.6765,-1.7413,-1.8221,-1.8967,-1.9556,-2.0334,-2.1046,-2.1568,-2.167,-2.203,-2.2694,-2.2682,-2.2922,-2.3385,-2.4554,-2.5373,-2.5924,-2.5961,-2.6262,0.2871,0.2488,0.2429,0.2385,0.2375,0.0,0.1934,0.1953,0.1936,0.1579,0.1503,0.1453,0.1334,0.1515,0.1583,0.1386,0.2038,0.2501,0.2466,0.1801,0.1254,0.1254,0.0549,0.0,0.0,0.0,0.0,0.0,0.0,0.0,0.0,0.0,0.0,0.0,0.0,0.0,0.0,0.0,0.0,0.0,0.0,-0.0079,-0.0314,-0.0314,-0.0392,-0.0627,-0.0627,-0.0627,-0.0627,-0.0627,-0.1565,-0.3124,-0.3124,-0.3202,-0.3435,-0.3435,-0.354,-0.3682,-0.3516,-0.3424,-0.3403,-0.3242,-0.3211,-0.3211,-0.3211,-0.3747,-0.4417,-0.516,-0.4888,-0.4483,-0.5418,-0.5686,-0.5881,-0.6719,-0.6981,-0.7307,-0.8554,-0.8812,-0.9134,-1.0364,-1.0744,-1.08,-1.08,-1.0961,-1.1138,-1.1254,-1.3502,-1.52,-1.5379,-1.5381,-1.5468,-1.5584,-1.6151,-1.6549,-1.6708,-1.7961,-1.8768,-1.8915,-2.0055,-2.0798,-2.0957,-2.1382,-2.1942,-2.2709,-2.2716,-2.2509,-2.2069,-2.3758,-2.4831,-2.5373,-2.5815,-2.6262,0.3287,0.2855,0.2815,0.2679,0.2525,0.0,0.0,0.2426,0.251,0.2707,0.286,0.289,0.2675,0.2435,0.236,0.2623,0.3262,0.376,0.376,0.2936,0.2347,0.2347,0.1878,0.1331,0.0863,0.0784,0.0549,0.0079,0.0,0.0,0.0,0.0,0.0,0.0,0.0,0.0,0.0,0.0,0.0,0.0,0.0,0.0,0.0,0.0,0.0,0.0,0.0,0.0,0.0,0.0,-0.0627,-0.1565,-0.1565,-0.1878,-0.2343,-0.2315,-0.2648,-0.3025,-0.2947,-0.2868,-0.2797,-0.269,-0.2678,-0.2678,-0.2678,-0.3011,-0.348,-0.3949,-0.3747,-0.348,-0.3949,-0.435,-0.4818,-0.5269,-0.5738,-0.6268,-0.6924,-0.712,-0.7302,-0.7906,-0.9418,-1.0624,-1.0624,-1.0571,-1.0586,-1.0586,-1.1973,-1.357,-1.5217,-1.5398,-1.542,-1.542,-1.5748,-1.5921,-1.5921,-1.6968,-1.7731,-1.8124,-1.9389,-2.0216,-2.0271,-2.0862,-2.1478,-2.2161,-2.2217,-2.2188,-2.2188,-2.2758,-2.3319,-2.379,-2.409,-2.4612,0.4092,0.352,0.3418,0.3264,0.2832,0.2553,0.0,0.0,0.0,0.3817,0.4164,0.4239,0.3988,0.3504,0.3308,0.3833,0.439,0.4577,0.4156,0.3641,0.3222,0.3008,0.3018,0.2706,0.1807,0.1652,0.1369,0.0626,0.0459,0.0457,0.0627,0.0627,0.0627,0.0627,0.0392,0.0392,0.0627,0.0235,0.0079,0.0314,0.0079,0.0,0.0,0.0,0.0,0.0,0.0,0.0,0.0,0.0,0.0,0.0,0.0,-0.0548,-0.132,-0.1294,-0.1705,-0.2373,-0.2322,-0.2263,-0.2211,-0.2211,-0.2211,-0.221,-0.241,-0.2344,-0.2278,-0.2611,-0.2544,-0.2477,-0.2678,-0.3211,-0.3747,-0.3747,-0.435,-0.4957,-0.5296,-0.5428,-0.5415,-0.5367,-0.8238,-1.0624,-1.0624,-1.0624,-1.0624,-1.0624,-1.0624,-1.1527,-1.4135,-1.4481,-1.4588,-1.4902,-1.5245,-1.5459,-1.5586,-1.61,-1.6789,-1.7577,-1.8895,-1.9646,-1.9713,-2.0253,-2.0757,-2.1192,-2.1411,-2.1813,-2.2292,-2.1774,-2.1803,-2.2397,-2.2537,-2.3,0.5912,0.5053,0.4601,0.3835,0.3496,0.3146,0.2326,0.0,0.2462,0.2456,0.0,0.2447,0.2304,0.0,0.0,0.2135,0.2878,0.3403,0.3095,0.3563,0.3522,0.2608,0.2836,0.2819,0.2057,0.1964,0.2158,0.2707,0.2137,0.203,0.2715,0.2734,0.2734,0.2734,0.1879,0.1879,0.2734,0.094,0.0471,0.1411,0.0471,0.0,0.0,0.0,0.0,0.0,0.0,0.0,0.0,0.0,0.0,0.0,0.0,-0.0078,-0.0152,-0.0152,-0.022,-0.0352,-0.0351,-0.0345,-0.0337,-0.0337,-0.0337,-0.0471,-0.1207,-0.094,-0.0673,-0.2277,-0.2075,-0.1675,-0.2477,-0.2744,-0.2878,-0.2878,-0.2945,-0.348,-0.5024,-0.5428,-0.5425,-0.5418,-0.8215,-1.0624,-1.0624,-1.0624,-1.0624,-1.0624,-1.0624,-1.0751,-1.1073,-1.1131,-1.1699,-1.3136,-1.4556,-1.5644,-1.615,-1.6258,-1.6765,-1.7725,-1.8967,-1.9604,-1.9452,-1.9876,-1.9811,-1.9324,-2.0415,-2.0976,-2.0922,-2.0838,-2.1349,-2.2412,-2.3018,-2.3274,0.5753,0.5648,0.565,0.4103,0.4031,0.402,0.2652,0.2321,0.2312,0.241,0.0,0.0,0.0,0.0,0.0,0.0,0.2851,0.3174,0.2772,0.3779,0.4282,0.3417,0.3486,0.3441,0.2995,0.2392,0.2311,0.3013,0.2438,0.232,0.31,0.3124,0.3124,0.3124,0.2657,0.2657,0.3124,0.2267,0.2033,0.2501,0.2033,0.18,0.18,0.18,0.18,0.18,0.18,0.18,0.18,0.18,0.1488,0.0941,0.0941,0.0541,0.0,0.0,0.0,0.0,0.0,0.0,0.0,0.0,0.0,-0.007,-0.0415,-0.0279,-0.0141,-0.0899,-0.0835,-0.0629,-0.1016,-0.1494,-0.1913,-0.1883,-0.2277,-0.2878,-0.368,-0.4686,-0.5428,-0.5428,-0.6601,-0.7572,-0.7572,-0.9256,-1.0624,-1.0624,-1.0624,-1.0624,-1.0624,-1.06,-1.0892,-1.1512,-1.2181,-1.3466,-1.5601,-1.638,-1.6951,-1.7346,-1.8078,-1.8783,-1.9468,-1.9108,-1.9279,-2.0022,-2.0182,-2.0599,-2.1298,-2.0509,-2.0552,-2.1409,-2.1288,-2.1353,0.6778,0.6813,0.6824,0.4457,0.4265,0.4277,0.287,0.258,0.2638,0.2745,0.2839,0.0,0.0,0.0,0.2678,0.0,0.0,0.3013,0.2553,0.3481,0.4036,0.3479,0.3576,0.3683,0.3724,0.2804,0.2613,0.3547,0.2963,0.2959,0.3945,0.3984,0.3984,0.3984,0.3671,0.3669,0.3984,0.3357,0.3279,0.3513,0.3202,0.3124,0.3124,0.3124,0.3124,0.3124,0.3124,0.3124,0.3124,0.3124,0.2657,0.2035,0.2035,0.1544,0.0756,0.0227,0.0,0.0,0.0,0.0,0.0,0.0,0.0,0.0,0.0,0.0,0.0,0.0,0.0,0.0,0.0,-0.0486,-0.0975,-0.0955,-0.1493,-0.2097,-0.2614,-0.3747,-0.4837,-0.5363,-0.5466,-0.5428,-0.5428,-0.7507,-0.953,-1.0487,-1.0588,-1.0692,-1.0996,-1.0796,-1.0641,-1.0777,-1.0826,-1.2067,-1.51,-1.6239,-1.6953,-1.7199,-1.7497,-1.8081,-1.8966,-1.8382,-1.8742,-2.0263,-2.002,-2.0436,-2.1678,-2.0712,-2.0491,-2.0976,-2.0288,-2.002,1.0257,0.9188,0.8176,0.5066,0.4008,0.3507,0.2616,0.3051,0.3556,0.3248,0.3848,0.4267,0.3761,0.3663,0.0,0.0,0.0,0.0,0.0,0.2254,0.2182,0.1901,0.2509,0.3208,0.3923,0.3313,0.3459,0.4935,0.4365,0.4595,0.6086,0.6183,0.6183,0.6183,0.5157,0.5157,0.6183,0.4139,0.3593,0.4608,0.3593,0.3124,0.3124,0.3124,0.3124,0.3124,0.3124,0.3124,0.3124,0.3124,0.3046,0.3046,0.3046,0.3003,0.2792,0.0756,0.0,0.0,0.0,0.0,0.0,0.0,0.0,0.0,0.0,0.0,0.0,0.0,0.0,0.0,0.0,0.0,-0.007,-0.007,-0.007,-0.0556,-0.229,-0.2744,-0.3381,-0.5332,-0.5562,-0.5428,-0.5428,-0.5495,-0.6696,-1.0095,-1.0591,-1.0982,-1.2105,-1.1276,-1.0777,-1.1292,-1.135,-1.2439,-1.5019,-1.5806,-1.6457,-1.7363,-1.7655,-1.7711,-1.759,-1.7787,-1.8258,-1.9045,-1.9651,-2.0556,-2.1716,-2.1678,-2.1653,-2.165,-2.0991,-2.0333,1.1576,1.1798,1.1399,0.7508,0.6841,0.6415,0.3576,0.3395,0.3707,0.3285,0.3891,0.4358,0.3925,0.0,0.0,0.0,0.0,0.0,0.0,0.246,0.2381,0.2161,0.0,0.0,0.0,0.0,0.3967,0.4822,0.4793,0.5167,0.6273,0.6338,0.6338,0.6338,0.5944,0.5944,0.6261,0.555,0.5395,0.5786,0.5392,0.5237,0.5237,0.5237,0.5237,0.5237,0.5237,0.5237,0.5237,0.5237,0.4766,0.4139,0.4139,0.373,0.3011,0.2317,0.2055,0.1943,0.1293,0.1059,0.1044,0.1044,0.0604,0.0153,0.0825,0.0529,0.0,0.0,0.0,0.0,0.0,0.0,0.0,0.0,0.0,-0.014,-0.0762,-0.136,-0.196,-0.2648,-0.3261,-0.3806,-0.4512,-0.518,-0.5927,-0.6995,-0.7143,-0.7792,-0.9483,-0.9695,-1.014,-1.1256,-1.1784,-1.2308,-1.3212,-1.4709,-1.5677,-1.6021,-1.6169,-1.6399,-1.6832,-1.6678,-1.7251,-1.8778,-1.9025,-1.9635,-2.0583,-2.0143,-1.9929,-1.9984,-1.9643,-1.959,1.335,1.3702,1.3395,0.9762,0.9236,0.8694,0.5152,0.4941,0.5244,0.4316,0.457,0.5107,0.5627,0.4842,0.0,0.0,0.0,0.0,0.0,0.2598,0.2558,0.0,0.0,0.0,0.0,0.0,0.0,0.0,0.0,0.0,0.0,0.6353,0.6338,0.6338,0.6338,0.6338,0.6338,0.6338,0.6338,0.6338,0.6338,0.6338,0.6338,0.6338,0.6338,0.6338,0.6338,0.6338,0.6338,0.6338,0.5867,0.5237,0.5237,0.4844,0.4139,0.3357,0.3095,0.2986,0.2335,0.2169,0.214,0.214,0.17,0.1249,0.192,0.1624,0.1093,0.1076,0.1077,0.1001,0.0677,0.0602,0.0452,0.0074,0.0292,0.036,-0.0285,-0.063,-0.0973,-0.1715,-0.235,-0.2926,-0.3591,-0.4267,-0.4815,-0.5398,-0.5884,-0.6749,-0.8212,-0.8713,-0.9344,-1.0456,-1.081,-1.1207,-1.1977,-1.318,-1.4097,-1.4684,-1.4762,-1.5174,-1.6053,-1.5813,-1.6588,-1.8542,-1.8379,-1.867,-1.9481,-1.9149,-1.8922,-1.8796,-1.9098,-1.9313]}]]